GFSCGP_700_rhum_000.txt.gz
RH
94 83 60 46 45 38 45 36 29 29 34 37 31 29 30 32 24 24 31 28 18 14 15 16 17 16 17 18 19 18 18 17 21 21 27 30 42 51 52 53 54 55 55 50
86 62 47 45 48 50 44 38 34 34 33 29 27 35 36 28 24 25 25 20 21 22 20 17 20 23 24 19 13 10 8 13 20 22 26 32 32 38 50 51 48 51 54 51
63 48 43 57 52 49 44 42 40 42 43 39 38 36 31 33 31 27 24 22 21 22 22 24 25 25 24 24 24 23 16 10 8 16 19 31 35 33 37 44 45 50 47 46
46 50 54 49 47 42 41 37 43 42 44 38 34 35 30 35 41 40 24 23 25 26 27 27 26 25 25 24 23 22 20 15 14 15 16 27 36 36 39 43 44 48 46 46
46 45 48 43 50 46 54 47 43 40 39 39 34 34 30 34 42 43 28 29 31 28 28 27 26 25 25 24 23 22 22 20 19 22 29 36 40 40 40 39 41 44 45 42
43 41 43 52 50 44 49 46 43 42 40 43 32 31 30 31 36 35 31 29 27 28 28 29 29 29 28 27 26 25 23 22 21 22 28 35 37 34 30 29 29 28 28 28
50 45 47 50 49 45 49 44 43 51 50 45 31 27 25 28 32 31 26 28 29 29 30 31 32 34 36 37 39 40 34 26 25 25 26 26 27 27 26 26 25 25 25 27
52 45 43 46 45 46 48 42 50 57 52 38 31 32 30 27 27 30 28 29 30 32 32 32 33 35 38 36 29 29 35 42 40 35 33 31 29 28 28 29 30 31 31 31
53 55 51 49 46 46 46 49 48 45 41 43 35 34 32 33 32 29 30 32 33 30 32 33 34 33 28 26 22 18 18 18 23 28 35 41 43 42 42 40 40 43 43 42
58 58 57 58 54 51 46 46 42 42 45 44 33 30 29 31 31 32 33 35 35 34 33 35 34 32 34 30 20 20 25 29 30 30 30 29 28 31 36 37 37 42 48 50
58 58 62 59 55 53 52 46 39 35 35 43 42 32 32 34 33 33 36 39 36 33 35 36 36 37 36 24 24 28 33 36 36 36 37 39 40 39 40 41 42 40 38 37
60 66 66 65 61 57 49 46 42 40 39 39 39 35 30 29 32 33 33 36 35 33 35 36 38 37 34 35 34 38 40 41 43 46 47 45 43 41 40 39 38 45 49 48
59 66 70 62 57 54 51 44 41 40 45 48 43 35 32 32 34 38 39 42 43 43 44 46 48 41 41 45 47 46 50 54 55 57 53 47 43 42 40 38 35 33 33 40
55 61 61 55 54 59 53 45 43 49 55 49 44 37 28 34 41 38 42 42 45 45 44 49 47 46 53 59 53 56 59 61 59 52 50 50 48 46 44 42 40 39 38 36
46 58 54 52 49 44 35 28 26 28 21 50 20 41 26 29 32 45 50 51 52 54 49 48 52 60 66 62 66 66 64 61 58 56 55 54 51 48 47 45 45 46 47 45
40 51 43 28 27 38 37 24 35 36 32 46 49 43 34 46 52 53 53 52 50 49 49 50 53 58 61 65 65 66 67 65 64 67 68 62 55 52 48 44 41 39 37 36
41 41 48 46 44 51 48 38 40 39 39 40 43 41 47 51 52 54 48 51 53 55 57 54 57 68 70 70 69 69 71 71 70 66 61 58 54 50 46 42 38 35 31 28
58 63 60 57 58 68 44 41 41 41 44 46 48 50 52 54 51 52 56 59 61 63 60 61 77 75 70 72 77 84 86 79 70 64 58 52 47 43 37 29 20 14 10 12
67 55 62 67 68 56 46 46 49 55 54 54 55 54 58 56 54 60 66 66 68 70 72 77 78 76 83 87 94 92 80 70 64 56 48 36 19 7 1 0 0 0 1 4
59 58 66 72 74 85 54 55 55 59 59 60 60 62 64 65 68 74 78 79 83 86 84 84 88 93 97 97 90 82 74 64 49 30 12 4 3 3 4 3 3 3 2 2
68 68 66 66 74 72 54 63 64 63 61 64 68 75 81 82 84 85 86 89 94 96 96 96 100 99 96 94 89 85 78 39 11 7 6 6 6 6 5 5 4 4 4 5
74 75 79 82 78 76 61 61 72 75 78 81 83 84 87 88 91 96 96 96 92 90 92 92 89 91 94 94 90 73 23 9 8 8 9 9 8 8 7 6 5 5 4 4
78 68 72 80 68 63 72 81 79 78 79 84 89 96 98 98 97 93 92 89 95 95 96 92 91 92 93 88 36 10 9 9 10 12 12 11 11 10 8 7 6 5 6 8
87 72 74 69 46 56 64 69 75 83 92 93 99 94 97 99 99 98 97 99 96 96 94 95 92 84 51 10 8 10 12 14 16 16 16 15 13 11 9 8 9 10 11 12
80 69 59 75 72 71 76 95 90 95 92 89 88 88 89 90 96 98 99 97 96 96 96 93 82 34 7 8 11 14 18 20 20 19 18 15 13 12 11 11 12 13 15 20
33 40 56 54 48 59 53 61 69 70 67 83 88 84 91 97 95 91 90 90 98 98 96 72 16 6 10 12 15 19 22 23 21 21 18 15 15 14 14 14 13 15 20 23

GFSCGP_700_rhum_003.txt.gz
RH
97 99 95 85 80 60 44 45 38 34 32 38 40 35 30 33 34 29 23 19 21 18 14 15 17 16 19 23 22 17 14 12 10 7 11 18 25 34 36 39 48 52 53 56
97 97 95 82 67 33 44 47 35 34 36 35 32 29 36 37 34 29 31 28 22 20 22 21 20 23 26 26 25 25 24 22 14 10 9 10 16 27 37 41 41 45 49 48
87 90 89 53 48 52 53 45 43 43 43 38 32 36 36 33 27 24 24 23 22 22 22 23 26 27 26 26 25 25 24 22 19 17 17 18 19 21 35 43 42 45 45 44
90 83 48 47 56 54 51 43 42 42 41 41 42 40 34 32 32 30 26 23 23 25 28 28 27 26 26 25 25 25 24 24 23 21 21 24 26 29 39 43 42 41 42 39
85 70 47 59 55 47 44 44 41 41 41 42 37 36 33 35 35 30 28 24 26 29 27 27 27 26 26 26 27 29 32 33 28 25 23 24 30 38 41 42 39 34 31 30
48 50 56 51 47 44 51 51 46 46 44 49 31 35 34 33 30 29 28 26 28 28 28 29 30 30 32 35 38 38 35 34 38 41 36 27 26 26 26 27 27 27 27 28
45 55 50 44 50 45 48 48 49 54 56 58 34 34 29 30 30 28 30 29 28 30 30 30 32 36 37 38 38 31 28 22 21 21 33 41 39 35 32 29 29 28 28 29
50 52 49 51 50 40 44 48 52 64 63 49 33 31 25 26 28 30 35 36 32 30 31 34 34 34 34 35 32 32 33 23 22 25 23 26 30 39 43 42 42 43 44 45
48 48 49 50 48 47 48 47 46 48 47 46 39 38 34 30 31 34 32 35 31 32 34 35 35 36 37 36 34 32 30 25 29 32 36 36 36 37 36 36 38 39 41 42
49 52 50 49 48 48 47 46 46 47 48 48 39 33 33 33 32 36 36 32 32 32 36 36 36 37 35 34 34 32 32 36 39 40 42 44 44 44 44 42 41 40 39 38
56 51 58 60 53 52 48 45 42 39 37 52 53 38 34 33 33 33 34 33 34 38 40 40 38 38 38 40 40 37 40 45 46 46 48 50 51 50 48 45 42 41 39 37
61 61 62 61 59 57 54 51 46 40 43 40 40 36 34 33 34 35 37 38 42 42 43 44 45 45 43 44 44 44 47 51 52 56 58 60 59 56 53 51 50 48 46 43
63 66 71 66 64 63 54 49 47 44 45 44 47 38 32 36 40 43 42 41 42 44 50 52 51 54 52 48 50 54 58 57 60 63 66 66 63 56 56 56 54 51 48 44
55 63 54 56 50 51 54 48 45 43 44 40 35 33 34 35 39 36 43 45 43 51 56 56 57 53 50 53 58 62 63 64 64 66 66 65 62 64 62 56 52 48 45 41
43 58 50 46 45 43 39 34 33 31 30 39 23 25 18 20 24 34 44 49 55 58 56 55 53 53 56 61 64 66 65 67 69 71 76 75 76 70 60 54 49 44 39 30
36 43 42 34 25 20 17 17 18 18 19 21 21 29 37 41 44 50 53 54 55 56 58 56 56 58 60 64 66 67 70 73 79 82 77 71 67 60 52 43 29 13 2 0
34 30 28 32 39 39 40 36 41 42 44 45 44 44 45 48 50 53 55 58 60 59 59 62 65 69 70 71 73 80 76 85 88 79 75 70 57 40 18 7 5 5 5 4
26 33 44 49 52 67 44 42 40 41 42 48 48 48 52 55 58 59 59 60 60 64 68 73 75 78 75 78 83 83 90 90 83 81 76 57 26 12 10 9 8 7 7 6
54 54 57 60 66 50 39 41 46 51 51 54 49 53 57 59 60 60 60 64 67 70 71 79 92 94 98 96 97 96 86 85 85 82 61 25 12 12 11 10 10 10 9 8
64 66 64 67 66 77 57 54 55 57 51 58 62 63 61 62 69 73 70 76 83 85 90 96 98 92 97 98 94 85 85 87 85 52 19 12 12 13 13 14 14 12 11 9
61 63 66 70 72 60 54 58 62 61 67 70 73 76 78 78 79 84 86 94 91 99 99 98 96 85 86 90 88 87 89 78 39 14 11 14 16 17 18 18 16 14 12 12
68 70 73 75 77 74 68 76 78 79 84 84 82 83 82 84 86 81 92 99 100 98 96 95 85 88 93 96 92 82 53 20 10 11 15 18 21 22 22 21 18 16 15 14
75 72 76 70 62 74 82 81 83 80 80 79 79 85 94 99 99 97 97 96 94 90 92 95 93 92 97 95 82 25 7 8 11 14 16 21 25 25 26 24 20 18 16 13
68 70 79 68 55 64 69 71 72 74 71 62 65 83 94 92 88 89 96 100 96 92 95 94 98 97 97 83 22 5 9 12 13 14 19 27 29 29 30 26 21 18 15 12
74 73 68 65 52 59 50 58 42 34 36 60 71 59 51 54 64 80 85 88 94 92 86 96 98 96 90 43 6 11 14 14 14 21 32 35 34 33 32 25 20 16 13 13
34 33 45 35 40 32 21 24 34 49 51 47 43 45 46 49 52 53 55 70 83 85 95 98 94 57 9 7 11 14 15 20 32 41 41 38 37 35 28 22 18 14 13 15

GFSCGP_700_rhum_006.txt.gz
RH
99 99 96 94 88 72 69 49 42 37 33 33 36 40 36 29 31 32 32 30 25 26 28 23 19 18 21 25 25 25 25 25 25 22 16 18 19 20 27 37 41 45 48 48
99 98 87 92 74 76 75 50 42 38 40 41 40 36 32 29 32 34 35 30 30 30 25 22 21 23 26 26 26 26 26 25 24 23 20 18 22 25 28 31 35 45 46 44
100 98 93 83 92 86 65 45 48 46 44 42 40 35 35 34 35 36 28 26 27 23 22 23 25 28 28 27 26 26 25 25 26 25 24 23 25 28 33 35 35 41 45 44
100 97 88 94 88 77 51 51 48 44 46 41 42 43 36 34 35 30 26 25 24 23 25 29 29 27 27 27 27 28 32 35 31 28 30 34 34 29 25 25 30 34 38 37
88 91 88 94 59 50 50 52 49 42 44 43 39 43 36 36 34 32 30 27 24 26 30 28 28 29 29 30 31 33 36 31 29 24 20 21 24 31 36 32 28 26 26 26
84 96 87 76 53 57 53 47 48 48 47 52 35 38 34 30 22 31 32 29 26 29 30 30 32 32 33 34 34 36 35 31 29 26 22 24 32 38 39 38 36 35 35 35
74 87 54 51 58 50 47 54 52 55 58 60 37 40 27 30 27 28 30 30 29 30 31 32 33 35 35 36 37 36 33 27 25 26 27 30 31 30 32 36 39 42 43 44
78 66 62 57 54 50 47 51 49 64 70 53 36 35 30 27 28 30 34 36 36 35 33 35 38 38 38 38 33 31 38 38 36 36 38 39 39 40 40 41 41 41 41 41
68 57 56 51 50 47 46 47 47 50 52 51 41 38 35 33 29 32 33 33 37 40 36 39 39 38 36 33 37 42 43 42 41 42 44 44 45 46 47 47 48 46 45 43
49 51 52 50 51 50 46 44 48 50 54 53 44 38 35 32 32 32 32 35 37 36 37 42 44 41 38 41 44 47 45 48 48 47 49 50 51 54 56 58 57 54 51 49
43 42 53 51 51 50 49 48 46 44 41 55 55 39 34 31 32 32 34 36 37 38 44 46 44 42 44 52 53 49 49 52 52 54 55 57 60 61 62 61 58 56 56 54
53 44 51 58 53 50 51 48 46 40 43 42 42 37 34 32 34 36 37 41 42 46 50 46 42 49 57 54 52 52 53 55 58 60 62 61 62 64 66 65 62 59 58 56
64 61 67 67 64 60 57 53 52 48 45 46 49 39 35 35 36 44 45 46 49 50 47 49 57 60 55 53 52 54 57 63 65 65 66 69 71 70 68 62 58 57 54 51
64 62 56 60 54 56 57 54 51 49 45 42 41 38 37 38 39 46 48 44 40 44 52 58 57 56 55 55 63 70 75 75 73 73 73 73 78 76 72 64 61 57 50 42
59 57 51 49 46 52 54 52 49 46 44 42 36 33 31 37 41 37 34 36 53 56 56 58 60 61 65 64 66 69 66 70 76 82 82 82 76 74 68 63 57 44 26 15
52 56 50 47 44 39 37 42 43 43 42 35 30 21 34 43 44 47 53 55 54 57 59 61 65 69 71 67 73 86 87 87 88 91 89 80 78 74 71 53 29 16 13 11
44 35 47 31 28 25 29 27 30 26 24 32 43 45 46 47 49 52 55 58 61 63 66 69 72 73 72 84 87 87 74 70 75 91 88 84 81 74 50 26 15 12 12 12
31 28 26 33 37 59 39 46 47 48 48 49 51 53 54 53 53 59 63 64 67 69 72 70 77 78 81 83 85 90 75 75 91 89 84 82 75 51 25 13 13 15 15 16
29 34 43 54 57 48 50 48 49 51 55 55 54 53 53 52 49 58 64 66 66 65 65 78 83 87 93 98 99 87 78 89 94 90 85 65 34 15 12 14 16 19 20 21
62 62 60 63 63 68 57 55 52 48 56 49 49 53 58 53 57 58 60 64 74 74 86 92 98 98 100 95 89 88 88 92 92 83 56 22 10 13 14 14 19 24 27 27
67 66 64 63 65 55 55 60 57 57 44 52 62 62 62 72 75 74 77 75 81 83 95 96 98 98 90 85 89 93 96 96 81 43 14 9 12 12 13 17 28 31 31 31
62 61 64 68 73 68 60 67 62 59 67 69 71 74 76 77 71 74 84 82 85 94 98 100 100 93 87 84 94 98 95 89 70 23 8 11 11 12 21 32 36 37 36 34
69 67 64 53 58 58 63 63 66 73 79 77 76 71 68 65 80 79 66 72 94 99 99 100 100 99 89 93 100 95 90 75 33 8 10 11 12 28 41 42 42 41 38 29
70 62 72 61 59 66 80 82 80 79 76 68 54 51 44 46 50 53 56 55 61 67 83 90 92 87 93 99 97 71 27 8 8 10 12 20 39 45 45 45 45 42 31 23
65 54 57 61 59 58 60 64 65 57 46 46 33 32 36 38 39 40 44 49 52 59 69 72 80 96 100 83 30 10 9 10 13 20 38 46 46 46 46 48 45 36 29 22
42 37 44 37 38 36 37 39 40 37 34 34 35 36 35 36 39 43 45 48 56 68 75 79 87 86 46 17 12 12 14 23 42 46 44 47 51 50 52 48 42 34 27 22

GFSCGP_700_rhum_012.txt.gz
RH
92 99 99 78 68 70 77 80 77 65 57 46 39 36 28 31 36 33 34 34 37 35 31 29 26 26 24 21 26 26 27 27 26 25 26 28 28 28 28 28 28 30 34 38
100 98 91 80 73 87 81 92 83 66 60 48 44 38 32 31 31 29 30 33 32 33 31 30 32 27 26 27 28 28 27 28 30 30 25 23 20 19 19 21 25 29 32 33
100 92 95 95 88 92 87 94 81 70 62 56 44 36 27 28 29 28 30 33 35 36 32 32 29 27 29 30 29 30 32 32 32 30 27 26 23 20 19 20 23 27 30 32
100 100 98 92 81 77 97 68 79 77 82 54 49 54 38 24 27 30 35 35 35 33 33 29 28 30 32 33 33 33 32 32 32 30 26 25 29 30 28 29 30 31 32 33
97 98 100 98 80 78 85 72 85 85 59 54 51 50 37 28 23 27 28 35 33 33 32 30 32 33 36 34 35 36 35 32 28 29 33 36 37 38 38 37 38 38 39 40
99 97 96 99 97 90 86 97 71 60 54 61 46 48 35 25 32 32 32 35 36 36 32 34 36 36 35 38 38 36 34 33 35 39 41 42 44 45 45 45 46 47 49 51
99 96 99 90 95 100 100 96 64 65 66 70 42 45 31 20 29 30 33 35 36 37 34 37 37 35 38 38 39 39 39 44 47 45 46 48 49 50 50 52 53 53 53 53
97 96 100 97 97 94 98 89 56 68 74 60 47 45 23 25 25 26 28 36 37 39 35 38 36 38 39 41 43 44 49 51 50 50 50 50 50 53 55 57 58 59 61 59
86 86 86 86 70 90 94 89 57 56 63 66 51 39 31 29 31 28 30 33 37 40 40 40 38 40 44 46 47 54 53 52 50 49 49 51 53 58 65 68 70 70 68 64
77 82 78 65 92 92 74 60 60 55 64 68 55 44 38 37 36 35 27 32 38 42 44 42 41 44 46 48 59 60 56 56 56 55 56 56 56 59 64 66 65 63 56 51
67 66 90 73 77 91 71 58 55 51 52 61 63 39 36 35 33 33 32 37 42 46 48 42 43 46 49 53 68 63 61 61 62 62 62 65 69 71 65 60 60 52 47 50
66 59 72 69 55 59 56 55 52 49 53 51 50 45 37 35 33 34 37 44 48 50 44 45 47 51 48 63 70 66 65 65 64 64 69 72 66 68 72 63 56 44 48 53
65 57 70 74 68 56 56 56 52 48 45 43 50 42 37 32 32 31 38 48 47 48 49 51 45 49 62 65 75 71 68 68 70 77 80 78 63 62 71 76 51 59 59 60
61 55 56 66 65 62 55 53 53 50 50 49 47 44 41 40 38 36 41 45 45 49 51 47 54 63 66 72 77 74 72 73 73 70 67 70 70 80 91 63 57 64 66 65
64 56 50 52 53 52 53 50 50 52 49 50 48 48 47 46 44 42 42 43 48 51 48 55 61 66 69 72 74 76 80 83 72 65 73 69 86 88 54 60 70 70 72 59
75 60 58 56 50 55 53 49 46 44 48 50 52 52 46 42 46 38 40 44 46 52 54 57 61 68 71 69 72 78 75 71 70 86 98 97 83 51 61 71 71 73 61 39
79 62 58 57 59 59 58 53 53 54 53 52 55 51 53 52 39 45 51 52 52 52 58 64 65 63 62 67 64 64 72 80 95 97 98 91 55 65 73 76 77 68 52 30
67 65 57 45 47 46 41 38 38 48 54 58 57 57 45 38 44 53 56 58 56 60 52 46 45 46 47 47 59 80 95 99 99 74 53 56 68 72 74 76 61 28 10 9
74 55 42 34 36 35 34 31 32 34 35 36 36 42 48 57 61 61 61 60 53 39 32 31 33 37 37 56 80 77 88 86 50 45 58 68 74 76 62 26 10 10 17 24
55 49 43 38 46 57 38 35 38 50 51 51 54 59 62 63 63 61 57 47 36 24 20 22 26 32 38 42 50 58 63 50 48 61 69 78 73 40 13 11 16 28 29 17
62 54 40 35 46 48 52 50 55 61 52 56 61 64 63 60 58 55 51 41 22 18 18 22 26 31 37 47 44 45 47 50 59 68 74 52 18 12 13 25 34 28 15 14
40 37 45 52 63 61 53 64 61 57 53 48 53 60 60 58 58 55 34 20 18 19 22 25 28 34 40 43 43 43 49 58 65 61 30 16 13 18 34 36 24 16 18 20
60 58 59 59 59 59 54 58 61 59 59 59 62 62 63 60 51 30 20 20 22 24 27 31 35 40 41 40 40 48 58 64 51 25 16 15 24 39 37 22 17 18 21 22
66 64 64 63 61 56 55 56 58 61 65 66 64 60 47 38 28 22 23 25 26 28 32 35 36 33 34 39 49 59 63 44 24 16 18 30 38 28 19 20 21 19 19 17
72 70 67 67 67 65 63 64 67 69 67 63 58 51 34 27 26 27 28 25 26 30 33 34 32 31 38 53 64 60 42 23 17 22 36 37 24 18 17 17 18 15 12 15
70 68 75 78 72 66 63 65 63 58 50 43 39 35 31 31 32 31 25 22 25 30 31 31 32 35 48 61 54 34 21 19 31 38 32 21 18 19 17 16 11 10 13 16

GFSCGP_700_rhum_015.txt.gz
RH
88 100 99 89 87 79 80 80 67 56 68 72 58 46 38 29 31 34 37 36 36 38 37 36 33 28 25 24 24 27 28 28 27 28 29 28 25 22 24 28 33 37 39 40
99 99 99 84 77 84 85 80 79 69 68 74 64 47 38 33 26 31 35 33 32 33 34 35 32 31 28 27 29 29 29 31 32 31 28 25 25 24 22 20 22 27 30 33
99 96 95 98 79 91 89 80 77 80 76 73 70 50 36 30 25 22 27 34 30 32 34 35 33 31 30 32 31 32 32 32 32 32 29 26 24 26 29 29 29 30 32 33
100 100 96 95 92 80 84 86 76 83 90 83 70 57 42 34 24 20 25 36 31 35 36 34 33 31 34 37 35 34 33 32 29 24 26 32 36 38 39 39 39 39 40 42
98 100 98 99 86 78 97 85 84 88 90 81 63 54 45 35 26 26 32 39 35 36 32 34 33 36 39 37 38 37 33 28 26 29 38 40 41 42 44 45 46 47 48 50
100 100 98 89 83 87 89 90 98 92 83 61 55 52 38 20 34 28 34 34 36 33 33 33 37 39 38 40 39 37 35 33 34 41 45 45 46 47 46 48 50 51 53 55
99 99 100 100 100 100 96 95 98 82 64 64 50 51 33 25 28 30 34 32 35 36 34 34 40 41 41 41 42 41 38 37 42 48 47 45 44 42 42 44 46 50 54 51
99 100 98 100 100 99 100 81 72 70 71 58 54 50 25 32 30 34 30 37 37 38 36 35 40 42 44 46 46 44 43 46 48 52 52 52 52 52 51 50 51 50 46 41
95 96 98 90 88 94 100 99 74 61 66 64 52 44 37 37 34 32 31 32 36 39 39 39 42 43 45 49 48 48 50 53 55 57 58 58 56 53 56 53 51 50 47 45
70 83 82 100 97 99 91 87 94 65 65 69 58 50 42 39 36 36 33 32 36 40 42 42 44 45 47 50 50 51 62 61 61 63 62 58 55 51 54 56 57 57 62 66
68 68 85 88 98 89 99 90 97 62 56 61 58 39 38 37 35 34 33 34 37 41 45 47 47 48 49 52 51 59 69 68 67 66 63 58 50 53 58 54 50 52 52 45
73 62 81 84 88 91 86 73 77 56 59 54 53 45 36 32 35 32 34 35 41 48 51 52 50 52 53 49 59 66 72 76 73 68 64 58 60 67 68 67 58 44 42 46
75 63 86 93 73 63 80 84 75 61 54 48 52 43 40 37 33 33 34 35 43 50 52 55 53 54 49 60 66 69 76 78 70 68 65 70 76 87 69 75 68 42 47 55
67 60 61 72 69 64 64 73 73 59 55 51 48 43 38 38 40 41 39 40 48 52 57 54 54 52 55 67 71 72 74 72 69 67 72 80 89 79 51 56 49 48 52 56
81 70 59 58 57 56 54 54 60 57 56 53 51 47 40 42 47 46 43 43 47 52 54 54 53 53 63 70 70 71 69 68 78 76 89 92 71 44 42 44 50 53 56 56
85 73 65 54 54 60 59 62 57 56 54 54 53 49 41 43 50 49 46 46 48 53 54 51 58 61 63 66 66 64 63 70 77 84 72 28 37 37 41 46 52 53 48 29
87 68 62 61 60 62 67 55 57 57 54 51 47 27 40 49 48 48 50 41 43 49 54 56 55 55 50 50 56 57 61 70 58 48 39 34 38 41 44 49 49 37 16 12
96 76 75 55 56 54 52 49 47 48 50 52 50 49 53 56 57 57 49 47 55 59 59 55 38 26 33 46 53 58 60 39 41 40 36 39 42 46 47 41 21 13 14 15
93 82 71 48 49 44 36 40 39 40 47 51 53 60 62 60 50 43 49 62 62 57 48 26 19 21 31 38 41 44 37 34 37 36 42 45 45 42 28 16 15 16 15 9
65 72 96 45 38 46 37 34 32 36 36 34 36 40 45 47 54 61 64 60 54 38 24 16 18 20 25 29 33 30 30 35 36 41 46 45 40 23 17 16 19 19 11 8
93 91 53 43 36 34 36 33 38 48 37 37 52 61 61 67 67 63 59 50 37 22 19 19 20 23 26 30 32 33 33 37 43 47 46 38 23 18 18 21 22 12 10 10
64 59 56 49 46 45 43 45 49 49 54 57 65 70 71 69 64 59 51 36 23 21 22 22 23 26 29 32 34 34 40 41 44 44 34 24 19 20 24 23 13 12 12 11
50 52 43 43 41 39 48 48 58 60 60 53 55 59 62 63 59 47 35 25 24 24 23 22 24 29 33 34 32 32 35 40 43 36 24 21 23 28 24 14 14 13 14 11
53 56 58 59 58 58 57 55 63 61 61 61 63 64 62 62 48 31 27 27 26 23 20 21 28 33 33 32 34 35 38 39 32 24 24 27 26 20 16 17 17 15 13 10
65 64 62 62 63 62 61 58 56 59 64 67 67 62 59 42 31 29 29 27 21 17 17 24 30 33 34 34 35 36 33 28 26 29 28 26 21 19 18 17 16 14 11 12
70 70 67 63 66 71 72 71 70 72 72 71 60 48 36 32 32 31 27 20 16 18 24 29 34 36 36 36 34 30 29 32 32 28 24 21 22 21 19 17 15 12 12 13

GFSCGP_700_rhum_018.txt.gz
RH
93 99 99 98 98 88 76 67 71 73 70 68 67 63 63 49 38 32 33 35 36 34 37 36 36 35 32 28 26 26 28 28 28 27 28 29 28 25 22 21 23 28 34 37
100 97 97 100 98 84 77 75 70 69 71 75 68 64 65 47 39 31 32 32 34 34 34 37 36 35 31 29 29 30 31 31 32 32 31 29 28 27 27 26 26 26 29 31
93 97 96 96 98 90 89 77 71 69 77 80 76 58 50 40 36 33 27 30 33 34 32 35 36 34 32 31 33 33 33 33 34 32 29 26 26 29 33 35 36 37 38 39
100 96 99 100 97 86 87 79 79 85 90 70 69 50 51 42 31 31 28 26 27 33 32 36 36 34 32 34 36 35 34 34 31 25 24 27 34 37 40 42 43 43 42 40
92 100 100 100 90 94 75 84 86 90 90 86 69 62 45 37 36 28 25 26 30 36 35 37 35 33 36 38 37 36 35 30 28 27 30 39 42 42 41 38 36 38 40 45
82 98 99 98 100 93 97 89 92 95 88 66 58 54 39 34 33 30 31 31 40 36 37 36 35 36 39 39 38 37 34 33 28 28 35 45 46 45 46 46 46 47 46 44
93 99 100 99 100 96 93 84 97 92 82 54 52 54 40 33 31 29 34 30 35 36 35 36 36 39 40 40 40 38 37 34 34 38 47 52 54 54 52 46 39 38 39 36
96 99 100 99 99 97 90 81 60 60 56 47 56 47 36 32 33 26 29 35 34 36 38 36 38 40 40 42 42 42 40 40 39 47 54 57 57 55 51 40 32 30 34 34
98 99 100 100 99 96 100 93 73 57 59 45 44 46 39 40 38 32 35 31 36 38 39 35 38 41 42 44 44 46 47 46 47 57 60 61 60 58 50 37 35 41 48 46
91 100 100 100 98 99 86 94 87 65 53 51 42 45 37 38 34 35 35 30 36 39 41 37 41 44 45 46 48 51 52 50 59 66 67 68 64 60 50 42 49 47 38 40
98 89 99 100 99 97 99 100 96 70 58 41 38 35 39 35 28 28 35 32 35 38 42 41 44 46 47 50 53 56 51 60 68 70 74 72 68 61 53 58 61 53 33 31
83 68 74 97 99 88 76 82 95 72 58 55 46 36 39 36 32 33 34 35 38 41 45 47 49 51 53 55 56 51 61 67 70 73 78 74 70 63 65 66 60 38 31 38
80 70 73 79 89 96 91 94 90 72 56 52 46 40 39 36 34 36 36 36 38 40 46 50 53 56 57 57 52 58 67 69 70 74 74 75 77 65 75 52 31 32 39 42
76 68 55 56 55 66 80 82 77 76 66 54 50 44 41 40 35 37 39 40 39 42 49 54 58 60 57 54 56 62 67 71 74 75 72 69 59 65 48 31 32 37 40 44
83 69 67 62 63 58 55 53 56 74 66 59 51 54 49 48 47 40 44 45 44 45 51 56 60 59 55 55 59 64 69 72 74 68 56 52 60 40 34 32 36 42 43 34
84 76 68 63 61 63 63 58 57 57 66 64 57 54 54 53 49 42 46 48 47 48 52 58 62 56 55 60 60 62 66 68 64 52 54 51 40 36 33 37 38 38 27 16
94 86 73 62 63 59 65 62 60 57 57 57 57 49 55 54 48 48 48 49 47 48 50 55 55 58 58 54 49 51 55 57 51 53 51 46 41 36 39 38 34 23 17 18
97 86 72 66 62 84 56 50 47 49 49 53 54 56 56 55 50 50 51 50 53 50 52 57 59 57 47 29 28 36 44 56 49 39 48 40 34 37 38 32 21 18 20 17
94 90 91 62 57 53 47 42 48 48 40 37 48 54 56 56 58 57 57 58 56 55 62 62 53 33 18 17 22 34 46 44 32 40 35 33 36 40 30 21 21 23 18 14
97 99 97 78 60 52 40 40 35 40 42 36 40 51 55 62 64 61 62 57 60 66 59 43 22 16 17 19 23 30 36 32 36 34 35 40 41 29 23 23 25 19 15 10
100 87 94 91 96 40 40 39 34 44 40 37 33 40 48 53 57 55 60 67 64 54 36 19 17 18 19 22 27 32 35 34 36 37 43 40 30 24 26 26 22 16 12 11
90 79 91 98 80 56 48 43 41 38 38 41 43 48 58 61 67 71 69 63 51 32 20 19 19 19 21 26 34 34 31 35 37 40 38 29 26 29 26 23 17 14 13 12
83 79 72 59 53 50 45 52 46 44 51 51 55 64 72 75 74 68 59 40 25 21 21 20 17 18 24 29 30 31 34 36 38 36 29 31 32 28 23 17 16 16 14 12
64 68 62 57 54 45 45 51 50 55 60 62 56 63 66 68 66 55 35 25 24 23 20 17 17 20 25 29 31 35 36 36 32 32 37 36 32 23 19 18 18 17 14 12
52 53 53 53 57 57 58 57 57 56 58 63 68 72 71 60 46 29 27 26 24 21 16 16 19 23 27 30 34 35 33 33 39 44 45 38 26 20 20 20 18 15 16 14
61 62 63 64 63 58 61 63 60 60 64 70 73 68 51 33 29 29 28 26 21 15 15 17 20 24 28 32 33 34 39 45 51 53 48 34 24 24 24 18 15 16 15 15

GFSCGP_700_rhum_021.txt.gz
RH
92 89 98 63 93 92 82 80 75 61 55 58 58 62 54 50 51 51 48 41 41 36 33 34 30 35 36 35 31 27 25 27 28 27 27 27 28 29 28 25 24 29 31 31
100 97 93 54 86 99 79 76 64 53 58 65 61 55 52 52 53 55 49 43 44 33 35 36 38 37 36 34 30 27 29 30 30 31 31 31 31 30 29 28 29 30 31 32
96 66 63 94 97 100 100 84 57 55 60 68 64 59 56 56 57 52 46 41 42 36 36 33 35 36 36 33 29 30 32 32 33 33 32 29 25 26 31 36 38 40 41 42
99 99 98 99 99 97 98 72 65 60 70 59 66 44 39 40 46 41 37 36 35 35 38 35 35 36 35 32 32 33 34 34 33 29 24 24 27 34 40 42 43 41 38 36
90 75 96 100 95 100 82 74 71 70 66 73 75 64 43 42 40 43 33 33 34 32 36 36 36 36 34 33 34 36 35 35 30 27 23 23 28 38 43 44 45 42 36 29
88 80 99 85 98 96 91 80 81 74 74 74 61 55 37 39 39 38 37 32 33 32 37 37 38 35 34 36 38 37 36 34 32 31 29 29 38 47 50 49 46 42 32 21
88 94 99 99 99 100 99 97 95 87 80 51 45 48 36 33 29 29 32 35 32 39 40 38 37 35 36 38 39 38 37 36 36 37 35 38 50 55 56 53 50 39 26 21
97 98 98 96 100 98 100 92 54 64 54 41 51 45 38 40 39 29 29 35 40 41 39 38 37 36 38 40 39 40 40 40 42 43 41 48 55 59 61 58 52 41 25 24
98 92 99 100 100 99 98 73 66 49 45 37 46 44 40 31 37 33 32 31 34 38 38 37 36 37 39 42 42 43 43 46 48 46 50 56 60 64 65 61 53 33 27 24
99 88 97 99 100 97 85 74 71 55 48 44 36 34 36 40 38 35 36 36 34 37 38 38 36 38 40 44 44 46 48 51 52 50 57 61 66 69 67 64 53 31 26 18
99 98 99 100 100 97 96 86 79 57 49 37 37 31 39 36 29 28 35 37 37 36 39 40 36 38 42 46 47 50 54 56 52 55 61 66 69 71 71 64 43 30 22 18
99 99 99 100 100 99 86 89 77 57 54 45 40 37 38 36 32 31 33 36 34 35 39 41 39 40 45 49 52 56 58 55 55 59 67 71 73 73 66 48 35 26 22 22
91 92 99 99 99 98 100 97 89 71 61 47 38 39 38 34 34 35 36 36 36 38 39 42 43 44 49 53 58 61 56 54 57 62 68 72 74 71 54 40 29 25 24 28
99 82 61 60 70 82 90 88 86 74 61 52 46 42 37 36 34 35 35 37 37 37 38 40 46 49 54 59 64 58 55 56 61 67 73 76 74 62 46 35 28 26 29 30
95 70 60 52 57 65 75 82 86 82 70 57 48 47 42 44 46 45 47 43 40 43 43 43 49 54 59 64 62 56 57 62 66 69 71 71 64 52 39 31 29 29 31 27
99 71 67 62 60 59 55 61 68 70 67 59 52 49 50 49 49 48 50 43 42 43 46 48 53 57 63 66 59 57 61 61 60 60 61 64 56 42 32 31 31 33 28 21
99 86 69 58 62 65 63 58 60 61 62 58 57 54 55 53 52 53 52 47 45 48 50 53 56 65 65 58 59 60 55 47 44 50 57 56 47 38 33 32 33 28 23 25
96 88 84 78 62 74 54 53 55 58 55 59 62 58 54 56 56 56 54 50 49 50 51 52 55 58 59 61 58 45 30 29 39 47 41 39 39 34 31 32 28 25 28 27
97 98 91 70 58 50 51 47 50 53 50 49 54 57 58 57 56 57 55 53 52 51 52 55 58 61 62 51 28 18 20 26 34 37 32 36 31 31 33 28 27 30 28 20
100 99 99 78 60 59 47 39 45 47 48 42 41 43 47 47 57 56 57 58 57 59 60 60 64 57 36 18 17 18 22 26 30 30 33 30 33 34 28 29 32 31 22 14
100 100 99 96 84 72 47 42 36 47 44 36 30 33 41 60 64 65 63 64 65 61 64 63 48 27 18 18 19 21 23 26 30 30 31 36 32 29 34 36 34 22 16 17
97 98 99 99 99 87 56 44 45 43 38 33 33 33 41 54 61 62 58 61 65 67 60 44 24 19 20 19 18 19 22 27 31 34 36 32 31 37 41 37 25 19 22 23
97 82 82 82 74 57 50 49 51 49 44 42 45 48 51 55 58 62 69 70 64 52 31 21 22 20 18 17 18 21 25 30 36 35 30 34 41 46 43 32 25 27 25 17
91 89 79 68 64 62 52 49 39 43 47 51 54 59 65 70 72 70 64 58 41 24 24 23 21 16 15 17 21 25 30 34 31 32 38 46 49 48 43 34 30 26 19 17
73 72 72 72 68 54 53 50 52 52 52 56 58 60 63 63 64 58 45 28 26 25 24 18 14 14 16 19 24 28 30 30 35 42 49 51 52 52 43 34 28 22 19 19
59 57 53 59 58 57 56 57 59 57 59 60 65 66 67 68 55 33 28 28 26 18 13 14 14 15 17 20 24 26 32 40 47 52 54 56 58 53 39 32 26 22 21 19

GFSCGP_700_rhum_024.txt.gz
RH
100 92 93 64 85 41 91 88 84 74 76 77 65 58 62 62 54 57 50 50 42 40 35 33 34 29 34 38 37 35 32 26 24 27 27 27 27 29 30 28 28 28 28 29
97 94 40 61 75 80 98 95 96 86 67 72 61 60 62 60 56 52 47 50 47 42 32 35 37 35 35 36 35 34 29 26 29 29 30 31 32 32 31 28 28 32 36 39
90 52 81 92 93 98 98 99 82 82 69 64 66 59 60 56 51 50 50 52 51 43 37 36 36 38 38 37 35 31 29 31 33 33 33 31 28 26 29 34 39 42 42 41
95 68 83 87 89 92 95 66 95 88 76 72 66 62 45 39 38 39 48 54 50 43 39 36 37 36 37 36 33 31 32 34 34 33 29 26 24 26 33 40 43 45 46 42
92 85 77 99 82 77 80 67 97 72 100 73 78 67 60 42 42 42 50 48 50 43 39 34 38 36 37 35 33 33 35 36 35 31 28 28 28 32 40 47 49 47 43 37
83 89 97 74 57 60 79 98 99 93 93 88 67 65 52 41 42 43 44 44 43 40 38 35 39 38 38 35 35 36 38 37 35 33 35 36 35 37 44 49 51 50 44 37
91 89 74 90 95 76 98 100 98 100 99 89 56 62 53 38 41 40 42 42 40 37 35 32 39 39 37 36 36 39 39 38 38 37 41 41 40 42 49 54 54 50 43 30
100 74 64 86 95 86 88 100 94 97 91 59 49 56 46 44 40 36 33 34 38 40 34 39 41 39 37 38 38 40 40 40 41 42 45 44 45 48 54 55 55 49 42 25
93 98 98 88 90 98 97 99 88 50 40 51 50 46 41 40 42 40 36 30 33 35 37 42 41 39 38 38 39 42 42 43 44 46 48 47 50 53 56 58 58 53 42 23
96 98 95 91 100 97 91 80 80 64 59 63 52 45 38 35 31 37 35 29 31 36 41 40 40 38 38 39 42 44 43 46 48 50 51 51 54 57 61 61 60 55 37 21
94 97 95 98 99 94 99 100 81 60 49 61 58 43 38 38 36 34 38 35 36 34 37 38 38 38 38 40 43 45 47 49 52 54 53 54 57 61 64 62 59 50 28 20
92 98 99 99 93 95 100 84 74 52 58 48 39 45 40 33 30 27 36 38 41 40 36 38 39 38 38 41 43 48 51 52 56 58 54 56 60 64 63 61 55 37 24 19
98 99 99 100 100 100 100 83 72 68 60 51 48 47 39 34 33 34 36 38 39 38 37 38 40 41 40 42 44 49 53 59 62 56 56 59 62 62 63 58 48 33 23 21
99 98 99 100 95 94 97 90 72 78 66 53 46 44 39 35 34 35 34 33 32 36 37 39 39 42 44 44 47 52 57 65 60 58 59 62 62 63 58 55 45 28 22 21
100 100 98 79 74 77 88 82 77 74 67 61 52 43 39 35 33 39 42 46 44 35 40 41 40 44 47 48 52 57 65 65 60 60 62 61 59 55 53 49 33 25 23 24
85 95 82 60 74 71 70 76 64 65 67 62 57 49 46 46 46 47 46 50 45 41 41 45 46 48 50 52 57 64 69 62 60 61 58 47 43 47 49 34 26 24 25 24
94 84 72 66 56 59 62 61 65 64 66 56 69 53 50 51 51 50 50 51 49 46 44 44 50 52 54 58 64 69 60 60 59 49 37 37 36 41 30 26 25 26 25 28
72 87 88 79 64 75 51 51 44 48 45 64 65 61 56 56 57 55 54 53 54 52 43 47 53 56 56 63 62 58 61 54 37 27 33 32 32 28 25 25 27 26 30 30
78 90 87 81 65 58 53 52 54 55 53 54 57 56 61 61 56 55 55 56 56 53 50 54 56 56 57 58 61 61 44 22 21 26 28 28 27 25 26 26 27 31 30 31
99 100 92 83 69 70 51 40 42 45 56 53 52 56 56 59 57 53 55 55 57 57 56 56 57 60 61 63 52 29 19 20 23 24 26 26 26 26 26 30 33 34 34 32
100 100 98 91 84 64 59 51 40 49 48 39 39 52 55 51 49 55 63 59 60 60 60 63 62 64 60 42 24 20 21 21 21 23 24 26 25 28 33 35 37 37 36 33
97 98 99 100 98 84 60 55 44 47 43 36 35 37 39 46 53 60 68 64 66 68 66 65 65 53 31 21 21 20 18 19 22 24 25 25 30 35 37 39 41 41 35 32
98 90 93 88 74 61 60 51 50 48 46 47 42 41 41 48 60 68 68 61 66 69 69 59 38 23 23 22 18 16 18 20 21 22 25 32 37 38 42 45 43 37 35 33
100 92 85 80 73 63 60 58 53 42 43 45 47 49 51 54 59 62 66 73 70 62 48 27 24 24 20 15 15 16 17 18 21 27 35 37 36 44 49 47 43 39 36 32
82 86 86 80 69 63 65 58 57 50 52 52 51 54 62 68 73 72 68 63 51 31 26 26 21 15 16 16 16 15 17 22 30 37 37 38 49 52 48 49 47 41 33 29
80 74 76 79 70 75 70 60 54 54 55 56 58 57 62 68 69 68 57 34 28 28 24 18 20 19 16 12 13 18 24 32 36 37 42 53 56 55 55 52 46 39 31 26

GFSCGP_700_rhum_027.txt.gz
RH
63 62 70 50 70 98 91 92 98 79 78 81 64 78 67 59 63 58 55 52 51 50 44 39 38 29 27 24 25 33 38 36 34 30 25 27 28 29 31 30 30 31 31 32
78 65 62 50 49 78 81 79 75 73 84 86 77 72 51 57 59 55 55 53 51 52 50 42 39 30 33 33 38 38 36 33 28 27 29 29 30 32 33 31 31 35 39 42
56 59 48 60 67 84 86 97 68 81 74 82 83 79 68 64 60 60 60 55 51 51 50 48 44 32 36 37 37 36 34 31 29 31 32 34 32 29 29 33 37 41 43 45
93 77 75 87 88 86 84 78 92 95 98 96 80 92 68 61 61 62 61 51 50 51 53 52 46 32 35 39 38 35 33 30 32 34 34 31 27 26 27 32 40 47 50 50
88 88 76 85 70 94 73 74 93 96 99 100 95 93 80 60 54 51 50 49 50 52 55 52 45 33 37 38 38 35 33 34 35 35 32 29 32 34 36 40 48 52 53 51
92 96 97 78 71 79 63 88 90 93 93 98 97 100 69 54 36 43 40 44 54 53 56 54 45 38 37 38 37 35 35 37 37 35 34 37 40 41 44 48 51 51 46 39
96 89 84 82 90 86 79 95 88 95 97 85 68 93 81 46 39 40 42 42 50 54 54 49 45 42 38 39 37 36 36 39 39 38 40 43 45 46 49 51 53 51 44 39
97 94 71 83 63 72 76 89 87 87 73 69 79 100 65 42 41 39 42 41 48 51 48 43 42 41 41 40 37 37 39 41 42 42 44 46 48 49 52 53 53 54 52 46
94 93 74 80 65 68 79 100 61 94 94 79 74 64 53 40 42 40 41 42 36 33 38 41 44 42 42 40 38 39 42 43 44 45 47 49 51 52 54 57 57 59 54 48
91 98 85 90 98 98 88 91 96 97 96 98 64 46 45 49 46 40 38 35 36 31 36 42 41 43 42 40 40 41 44 45 46 48 50 53 55 55 58 61 62 63 57 44
94 98 94 97 98 90 97 99 92 88 84 96 79 52 40 42 42 41 41 38 28 28 33 38 42 43 42 40 41 42 46 47 48 50 54 58 58 58 61 63 64 61 51 34
92 99 99 91 100 98 93 99 88 88 99 91 47 49 41 38 33 33 33 33 32 35 35 38 41 41 41 40 42 43 45 49 51 54 60 64 59 60 62 64 62 52 40 27
92 98 99 100 94 100 99 94 73 88 87 61 58 49 44 38 34 29 32 37 38 40 38 38 39 40 41 42 44 44 44 49 54 59 66 64 61 62 64 63 55 42 33 23
96 99 99 99 99 96 99 97 99 100 68 56 49 44 41 36 32 32 38 40 40 40 39 37 38 41 43 43 44 45 46 50 57 64 69 64 63 65 65 57 44 37 26 21
98 99 99 100 100 85 85 98 84 80 74 52 46 39 38 35 34 34 39 41 37 33 35 38 39 42 44 46 46 46 48 54 62 71 69 64 66 66 56 44 38 26 22 20
96 96 100 100 99 85 82 72 66 71 65 61 58 47 39 37 41 44 44 46 48 47 39 41 44 45 47 48 50 51 54 61 71 72 66 67 65 50 42 34 25 22 21 19
86 100 99 92 98 79 76 62 55 53 46 54 56 53 50 49 48 50 49 50 50 45 43 43 40 48 50 51 54 57 63 72 72 66 67 61 42 33 29 25 22 21 20 20
76 83 100 71 62 72 53 53 51 54 55 55 55 66 66 60 56 54 53 52 53 53 51 44 42 48 53 56 60 67 74 68 65 63 50 33 33 32 27 24 22 21 22 24
96 86 99 74 69 63 56 54 56 55 49 52 51 58 65 61 60 58 58 58 55 55 56 53 52 55 63 69 69 66 65 64 55 32 28 30 28 26 25 23 22 23 24 27
97 98 99 87 75 74 50 47 43 51 57 57 57 56 56 60 60 60 57 56 56 57 58 57 61 65 63 63 66 66 60 36 24 25 26 24 24 24 24 22 23 27 30 28
100 99 99 90 85 62 58 58 42 53 50 45 47 49 56 58 56 59 58 58 59 62 63 64 64 65 67 66 63 45 27 24 24 22 22 23 24 24 24 25 30 33 30 33
98 98 98 98 93 82 57 59 47 47 42 37 34 40 52 58 56 57 58 60 65 66 64 66 69 69 67 54 34 24 23 21 20 20 22 23 24 26 28 33 36 35 36 39
91 81 84 86 66 63 62 52 51 51 48 48 46 40 53 60 61 62 64 70 68 70 72 70 70 61 37 25 24 21 18 18 19 21 23 24 27 31 36 39 38 41 44 44
91 96 90 84 65 62 61 61 60 53 43 44 46 46 46 48 57 65 70 66 70 73 73 64 45 27 25 22 16 17 18 17 18 21 24 27 34 39 40 43 48 49 49 43
77 91 91 86 74 70 65 63 60 60 52 51 52 53 55 56 59 65 71 75 72 65 50 30 27 23 17 18 19 16 14 17 21 24 29 36 40 38 41 50 53 53 48 38
75 74 80 67 74 68 65 72 64 53 54 55 58 54 56 67 72 71 68 65 53 33 29 24 18 20 21 18 14 14 16 20 25 32 38 40 39 43 50 53 54 52 41 34

GFSCGP_700_rhum_033.txt.gz
RH
60 64 67 55 48 52 66 88 95 91 86 69 60 81 62 58 77 65 50 52 50 46 54 58 54 51 49 43 41 34 28 29 34 35 32 31 47 49 60 42 42 41 37 34
76 66 61 53 55 63 79 82 85 84 87 82 64 57 52 61 47 61 47 45 48 46 51 52 56 50 47 44 42 37 32 28 28 30 31 46 50 45 42 40 37 35 33 35
74 69 58 64 60 75 76 72 88 69 54 56 72 46 32 31 36 33 41 39 41 44 48 61 56 52 49 47 44 37 34 32 33 37 43 40 36 38 39 38 33 33 34 39
100 91 77 72 71 76 95 69 72 65 88 95 75 77 42 32 22 31 32 30 38 45 52 60 58 56 51 50 47 39 38 41 40 37 32 32 37 38 37 34 32 37 42 47
92 82 71 75 72 69 91 83 86 86 84 86 71 88 59 43 20 19 37 32 27 35 55 58 56 58 53 52 52 42 40 39 36 33 31 33 36 35 33 35 42 45 48 51
98 100 97 84 80 80 83 97 95 98 96 96 78 86 55 38 18 16 26 34 33 36 47 58 56 56 55 51 53 47 40 39 36 33 35 37 36 33 38 44 47 50 53 54
99 96 100 99 88 81 92 98 96 98 97 85 58 71 56 24 19 12 16 41 42 50 38 47 55 55 58 53 55 50 41 40 36 35 38 37 35 40 45 48 50 53 55 56
90 92 66 82 88 79 74 80 93 95 89 77 63 70 44 29 15 28 21 40 43 47 47 51 57 58 54 52 56 52 43 39 36 38 39 38 40 46 49 52 54 56 56 58
91 96 68 60 60 86 98 100 68 93 94 97 68 50 36 30 22 14 30 49 46 45 53 56 55 58 52 52 57 51 45 39 38 40 41 42 46 49 53 56 58 60 60 62
90 96 70 67 78 88 98 85 96 98 93 93 74 73 46 27 18 13 13 40 46 43 45 48 54 57 59 54 58 52 46 40 40 43 44 46 49 53 57 59 64 67 66 66
83 100 90 91 88 86 98 98 94 80 78 96 99 55 40 42 24 12 17 36 44 44 42 45 52 58 58 59 56 54 45 41 43 46 49 50 53 56 59 64 70 72 70 70
79 97 98 90 90 97 97 92 96 80 84 72 91 69 38 61 40 23 14 43 44 41 43 45 49 56 59 60 58 54 44 44 47 49 51 53 57 60 63 69 75 76 73 72
84 97 96 93 97 98 97 98 98 93 69 69 68 48 27 58 53 39 39 50 47 41 42 50 53 59 62 62 62 53 46 47 49 51 54 58 61 62 68 72 79 78 74 72
88 98 95 93 90 98 98 100 99 97 83 73 68 58 32 48 77 55 45 44 47 44 46 50 56 60 64 64 62 51 48 50 52 55 58 60 62 67 70 76 81 78 77 63
97 97 98 96 97 98 99 96 94 98 74 78 75 80 36 55 73 72 60 47 46 47 49 51 56 59 59 58 55 51 52 53 54 57 59 63 66 68 73 83 81 80 64 31
99 98 98 97 97 100 98 100 96 95 82 84 90 72 56 71 76 56 55 49 49 45 45 52 54 56 54 52 51 51 52 54 57 60 63 66 67 73 82 86 79 58 30 24
99 98 98 96 99 99 98 96 95 88 78 73 94 67 72 58 54 50 48 47 45 45 49 53 54 56 54 53 54 57 60 63 65 67 68 70 73 83 86 76 48 29 23 21
98 99 99 98 98 97 95 86 95 90 95 98 94 92 74 55 52 47 47 48 46 45 46 50 52 53 60 66 71 74 73 73 73 72 72 75 87 80 68 37 28 22 21 18
83 99 99 100 99 84 71 92 96 97 98 99 96 80 70 57 51 52 51 53 54 52 53 57 62 68 71 75 77 77 77 77 75 75 83 83 72 50 31 26 22 20 18 21
96 99 100 89 98 79 65 55 73 100 98 83 90 87 64 61 57 55 56 56 57 56 59 64 66 70 73 76 79 80 81 80 84 82 72 55 34 27 23 22 20 19 23 23
94 99 94 95 94 68 63 58 57 58 58 60 62 62 60 60 63 59 59 58 59 60 63 65 70 75 78 81 83 84 83 77 70 57 37 28 24 21 21 19 21 24 24 23
93 97 99 97 96 70 63 62 50 47 46 41 47 53 52 54 64 64 63 62 62 62 63 68 72 74 78 80 76 73 69 58 40 28 24 20 21 20 20 22 25 25 24 25
88 84 79 72 70 65 67 52 52 54 48 48 41 51 57 57 57 61 63 64 66 66 69 75 78 79 75 73 70 61 42 29 24 20 21 21 18 20 24 27 27 26 26 27
80 81 84 77 64 64 62 61 60 52 46 43 42 48 56 60 62 64 64 63 65 68 75 77 74 74 72 65 47 30 25 19 21 21 18 19 22 26 27 26 25 26 30 31
74 79 74 73 78 85 67 66 66 62 57 50 45 44 50 62 66 67 66 69 72 73 72 74 74 69 55 34 25 20 22 21 18 18 20 25 28 27 25 27 29 32 35 38
74 73 75 88 83 76 75 71 71 60 53 52 51 47 46 55 62 64 71 73 70 72 74 70 57 35 26 21 22 22 19 18 20 23 26 26 24 26 28 30 34 39 42 44

GFSCGP_700_rhum_036.txt.gz
RH
62 66 74 54 57 57 61 74 90 81 78 80 57 49 33 32 41 33 28 29 35 32 38 43 45 51 54 36 41 46 41 36 35 33 39 44 46 50 45 65 86 50 80 52
68 64 60 66 65 66 66 75 82 78 50 47 46 31 28 26 29 29 31 27 26 38 33 33 38 55 56 46 48 46 41 40 34 32 34 44 54 55 56 73 92 52 49 39
66 62 66 68 66 73 74 82 81 72 53 47 55 34 27 21 19 20 22 25 23 26 35 38 44 59 57 52 50 45 43 40 35 32 36 46 49 55 55 49 74 47 37 36
92 87 84 88 88 73 75 77 72 80 96 97 62 73 48 35 23 17 15 17 21 23 30 35 44 54 55 53 50 49 46 42 39 36 35 40 51 56 47 45 86 39 37 43
81 83 78 86 84 89 96 91 87 96 97 98 93 93 53 44 31 20 16 12 16 20 28 32 46 49 58 56 53 52 51 43 41 43 42 41 41 42 44 44 40 39 46 49
96 96 97 95 89 88 90 100 100 98 97 97 79 89 57 50 35 24 19 14 13 18 19 34 45 59 63 59 55 52 53 46 41 39 36 34 37 42 42 40 40 48 51 53
100 97 100 98 98 91 99 100 96 98 96 83 65 79 55 42 37 34 21 15 14 20 27 24 43 61 60 60 57 53 54 50 41 38 34 35 40 40 38 41 49 52 54 56
93 87 75 84 76 91 86 92 84 92 93 82 74 83 57 38 39 26 25 22 22 23 35 28 31 53 58 60 59 53 55 54 42 38 36 39 39 38 39 48 52 55 57 59
91 95 72 58 57 69 98 100 87 88 74 92 74 63 54 47 40 26 27 23 18 50 45 45 47 42 57 60 60 57 54 56 44 38 38 40 40 40 48 52 55 58 60 64
98 93 66 64 66 69 71 94 98 98 95 93 79 75 52 44 37 38 28 22 28 37 54 48 51 49 47 60 60 55 57 56 45 40 42 42 42 46 51 55 58 60 63 69
97 100 84 87 75 55 90 97 98 96 91 92 89 50 43 62 66 61 30 23 19 26 45 57 54 51 55 63 58 56 59 56 46 42 44 45 46 50 55 57 60 62 66 72
73 100 99 81 68 78 96 97 95 97 93 83 75 59 42 53 45 52 60 20 15 17 35 47 46 48 56 63 61 60 60 55 46 45 48 48 50 55 58 59 62 66 70 74
77 98 98 80 84 96 97 92 96 96 96 86 80 57 38 25 41 50 74 50 24 30 46 46 46 49 58 64 65 65 61 55 46 48 51 53 56 59 62 64 68 70 72 76
93 96 94 89 77 95 98 96 96 98 97 84 79 62 46 36 45 38 52 70 60 63 53 50 48 55 64 69 68 65 60 55 49 52 55 58 60 63 66 69 71 71 71 85
99 97 92 86 93 99 99 98 98 97 75 97 72 71 60 43 32 44 57 72 65 65 51 50 54 60 69 70 68 66 64 55 53 56 60 62 64 68 71 72 72 69 83 84
99 97 97 92 96 99 99 100 99 98 98 100 91 73 55 41 60 78 84 64 63 62 55 55 63 68 70 72 71 70 63 56 58 62 64 66 69 72 73 73 72 82 83 60
99 98 98 94 91 99 99 99 98 100 97 78 92 58 95 90 84 77 66 59 57 56 52 58 65 70 72 69 68 66 59 60 63 66 69 71 72 73 75 75 85 78 51 27
98 99 99 97 99 96 82 98 100 99 96 86 79 92 97 98 83 68 56 56 61 61 61 66 70 70 68 66 63 64 66 69 71 73 74 75 78 79 79 89 71 38 27 23
79 99 98 99 100 87 71 64 100 100 98 88 76 81 87 87 61 53 53 56 61 64 70 76 78 75 70 68 68 71 76 80 84 84 85 83 83 90 78 58 30 27 24 20
83 84 99 99 99 97 82 69 92 95 84 65 61 65 66 59 54 55 55 58 60 63 66 73 75 73 73 72 77 83 88 91 91 88 87 92 80 62 36 28 26 24 21 22
99 99 99 99 97 86 91 76 81 75 68 79 69 71 70 64 66 69 66 61 57 56 62 66 68 70 72 76 83 90 93 92 91 90 78 61 39 29 26 25 22 21 23 24
92 86 97 98 100 80 82 70 63 55 54 56 67 74 75 78 80 88 64 59 60 59 59 62 67 69 74 81 88 91 89 83 75 59 40 29 26 25 25 22 22 24 23 22
86 84 89 80 76 70 73 59 60 54 51 50 48 54 64 70 73 71 79 63 63 65 66 70 72 76 80 84 83 79 75 62 42 30 26 24 25 21 21 23 26 24 23 22
79 80 82 78 69 66 65 64 63 53 55 45 48 57 61 64 67 64 65 65 66 69 72 74 76 80 80 76 74 64 46 30 25 22 25 22 20 21 24 25 23 24 22 20
78 79 81 79 85 81 79 65 69 61 56 49 47 56 62 65 66 67 66 65 68 70 73 79 79 77 75 66 48 31 24 21 24 22 20 20 23 25 24 23 24 23 21 23
74 75 82 86 88 84 82 74 71 64 55 52 51 51 60 67 68 67 69 71 73 75 74 75 75 68 51 32 23 22 23 21 20 20 22 24 23 23 23 23 24 24 27 33

GFSCGP_700_rhum_039.txt.gz
RH
72 72 60 49 61 68 74 75 74 72 54 52 38 34 32 30 26 25 26 24 23 28 26 32 40 59 55 57 56 45 41 40 44 38 39 42 44 52 61 59 68 98 87 89
70 61 54 64 67 68 70 74 78 64 56 57 51 34 34 29 26 24 22 22 22 23 28 28 31 42 54 52 54 43 44 48 45 41 36 36 42 55 66 71 68 99 96 77
63 63 64 66 72 79 76 74 84 78 66 63 59 43 35 31 29 27 25 21 19 19 22 27 29 32 37 42 46 47 49 49 45 42 36 36 44 57 66 73 77 98 98 59
84 75 76 83 92 86 90 85 78 82 94 97 76 71 55 45 36 34 32 23 20 18 17 21 26 34 37 36 46 54 53 50 45 42 35 33 41 56 67 67 86 99 99 64
75 84 85 90 78 91 96 94 88 92 97 99 99 99 55 56 41 34 29 28 23 20 14 16 21 30 39 41 56 56 54 51 47 40 40 39 39 52 72 87 97 92 98 44
96 96 98 86 89 92 95 95 98 94 96 95 79 93 50 41 18 24 23 24 25 22 15 14 18 29 38 52 56 56 54 54 52 42 42 44 47 55 55 77 99 56 87 48
99 93 99 99 97 98 97 97 93 93 97 79 56 81 52 24 30 34 37 26 26 26 17 17 23 33 38 54 52 55 55 55 55 45 42 40 39 42 72 100 99 96 50 54
89 83 71 59 64 96 99 98 81 93 87 74 68 76 59 28 40 34 41 35 35 30 19 18 30 32 48 53 54 57 58 56 56 49 42 38 37 56 97 70 52 48 54 57
95 96 74 60 66 86 95 98 71 84 80 90 63 53 47 32 34 36 38 39 32 26 32 23 42 35 47 58 60 61 59 56 58 54 44 38 38 66 55 46 46 53 57 61
93 98 80 80 76 65 80 86 98 99 95 91 69 66 56 36 33 35 41 43 49 23 31 51 47 44 38 52 62 61 61 60 59 57 45 39 40 42 44 46 52 56 61 66
99 99 80 88 66 48 81 100 99 96 96 88 70 50 44 39 36 57 50 46 63 27 36 36 64 52 54 43 59 62 62 61 59 57 47 41 43 45 46 51 57 61 64 67
81 100 97 65 55 72 82 87 92 97 94 96 86 67 49 43 42 58 61 46 53 38 27 38 56 58 52 54 52 58 63 61 61 58 50 46 46 48 52 57 61 64 66 69
84 98 94 74 70 71 98 76 94 98 98 95 94 60 49 49 46 46 40 46 55 54 20 27 54 60 60 60 60 64 64 61 63 60 53 51 51 52 56 61 65 68 70 70
100 99 91 88 64 72 98 98 98 97 97 85 88 71 56 55 49 42 51 61 67 71 26 25 26 46 59 62 66 68 62 64 66 62 58 56 56 58 62 66 69 72 72 74
94 97 91 88 85 93 98 98 99 98 89 96 63 80 68 73 68 59 56 85 82 85 58 50 52 53 57 65 71 71 70 69 65 63 59 60 62 63 66 71 74 76 76 76
95 96 96 97 75 96 99 99 99 99 100 99 94 88 80 72 59 81 98 99 83 78 65 58 56 61 68 74 74 74 72 67 63 60 64 66 65 68 73 76 78 79 78 85
94 99 99 94 72 83 88 98 99 100 100 99 98 74 84 74 85 100 92 83 84 66 62 61 65 71 76 77 76 73 71 68 65 65 68 68 71 74 76 78 80 81 90 86
98 99 100 97 98 93 80 86 100 99 100 98 82 74 98 98 90 78 77 79 70 64 65 66 71 76 78 79 79 80 77 70 69 70 71 72 73 76 81 85 85 95 84 50
89 100 98 98 99 74 75 94 98 100 100 72 75 84 93 80 69 66 66 68 72 68 71 74 80 83 82 84 82 80 73 71 71 72 73 76 83 90 90 91 95 69 35 25
94 97 100 100 99 97 82 80 81 93 88 94 82 82 84 75 66 66 64 66 68 76 78 80 84 86 82 74 73 74 75 77 80 86 91 93 92 92 94 75 42 28 24 21
97 98 99 99 98 76 90 76 71 84 90 90 97 96 84 77 67 64 63 60 65 71 73 70 74 80 81 82 84 90 97 97 95 95 92 93 92 72 48 32 25 22 22 25
92 95 94 100 97 90 82 67 64 63 69 93 81 86 84 74 74 75 66 62 62 67 65 76 82 81 84 91 96 95 91 91 93 92 86 68 45 32 26 24 22 24 25 21
87 81 89 81 77 76 76 70 68 57 52 50 54 83 99 96 87 78 71 70 68 70 70 74 82 82 84 88 91 96 96 89 80 65 45 33 26 25 21 22 25 23 21 20
80 85 84 80 75 73 68 66 71 62 66 52 53 49 59 74 78 81 85 82 80 76 74 76 77 83 86 87 88 83 78 63 45 33 27 25 21 22 24 25 22 22 19 16
81 83 80 79 81 79 76 69 69 59 66 61 58 60 66 73 69 72 75 75 75 76 78 83 86 90 87 81 76 64 45 32 26 25 22 22 24 25 23 22 21 18 16 16
70 72 80 86 88 85 84 76 81 68 61 56 57 63 65 68 69 68 70 76 78 80 84 85 83 82 77 65 46 32 24 24 22 21 23 24 23 22 22 20 18 18 19 23

GFSCGP_700_rhum_042.txt.gz
RH
64 75 52 57 61 84 69 87 88 82 55 52 39 41 49 34 30 30 27 26 24 23 23 26 28 35 46 58 57 54 49 52 50 44 46 47 50 51 46 52 58 67 66 74
72 64 52 58 71 78 98 92 83 82 56 64 71 29 39 31 27 27 29 28 25 23 22 23 26 27 34 41 51 57 51 48 49 42 47 44 42 46 50 54 66 72 78 88
59 67 55 62 71 83 96 93 86 84 85 85 73 49 36 43 28 25 24 25 26 24 22 20 21 25 27 35 40 47 53 52 46 46 50 45 43 41 43 53 66 76 85 91
81 84 72 82 86 76 91 95 81 97 95 80 92 55 47 38 26 22 17 21 24 25 25 22 20 20 24 27 34 37 48 54 42 46 51 47 45 42 44 56 73 89 98 99
69 76 81 95 66 93 96 98 100 100 100 99 84 97 36 34 22 17 28 29 38 23 26 25 20 18 20 26 31 32 39 43 40 52 50 47 43 39 40 64 84 97 88 99
99 88 95 91 87 93 96 97 99 100 100 88 60 78 32 24 25 31 28 22 27 25 32 28 22 16 18 25 32 35 36 44 48 53 50 46 41 43 44 68 91 97 99 98
98 96 87 96 100 98 100 94 79 83 92 64 52 56 44 33 34 27 25 19 14 18 25 30 21 15 15 22 27 40 44 52 56 53 50 46 42 49 62 77 98 99 98 83
94 83 85 78 89 96 97 97 67 69 54 33 61 56 35 33 34 33 30 31 20 24 26 32 22 20 16 22 28 44 55 59 58 54 54 48 42 45 49 85 95 99 96 99
99 98 74 71 67 92 99 99 80 87 75 68 46 40 39 40 42 44 42 33 40 34 29 30 32 23 27 26 35 46 59 60 59 55 55 50 42 41 46 66 86 99 71 54
97 93 70 72 77 75 97 96 94 96 81 65 44 42 42 42 46 41 49 35 32 40 48 28 31 33 42 34 48 56 62 65 61 57 56 54 44 42 46 98 99 99 84 56
99 95 93 74 62 62 89 100 99 87 91 68 67 45 43 44 41 45 40 45 50 51 56 26 39 48 47 44 52 60 65 68 65 60 58 56 46 44 98 100 99 56 55 61
87 96 99 91 69 74 86 91 98 96 87 96 90 70 58 56 64 53 47 56 55 50 58 36 44 72 65 46 53 61 68 69 66 64 62 57 46 50 85 84 53 53 59 65
94 97 96 77 84 76 79 64 87 96 98 94 89 66 56 71 58 55 51 46 47 44 66 47 40 55 69 51 52 63 63 67 67 68 63 56 50 80 54 54 54 59 65 70
95 99 89 77 51 68 86 94 98 98 97 81 87 76 67 66 76 68 60 54 51 55 91 52 32 57 66 67 55 57 61 66 69 68 64 61 60 58 55 58 61 65 70 75
98 96 99 69 60 71 89 99 96 98 97 98 73 78 73 77 84 75 72 75 57 86 89 60 29 44 64 66 68 67 72 71 74 71 72 69 69 63 61 64 66 72 76 80
100 99 95 63 66 86 100 98 99 100 99 99 100 97 90 81 76 73 84 85 100 87 86 53 32 30 54 72 75 80 78 82 83 100 86 80 75 66 68 70 74 78 81 80
100 100 99 98 94 98 96 98 99 99 98 99 91 78 91 99 94 92 99 100 97 93 84 59 38 40 67 81 85 84 93 97 99 99 94 75 72 72 74 76 80 83 82 84
99 100 99 97 87 77 70 95 99 100 100 97 84 84 97 98 100 98 94 94 94 90 80 76 74 77 94 99 100 100 100 99 98 86 77 73 75 76 80 84 84 83 90 97
94 98 96 97 97 77 80 92 96 99 99 89 82 89 99 90 93 99 100 96 88 84 85 90 99 100 99 98 96 89 84 78 76 76 77 76 79 83 86 90 94 98 99 75
98 99 96 98 94 76 73 79 80 97 98 100 96 88 93 80 93 90 88 87 82 84 85 85 89 91 90 88 88 85 83 80 78 77 77 81 85 99 100 99 98 85 37 24
95 100 98 100 97 82 67 72 74 88 98 100 99 100 95 83 77 80 85 82 85 83 83 83 85 88 89 89 88 84 80 78 78 83 94 100 100 99 98 85 46 27 22 22
90 96 98 99 98 90 75 76 80 71 87 93 100 100 99 98 85 82 92 89 81 92 85 91 90 92 96 96 94 88 92 97 100 100 99 99 99 82 48 29 23 22 22 22
93 92 91 92 80 71 72 72 73 71 66 68 67 98 97 92 99 90 96 86 79 87 82 85 90 88 91 96 100 100 100 100 100 99 97 75 45 29 24 22 22 23 21 20
87 87 85 81 71 72 74 68 68 71 70 69 64 67 88 96 99 86 90 95 84 80 87 89 92 92 92 98 100 100 100 100 96 73 45 29 25 22 22 23 22 22 20 16
83 83 75 71 78 76 81 77 66 64 68 63 63 55 64 77 90 90 89 88 86 81 85 90 96 100 100 99 98 96 91 69 44 29 25 23 22 23 23 22 22 19 16 15
75 70 73 84 86 86 86 80 76 68 69 74 65 69 72 76 72 74 81 80 82 86 90 94 100 100 99 92 84 66 44 28 25 23 22 23 24 22 22 21 18 16 14 14

GFSCGP_700_rhum_045.txt.gz
RH
64 91 82 78 75 69 69 68 61 60 63 64 61 57 52 41 29 24 24 24 24 24 22 19 23 25 43 50 54 57 54 49 49 50 52 53 48 47 53 56 57 61 58 64
81 60 79 84 84 84 83 75 65 62 64 64 60 36 41 21 15 16 16 16 17 20 23 22 21 22 25 36 47 50 56 54 50 50 52 54 50 43 48 52 59 61 61 73
98 84 62 91 94 85 82 76 70 66 67 70 66 47 23 32 22 17 15 15 20 24 26 26 25 23 21 25 28 37 56 58 54 51 54 56 46 39 46 49 48 52 63 77
97 91 65 64 81 88 79 75 79 79 81 65 74 59 43 26 31 36 28 22 29 25 28 27 27 26 23 22 25 26 39 59 60 56 52 51 45 44 46 46 52 59 65 73
90 74 100 96 85 92 89 94 89 87 89 95 76 76 41 31 27 29 34 37 35 38 40 41 31 26 25 26 25 26 29 40 54 59 51 52 48 50 48 46 48 56 70 78
96 97 95 96 90 97 96 96 96 94 95 90 63 59 36 23 21 23 24 31 34 28 26 29 22 26 24 23 29 24 30 31 38 47 50 55 51 50 49 46 44 56 75 85
99 99 88 84 99 98 99 95 80 88 91 65 39 38 41 28 27 32 34 32 32 22 19 12 14 23 26 23 21 21 24 38 36 39 49 48 55 52 49 44 48 60 82 96
94 90 98 98 97 97 100 98 67 68 49 37 39 43 34 30 31 34 37 38 37 37 50 46 23 13 26 25 19 19 23 38 40 46 45 56 56 52 48 46 55 68 85 99
81 90 85 98 97 98 100 98 69 84 70 63 42 30 30 32 34 36 39 40 40 53 66 58 36 30 28 24 22 18 23 39 51 50 52 59 55 54 47 47 53 67 85 99
93 97 87 98 94 88 96 85 88 95 81 60 33 33 34 35 37 40 42 45 46 62 46 41 45 28 36 34 29 23 26 45 64 65 64 60 57 56 46 46 50 84 74 100
100 96 98 91 73 88 96 100 93 78 78 59 57 40 37 42 46 46 48 46 51 69 74 47 53 44 33 36 33 37 36 54 70 72 66 60 59 56 47 46 91 64 99 98
100 98 100 93 84 81 86 92 92 92 67 82 79 65 48 53 53 56 56 64 71 68 65 56 40 54 32 46 42 55 42 53 71 72 68 61 60 58 48 78 64 99 98 96
99 98 93 94 84 88 91 90 89 98 97 95 92 64 52 54 62 62 69 71 65 67 73 41 43 63 41 69 60 64 55 65 72 73 68 65 62 58 51 72 100 100 99 69
98 100 84 76 71 81 97 88 96 98 97 80 83 78 74 72 77 84 72 70 76 76 73 48 52 67 46 67 74 66 67 74 74 73 71 69 65 57 76 94 95 94 68 63
98 97 97 91 96 96 97 95 89 99 96 99 85 96 96 98 98 96 91 82 81 98 75 69 70 55 46 55 78 67 70 76 76 75 73 71 65 64 94 93 66 65 64 66
93 97 96 99 99 96 86 88 89 99 99 100 100 97 74 92 96 94 84 86 76 74 86 100 87 38 45 60 80 73 76 78 76 78 80 75 82 98 79 73 68 66 68 72
95 97 98 90 88 79 87 81 96 99 100 100 99 96 95 88 97 99 99 98 98 99 98 100 49 33 53 70 85 84 82 85 93 98 98 100 99 94 82 72 71 75 75 79
92 97 96 94 80 75 67 77 87 100 97 99 85 90 90 98 100 100 100 100 100 100 100 71 33 38 62 78 96 99 99 94 99 97 99 100 100 89 85 96 84 80 84 90
94 98 96 91 76 68 64 83 82 99 99 100 93 94 99 99 100 100 100 100 100 91 84 60 39 40 82 98 100 100 98 100 99 100 100 99 96 95 86 81 84 92 96 98
100 98 98 94 89 73 77 79 86 98 100 99 100 100 92 94 99 100 100 100 96 92 90 79 89 99 99 99 100 100 100 100 100 99 95 94 84 81 84 94 97 98 97 78
98 100 99 100 95 77 74 87 79 81 98 99 99 100 93 87 94 98 98 97 98 100 100 100 100 100 100 100 100 100 99 93 91 89 84 83 86 93 98 98 97 76 30 24
87 97 99 99 97 86 79 89 87 86 94 96 99 100 100 96 88 96 94 91 85 85 90 92 94 94 95 96 94 90 88 89 93 94 94 98 100 98 96 65 32 24 22 22
89 74 94 82 82 78 73 76 74 77 76 80 80 90 100 99 94 98 100 99 97 97 93 92 94 93 93 96 98 98 98 97 98 100 99 98 94 56 30 24 22 23 23 22
83 90 85 91 82 78 88 84 76 67 77 71 75 80 97 100 96 94 98 100 100 96 96 95 95 98 98 99 99 99 99 99 99 98 91 53 29 25 22 23 23 23 22 18
90 85 86 88 78 89 88 86 78 70 64 70 68 65 80 100 100 100 99 98 100 98 89 89 95 100 100 99 99 99 100 99 86 50 30 26 23 24 24 23 23 20 17 15
78 72 81 84 88 88 85 86 80 77 68 79 70 64 67 80 98 100 99 95 97 99 97 99 99 99 99 99 99 98 78 46 29 26 24 24 25 24 24 22 19 16 14 14

GFSCGP_700_rhum_048.txt.gz
RH
100 100 95 80 78 64 72 67 63 53 55 58 59 58 38 29 30 22 23 23 20 19 19 22 23 21 25 43 58 67 53 55 53 54 51 46 48 55 53 50 46 43 48 59
94 90 81 81 76 75 73 76 73 63 56 61 55 32 23 14 12 13 12 12 12 13 17 19 23 23 26 25 44 61 73 62 48 51 52 53 58 58 55 53 48 44 48 61
98 79 61 84 86 79 77 81 75 67 66 59 54 30 17 28 18 15 13 14 17 17 18 19 19 21 24 23 26 44 61 68 67 49 54 56 57 55 52 54 49 44 51 56
95 92 84 73 87 83 81 74 75 75 78 70 70 79 19 16 17 23 16 14 14 16 19 20 23 27 32 28 26 26 45 60 64 63 60 57 55 54 53 58 53 52 52 55
90 92 94 79 73 88 82 83 74 86 86 89 62 70 24 23 22 23 27 30 16 16 12 10 19 26 34 41 44 32 32 34 44 56 60 61 60 57 56 57 53 52 54 55
94 93 71 90 82 90 90 85 78 87 90 94 61 57 37 26 25 24 23 23 23 9 11 16 18 17 20 28 39 41 43 39 44 50 44 57 63 61 58 56 51 52 52 59
93 94 87 80 96 93 96 94 90 99 99 90 41 63 44 23 25 22 23 23 27 24 23 22 27 26 20 19 22 31 36 48 53 63 44 42 62 65 63 56 54 54 51 53
89 90 95 83 92 96 90 87 81 85 86 68 51 45 36 28 27 27 31 32 34 36 36 38 34 26 29 22 14 27 40 37 58 48 48 44 42 60 62 56 57 53 50 58
87 94 93 99 98 97 98 98 79 86 65 74 51 33 30 29 29 33 33 37 40 34 33 33 29 27 42 36 25 25 36 42 38 40 55 57 56 51 46 53 58 52 52 66
86 86 89 98 99 98 88 81 92 86 94 85 49 38 34 36 39 41 42 42 42 44 44 40 32 31 38 34 30 34 34 42 32 36 52 62 74 61 52 61 56 53 61 78
97 94 92 98 95 90 96 93 88 82 78 90 86 48 38 41 42 42 43 50 52 49 55 55 47 33 47 44 66 44 47 41 42 33 43 63 68 57 66 59 58 57 81 96
98 95 94 89 84 77 98 79 94 84 73 79 86 73 52 45 48 51 58 63 62 60 60 64 69 49 55 42 57 71 51 59 68 26 51 73 72 72 65 61 57 76 86 92
96 98 91 90 90 90 89 88 88 86 79 83 90 66 49 53 63 78 91 85 80 67 68 68 68 55 46 41 63 89 94 100 54 33 79 86 80 74 64 61 84 63 99 83
97 98 85 92 88 91 90 79 77 91 98 84 85 78 69 83 97 80 93 93 88 74 71 81 81 62 45 56 74 99 98 91 44 52 77 82 80 69 66 64 75 98 84 99
98 93 94 83 67 82 90 82 86 99 83 98 73 92 98 92 86 90 93 97 96 95 92 88 72 60 50 75 98 98 99 74 58 70 79 87 80 81 73 69 66 96 100 98
98 93 96 78 68 76 74 79 80 86 99 99 100 89 85 98 100 100 96 100 99 97 97 93 76 68 57 88 100 91 82 77 77 84 96 96 97 84 71 97 100 100 100 96
93 88 95 86 82 86 85 80 83 90 92 98 99 90 94 97 100 100 96 98 95 100 98 94 82 96 99 80 62 80 91 83 86 93 99 100 90 85 96 99 100 99 86 87
98 86 93 84 79 90 67 65 80 81 87 99 99 100 99 100 100 100 99 99 100 100 99 98 100 99 79 75 90 100 98 97 98 98 100 97 100 100 100 100 99 84 80 95
93 98 98 93 77 70 83 84 83 97 92 99 99 100 100 98 100 100 99 97 100 100 99 99 93 70 79 92 100 100 100 100 100 99 100 100 100 100 99 98 97 98 88 89
99 94 97 97 90 81 76 65 91 88 99 100 100 97 87 91 97 100 99 100 99 91 91 82 68 73 94 100 100 100 100 100 100 100 100 100 100 98 98 93 88 91 98 98
100 99 98 98 93 76 58 76 87 94 88 99 100 99 87 90 96 100 100 99 99 98 91 71 95 97 100 100 100 100 100 100 99 99 99 98 94 93 89 94 98 98 83 30
77 93 92 95 94 89 80 84 90 86 92 97 90 100 95 91 95 98 96 100 100 100 100 100 99 100 99 100 99 99 97 98 96 88 82 88 97 98 98 97 66 31 24 23
86 76 96 80 71 71 80 86 86 86 83 89 78 90 98 97 99 98 100 99 95 94 99 100 100 99 99 98 96 92 93 96 98 99 100 100 100 95 56 29 24 23 24 24
98 88 92 91 88 92 88 94 90 84 76 81 80 79 96 99 99 99 100 100 100 98 99 98 100 100 100 99 98 98 99 100 100 100 99 89 51 28 25 24 24 24 23 20
92 96 93 83 77 91 87 95 85 84 74 71 75 73 85 98 96 98 99 100 100 100 100 100 99 99 100 98 100 100 100 100 97 76 43 27 25 24 25 25 24 21 18 16
70 79 94 91 93 91 85 82 82 86 90 87 74 73 74 96 100 100 100 96 95 100 100 100 97 100 100 100 100 99 87 63 37 26 25 24 25 26 25 23 19 17 15 13

GFSCGP_700_rhum_051.txt.gz
RH
85 88 96 87 74 77 70 78 72 63 64 65 62 60 55 31 33 32 32 26 20 18 18 20 21 21 19 20 36 67 56 67 68 56 50 45 50 55 53 57 52 50 49 44
100 99 84 90 86 79 74 73 68 59 59 59 55 47 38 17 13 12 11 12 11 12 14 16 20 21 23 23 25 37 72 71 78 70 66 60 52 58 58 64 59 53 49 48
98 97 99 85 91 88 83 76 69 68 51 48 46 26 12 11 10 13 12 12 13 13 12 12 14 16 23 27 36 40 52 72 78 78 74 72 63 62 63 63 60 50 54 53
87 84 76 76 81 86 82 78 74 74 65 63 53 75 14 15 14 16 15 16 13 14 14 14 16 19 22 28 34 50 52 66 70 82 84 76 64 57 57 53 61 60 60 57
86 86 88 85 77 89 87 79 77 73 70 74 50 57 17 18 18 22 22 14 15 16 14 13 14 14 20 28 30 35 46 56 65 66 75 81 82 69 65 63 65 64 63 59
88 90 86 84 80 93 88 77 75 72 78 95 39 53 32 28 23 20 19 17 11 16 15 12 13 14 14 27 36 38 35 32 46 63 66 73 74 77 70 69 67 64 60 61
97 90 86 83 87 92 93 84 90 87 94 90 61 70 33 26 27 24 21 20 27 29 26 26 20 25 21 20 26 34 46 44 41 38 47 64 75 76 70 74 74 72 69 64
92 82 79 76 91 73 89 79 84 94 98 81 57 69 32 24 22 26 26 28 32 33 34 33 29 24 29 30 29 25 23 34 48 47 40 38 53 58 60 73 77 76 73 68
78 83 90 91 88 89 87 92 89 89 78 82 53 37 21 31 32 32 30 32 36 36 36 37 37 32 32 37 34 32 28 25 28 47 49 45 57 54 61 63 76 76 74 70
90 88 96 91 96 94 86 80 92 89 88 92 65 50 34 36 36 40 39 41 43 42 43 42 42 42 42 41 34 34 32 28 28 38 49 57 58 72 55 64 74 75 68 61
87 83 100 96 94 86 96 96 89 81 78 92 96 53 39 42 43 48 49 52 54 55 56 56 56 53 51 51 50 39 34 31 35 38 39 59 59 68 55 70 79 74 68 66
93 89 84 91 83 88 92 87 88 81 66 82 94 70 49 43 44 50 57 66 67 76 69 63 62 60 56 50 51 48 53 58 41 46 42 52 70 54 63 86 83 74 70 64
92 93 89 91 90 95 94 88 89 87 78 78 88 65 53 53 59 81 98 77 65 60 91 80 72 70 63 48 47 48 47 50 45 57 64 52 42 41 83 89 77 74 68 82
87 88 82 86 86 86 94 88 91 94 95 84 79 66 57 79 94 96 89 78 76 86 93 95 92 75 66 57 48 48 59 64 64 56 57 87 58 93 93 87 80 82 74 97
95 90 88 80 86 88 85 81 83 86 74 94 64 79 77 99 99 98 100 98 97 99 98 99 98 90 76 69 50 53 67 85 75 97 97 77 96 99 94 87 92 81 99 99
98 90 98 77 81 77 77 82 81 72 79 85 85 91 100 99 100 99 99 100 100 99 99 99 99 92 81 68 65 66 84 96 97 99 91 94 100 100 99 100 100 100 100 95
96 89 89 80 75 80 81 74 76 78 84 92 100 96 94 98 99 98 100 96 98 100 99 99 99 99 90 88 89 99 99 99 100 100 83 100 99 99 100 100 100 100 99 100
99 87 89 76 76 88 73 67 80 85 97 99 99 99 100 98 98 100 100 98 99 99 99 92 87 90 94 99 100 100 99 99 100 99 100 100 100 100 100 100 100 100 100 100
97 96 97 98 83 70 80 75 81 89 82 95 99 99 88 99 97 100 99 100 100 100 99 98 99 97 96 94 99 99 98 99 99 99 100 100 99 99 100 100 100 100 98 97
100 96 97 95 88 88 85 65 83 90 87 90 98 99 93 92 98 100 99 98 96 92 79 60 51 55 52 74 93 99 100 100 99 100 99 99 100 100 100 100 97 99 98 96
100 99 98 100 95 71 64 70 91 85 82 90 94 92 98 97 96 98 98 100 100 94 74 66 69 80 97 100 100 99 99 98 99 100 99 98 99 98 98 98 98 97 100 90
90 96 97 100 96 84 87 89 95 86 90 88 87 87 89 98 100 99 99 99 98 99 98 99 98 95 100 99 98 98 98 98 97 98 99 98 99 99 97 100 100 64 29 24
91 78 77 77 67 76 83 92 89 92 86 80 82 84 89 99 99 100 100 100 99 98 87 92 99 99 96 97 98 99 99 99 99 98 96 91 95 98 78 38 27 24 24 25
88 95 98 97 94 91 94 90 91 86 84 71 74 80 80 99 100 98 99 100 100 99 98 97 97 94 92 95 98 98 98 96 98 97 95 91 52 31 26 25 25 25 24 20
87 99 86 91 94 87 84 91 83 82 85 84 84 80 80 97 99 99 99 99 98 100 100 100 99 98 98 98 98 98 99 100 91 59 42 33 27 26 26 26 25 21 18 16
71 74 92 89 98 98 91 80 71 75 86 83 80 81 76 99 99 100 100 98 100 100 99 99 99 99 99 99 100 100 82 46 36 34 28 27 27 27 26 23 19 17 16 13

GFSCGP_700_rhum_054.txt.gz
RH
90 99 99 93 90 90 86 78 78 65 69 66 61 71 47 36 40 36 30 23 23 23 21 15 18 25 36 39 54 60 62 64 60 63 62 53 54 56 56 57 56 51 49 54
99 97 89 86 88 82 91 92 72 65 68 72 60 54 39 32 32 24 21 18 12 15 17 21 23 22 21 19 19 25 48 71 69 67 69 69 63 55 59 60 61 60 55 53
89 83 86 88 85 88 86 82 78 74 65 63 60 52 33 12 11 10 10 11 12 11 10 11 14 16 19 23 26 27 24 41 74 77 74 72 71 71 68 62 65 58 56 55
99 90 97 94 82 85 89 83 79 76 67 62 44 60 16 16 14 12 15 15 13 14 14 13 14 14 14 17 27 31 31 34 61 77 77 77 78 76 72 72 67 62 60 59
98 97 95 89 84 90 85 78 80 76 78 76 52 62 18 15 14 17 19 19 19 18 15 14 12 12 17 22 24 34 43 44 48 56 64 71 77 85 89 87 76 72 69 67
86 89 86 72 73 86 86 81 78 76 74 83 52 57 24 25 20 19 19 19 14 13 12 12 14 14 12 12 18 28 32 43 52 57 58 64 67 83 88 87 85 74 70 69
98 90 86 83 83 88 90 82 86 88 96 78 64 77 28 30 29 28 24 23 23 24 25 26 25 24 26 25 18 19 26 35 44 49 57 60 64 66 70 82 86 85 77 75
99 98 88 82 83 75 91 82 71 79 98 87 65 68 33 28 22 27 29 29 30 31 34 34 34 35 35 34 30 29 30 28 29 34 41 48 57 57 60 76 81 86 83 75
90 88 92 82 74 78 89 94 80 88 90 89 59 44 24 34 31 33 32 31 31 32 33 35 35 35 37 38 38 35 34 39 37 31 25 38 42 46 51 55 63 80 74 67
72 86 90 86 96 92 86 79 88 88 75 84 63 53 27 36 40 40 40 40 40 38 36 36 37 38 38 39 41 44 44 40 35 29 25 25 28 42 48 55 57 65 67 70
82 76 99 92 94 88 94 96 86 76 72 91 96 43 35 41 43 45 48 53 57 54 55 54 52 52 46 45 49 50 47 46 44 35 28 29 24 39 50 65 67 76 65 72
85 89 92 94 87 90 91 88 81 75 72 91 96 54 48 46 52 55 59 61 61 65 63 67 66 66 66 66 64 58 55 52 42 43 32 35 29 48 56 67 75 79 71 78
83 87 86 92 94 94 94 86 97 87 79 87 86 53 50 54 76 95 97 81 74 74 74 77 85 87 78 76 74 70 62 47 49 45 45 43 56 61 76 76 79 65 88 88
82 83 80 77 81 82 93 79 82 96 92 86 73 50 55 76 85 96 99 100 100 100 98 98 94 92 98 96 88 72 60 51 51 52 57 58 69 72 62 78 71 65 100 93
87 88 87 83 94 93 92 83 83 90 77 91 56 61 70 84 94 93 97 97 96 99 94 93 92 88 100 98 95 73 69 53 62 70 79 81 84 76 79 52 54 99 99 99
94 91 92 74 74 75 80 80 80 81 80 84 72 77 83 99 98 98 87 98 97 94 97 96 98 100 99 91 90 76 62 49 77 93 99 88 99 100 91 86 98 100 100 98
98 93 91 72 85 79 84 68 69 70 67 79 87 86 98 97 98 98 98 98 99 98 98 99 98 100 88 75 81 61 56 65 79 86 87 95 100 90 100 98 100 100 100 100
88 89 92 78 83 94 70 69 76 81 86 94 93 97 99 100 98 98 98 98 99 99 100 98 97 94 98 98 100 81 79 94 99 99 99 98 75 100 100 100 100 100 99 99
93 96 94 99 94 68 74 81 79 92 83 90 88 98 99 93 95 98 99 98 96 86 99 98 94 88 83 83 80 100 95 98 98 99 100 96 94 100 100 100 99 99 99 98
98 90 98 86 97 84 88 68 74 89 85 90 96 93 95 96 100 98 98 95 93 75 61 78 75 67 69 78 84 88 94 100 100 100 95 100 99 98 99 98 99 98 98 98
96 93 97 85 92 69 66 69 80 87 82 99 93 88 87 92 95 98 99 92 89 99 100 81 78 70 71 93 99 98 96 99 96 97 96 99 98 98 97 98 98 97 96 96
86 96 98 98 92 81 84 82 90 91 98 92 82 78 86 90 96 97 99 87 84 82 90 100 97 98 100 97 98 97 95 96 98 99 98 97 96 97 98 99 97 86 39 25
95 83 80 78 71 79 83 87 93 98 90 88 74 75 86 96 100 98 98 99 95 90 89 96 97 94 100 98 100 98 100 99 98 98 98 97 98 98 75 35 26 25 26 25
91 93 91 96 91 82 84 96 95 98 86 86 91 86 84 93 99 99 98 97 96 99 99 95 98 94 89 94 95 98 96 95 96 97 97 76 35 27 25 26 26 26 23 19
91 97 98 90 77 87 81 90 100 89 74 87 90 81 84 96 99 100 99 98 96 95 98 99 98 96 92 91 94 96 92 88 72 41 28 26 26 27 28 27 24 20 18 16
76 75 83 82 92 88 89 98 93 81 87 89 84 84 80 95 99 100 99 100 99 98 97 99 100 98 98 93 88 62 42 30 28 27 27 28 29 29 25 20 18 16 14 12

GFSCGP_700_rhum_057.txt.gz
RH
100 97 99 99 99 100 86 83 77 68 69 70 65 64 38 30 35 31 22 18 18 17 15 18 19 21 33 45 46 63 68 63 60 53 44 48 49 51 52 52 50 53 56 58
98 100 99 96 100 99 98 94 81 67 68 72 62 57 35 32 33 32 31 28 27 27 26 27 28 30 26 18 23 43 65 70 68 66 60 53 55 57 66 67 64 62 58 60
99 99 96 96 89 100 97 92 87 79 70 70 66 57 38 28 29 21 14 13 14 15 13 16 20 25 29 22 18 25 40 58 75 75 76 78 69 62 62 57 60 58 57 57
100 90 91 92 90 88 90 84 84 82 77 72 59 62 31 19 14 16 24 22 16 14 14 13 10 12 19 25 28 30 28 29 34 51 66 76 81 68 59 68 70 68 65 63
88 86 92 93 84 81 84 81 83 79 79 74 60 58 21 14 17 19 21 26 20 17 17 17 16 15 14 13 15 22 28 35 42 41 44 43 67 80 79 75 87 88 82 70
92 95 96 93 88 88 83 83 80 76 73 78 57 52 16 26 28 30 30 28 23 19 16 16 16 15 16 16 19 22 20 23 33 38 45 45 53 64 70 77 84 92 93 90
98 98 95 93 76 91 95 88 77 77 90 76 71 68 22 29 27 24 25 25 23 21 20 19 18 18 18 19 20 25 20 23 31 32 48 56 57 58 60 64 72 77 88 89
92 98 97 91 86 75 97 87 58 66 94 84 77 72 36 33 25 29 25 28 30 29 27 29 32 33 33 33 33 34 31 24 27 27 29 38 55 62 65 66 70 72 84 93
87 88 89 77 81 79 89 93 78 76 92 94 62 46 35 31 31 32 32 33 32 31 32 34 33 34 34 35 36 36 36 36 36 33 35 38 38 33 48 49 59 64 68 82
78 88 97 90 93 89 78 73 77 71 77 75 54 48 28 38 37 37 41 44 43 38 36 36 36 36 36 37 37 37 38 38 38 37 38 42 38 33 30 35 46 52 58 64
77 76 100 95 98 96 92 90 79 73 68 84 89 33 39 42 43 48 52 53 51 52 52 50 50 54 52 51 48 46 47 46 45 46 48 46 38 33 28 28 28 47 56 56
81 82 97 87 90 90 96 80 78 68 80 91 97 45 39 44 58 77 83 83 83 86 82 67 63 66 66 65 65 63 72 68 64 58 54 46 36 33 34 33 31 44 61 60
80 80 96 99 95 98 97 94 86 79 78 81 86 45 50 54 70 81 92 95 97 99 100 84 66 65 65 75 85 78 78 76 72 65 45 46 59 55 38 39 45 58 60 79
77 71 70 74 75 79 90 81 87 92 91 83 66 37 44 56 79 80 92 91 88 86 91 72 73 70 55 74 92 94 82 82 76 58 48 58 69 66 59 63 66 73 90 78
90 78 82 80 87 88 86 83 82 87 92 81 47 50 62 76 91 83 92 93 86 90 96 83 90 94 76 73 97 90 93 85 75 60 52 58 76 78 78 77 90 100 93 91
86 88 86 70 75 78 82 84 81 80 76 76 61 70 79 89 87 87 89 85 87 98 86 90 80 90 76 99 90 92 99 82 63 55 60 78 89 96 92 95 90 71 83 87
90 94 87 75 91 81 74 62 62 60 58 57 71 82 97 97 82 90 88 90 87 99 90 92 88 93 87 91 94 90 76 74 48 48 77 89 98 93 95 83 98 91 82 60
92 96 95 82 82 94 69 72 71 80 85 90 93 98 98 96 96 91 91 96 100 100 91 81 92 100 99 100 100 100 100 98 90 87 99 96 99 100 99 84 96 100 99 100
99 96 94 96 94 70 62 86 84 84 81 95 99 97 97 94 94 99 87 99 99 100 72 82 85 99 100 96 81 85 80 84 89 99 96 88 99 98 98 100 100 100 99 100
92 84 95 87 91 87 90 78 73 83 97 99 92 98 94 98 97 98 97 96 89 94 97 60 62 80 80 95 100 98 99 99 100 97 99 100 100 100 100 99 97 98 100 99
94 97 98 99 85 76 64 77 72 88 91 90 90 84 83 97 95 99 99 91 83 76 93 78 93 96 99 100 100 100 100 100 91 94 96 99 99 98 99 98 98 97 98 97
84 90 99 100 95 81 79 71 88 86 98 96 94 84 84 97 93 99 100 91 82 70 80 89 98 99 99 98 99 100 96 89 99 97 97 96 97 98 97 98 97 89 48 29
94 82 88 86 77 79 94 89 89 90 93 95 88 98 95 96 99 95 88 82 83 78 88 84 86 99 99 100 99 93 90 94 96 98 98 99 97 97 77 42 27 26 27 27
93 97 95 93 97 93 97 93 86 88 98 84 84 98 94 96 99 95 97 90 78 81 91 88 89 90 88 88 92 97 92 96 98 98 90 55 30 27 26 27 28 26 21 18
87 91 85 93 81 91 91 100 98 97 85 89 92 94 98 96 99 99 99 86 87 87 92 90 90 88 88 88 91 90 91 83 52 33 28 27 28 29 29 24 20 18 16 13
74 82 81 82 86 92 92 95 96 93 88 93 95 94 98 99 97 99 100 99 88 95 88 89 91 92 84 79 72 54 37 29 27 27 29 30 30 25 21 19 16 14 11 9

GFSCGP_700_rhum_060.txt.gz
RH
90 99 98 80 99 94 76 77 72 56 62 63 60 64 38 30 30 24 19 14 14 12 13 16 26 36 40 48 54 54 56 54 53 50 43 40 37 42 50 53 55 53 53 58
98 99 99 94 100 100 93 92 85 78 75 74 65 61 44 25 27 28 31 27 25 25 21 19 21 21 22 24 28 40 54 58 63 60 52 52 52 51 51 54 62 59 59 63
99 98 95 99 100 99 99 92 84 82 80 75 66 55 34 27 33 32 30 30 33 26 22 23 24 28 27 24 27 26 28 45 55 57 57 66 73 70 57 48 52 49 65 64
98 91 99 87 99 99 99 88 85 81 87 78 65 67 33 28 25 19 30 28 25 22 16 13 13 14 21 26 30 34 31 25 26 29 42 60 70 73 73 70 64 66 64 59
99 97 100 99 94 98 91 86 84 81 82 77 69 58 28 19 25 24 25 26 31 23 21 18 18 18 16 13 16 25 36 36 32 26 29 42 61 73 75 71 69 76 74 73
97 99 100 100 99 99 85 85 82 76 69 75 63 54 21 35 36 34 34 32 30 25 25 24 22 20 19 18 18 18 20 26 32 40 42 41 40 41 44 45 50 56 75 75
99 99 99 98 100 99 95 87 74 68 84 77 73 68 24 37 36 35 32 29 26 24 23 22 20 18 17 17 17 18 21 23 26 32 36 43 50 56 59 60 57 53 63 75
93 100 99 99 94 86 98 91 62 61 88 72 75 70 40 34 35 30 30 27 27 28 27 24 24 29 31 33 34 33 30 31 26 23 29 37 40 45 58 64 65 65 65 68
84 94 100 90 94 83 90 92 77 68 89 92 62 48 45 37 34 33 37 36 34 34 33 32 32 33 34 35 35 36 37 38 38 36 34 32 34 34 35 38 40 51 62 65
80 87 100 92 97 90 74 79 79 66 81 71 49 40 31 44 41 45 42 39 38 38 39 40 42 43 43 41 40 40 39 40 39 39 39 39 39 40 41 43 43 38 36 53
71 70 99 97 99 93 88 85 72 63 62 78 78 31 34 46 55 46 50 52 50 47 49 49 47 48 46 46 45 46 48 48 46 42 43 43 42 44 48 49 45 35 33 38
70 79 95 95 93 90 93 77 70 62 80 80 91 42 41 50 53 54 69 76 77 77 73 70 61 56 55 54 51 53 57 58 59 57 58 57 55 51 49 51 46 37 33 32
73 87 93 95 92 97 99 94 89 75 64 71 72 40 46 46 51 64 78 81 94 88 86 80 73 63 54 41 35 41 59 77 75 72 71 69 70 66 59 50 45 44 35 38
77 71 69 74 74 81 93 88 92 86 85 78 58 40 49 52 63 76 78 89 89 82 89 90 81 64 44 25 24 28 38 75 82 81 78 80 66 52 66 75 70 56 44 45
79 72 72 76 81 86 82 81 84 88 82 77 55 46 60 75 82 83 81 93 87 89 82 85 59 42 34 31 28 32 63 70 77 85 79 66 60 53 58 66 62 62 76 80
89 76 82 76 78 83 80 84 88 82 79 76 64 60 82 87 92 82 88 92 90 92 85 70 48 37 34 31 41 54 53 76 77 70 62 51 54 56 72 80 85 93 92 68
87 81 84 77 90 84 75 67 68 67 62 62 66 75 88 83 84 81 83 90 96 99 96 70 60 44 38 47 58 61 62 66 49 44 47 52 66 75 83 80 87 97 95 95
86 92 97 81 79 93 70 70 75 75 80 80 84 82 85 92 84 83 83 92 95 88 92 65 56 50 65 69 94 91 71 100 95 86 80 88 99 90 78 93 99 100 99 98
97 97 95 97 87 70 68 88 87 84 89 92 92 100 99 93 82 94 92 98 90 86 91 82 56 57 67 75 88 94 78 89 97 100 100 100 92 89 99 99 90 99 99 100
89 93 89 90 86 89 92 89 77 87 99 99 92 93 88 81 97 88 96 99 90 81 86 67 62 71 89 99 100 99 99 98 100 100 100 100 100 100 96 95 98 98 100 96
90 88 93 89 84 72 73 81 80 93 96 100 91 95 79 85 93 93 94 100 85 76 85 86 84 98 100 100 100 99 99 100 99 99 99 99 100 100 93 97 98 97 97 97
80 84 94 98 92 82 67 79 94 98 98 94 89 89 91 83 88 95 98 99 90 79 84 91 99 100 96 97 88 87 98 100 98 98 98 98 97 97 96 96 97 89 50 29
93 85 89 84 81 79 98 99 98 89 90 93 80 86 97 85 91 99 95 87 87 83 78 77 99 99 100 87 85 86 86 88 90 91 91 96 99 98 74 36 27 27 26 22
86 94 97 95 96 97 99 98 98 100 93 87 88 96 94 99 95 99 97 90 84 83 82 82 86 92 89 83 84 86 85 88 92 91 75 48 30 27 28 28 24 20 18 14
89 94 96 87 82 85 93 93 99 100 98 89 99 99 97 96 98 100 100 89 83 84 84 84 85 86 83 80 84 86 84 57 34 28 28 28 30 29 24 20 18 14 12 10
75 79 83 79 79 82 78 97 98 95 89 93 88 91 94 97 97 99 100 98 87 86 84 89 87 84 84 82 75 49 31 28 28 29 31 31 26 22 20 16 13 11 10 9

GFSCGP_700_rhum_063.txt.gz
RH
96 98 98 88 97 85 75 64 60 35 46 46 50 59 43 36 21 16 15 15 13 13 14 14 21 43 48 48 48 47 45 41 46 45 43 41 40 38 40 49 58 58 60 55
97 98 95 100 98 99 82 69 74 73 64 57 65 63 42 34 22 21 22 22 21 16 12 12 13 15 21 29 35 42 49 52 52 52 53 52 50 43 41 46 51 53 62 61
99 96 99 98 99 99 99 82 84 81 80 78 72 62 41 36 31 28 27 26 23 20 18 18 18 18 17 16 16 23 30 37 41 46 53 61 68 69 42 35 41 47 50 58
99 98 95 99 99 99 99 99 91 86 85 78 65 62 37 38 33 31 24 23 25 25 24 23 20 22 24 25 23 23 24 21 21 24 28 40 55 68 70 68 54 61 60 67
97 99 93 88 98 99 98 97 96 82 80 78 70 63 41 31 32 28 27 28 34 30 23 21 21 19 18 17 18 20 25 30 30 30 30 30 34 45 46 54 74 76 78 78
87 99 99 98 98 98 96 96 87 82 75 73 65 58 32 37 35 35 35 33 31 30 27 27 27 25 22 20 19 17 17 19 26 31 33 34 36 36 37 40 49 61 64 64
98 100 84 99 98 100 95 84 75 72 79 66 68 66 37 45 43 40 36 34 32 29 28 29 28 26 24 21 19 19 18 18 19 22 30 39 41 48 53 56 55 54 55 54
97 98 99 99 92 86 96 85 69 58 71 62 73 68 42 42 40 40 38 36 32 28 28 28 26 26 27 30 31 31 31 32 27 23 24 28 35 39 43 48 53 57 63 62
86 99 100 99 98 91 98 94 76 62 81 84 60 53 53 43 43 49 46 40 36 34 33 34 34 34 34 35 36 36 36 35 35 36 37 32 25 29 36 39 39 41 50 59
79 97 99 96 97 94 82 79 74 64 75 65 48 41 44 54 65 61 54 48 44 43 42 40 39 39 39 38 39 40 41 40 38 38 38 39 39 39 38 38 38 39 39 40
70 75 99 98 98 91 85 81 68 59 57 61 56 30 34 58 61 54 53 51 50 49 50 48 46 45 43 39 36 34 34 38 42 45 48 49 46 42 42 42 42 42 42 44
70 76 97 97 97 87 87 74 63 56 73 70 72 40 39 59 52 49 50 52 65 58 57 64 62 56 47 42 42 41 41 40 43 50 53 56 57 58 58 53 51 50 48 49
68 73 96 97 89 91 95 85 79 68 62 64 61 38 46 47 47 53 53 53 73 74 80 75 76 65 46 38 33 30 20 17 19 28 50 69 72 70 68 67 66 64 62 55
65 62 64 72 69 75 85 75 80 81 73 67 47 50 51 53 52 57 64 73 78 90 81 73 69 53 37 35 26 19 14 15 19 34 55 68 74 76 76 66 52 52 72 67
74 66 66 68 75 80 79 80 80 85 78 69 56 48 48 71 75 77 83 84 92 96 91 75 68 46 38 28 22 20 20 16 18 29 44 49 55 54 59 55 57 58 61 65
85 71 72 77 77 78 77 81 83 76 81 75 64 54 80 78 88 87 90 91 94 98 99 92 69 47 41 30 25 26 22 22 24 26 46 56 53 51 55 66 70 60 76 86
90 82 71 78 88 89 84 68 70 70 67 62 66 66 84 85 84 82 86 86 96 98 92 88 77 46 45 41 34 30 27 35 41 31 37 39 43 53 86 88 78 98 98 97
91 82 85 85 82 94 71 73 76 79 75 70 70 84 79 80 79 85 85 93 98 97 95 91 83 49 50 49 51 53 40 57 70 72 76 71 50 81 94 92 92 95 99 99
92 87 94 94 93 69 83 89 88 91 96 96 97 83 79 84 78 88 85 99 99 96 92 83 76 54 60 62 66 70 70 73 85 92 92 96 97 85 98 93 98 98 100 99
94 95 90 93 87 79 97 88 86 91 99 98 97 90 82 76 72 88 92 97 100 80 78 78 57 63 71 66 65 88 86 100 100 99 99 100 99 98 100 99 97 97 97 98
89 89 93 89 84 70 81 82 81 94 98 100 99 90 88 80 80 86 97 100 92 78 74 81 64 89 74 72 78 99 100 97 92 98 94 100 100 99 98 94 95 96 97 97
78 81 89 92 91 78 72 86 92 98 96 94 98 85 83 83 87 97 99 93 83 81 74 80 95 93 78 82 80 92 100 96 98 100 99 99 97 97 93 93 82 52 32 27
90 82 87 84 82 89 92 88 97 93 97 98 87 88 93 88 85 91 95 92 83 79 70 72 91 90 84 81 78 83 90 93 93 90 89 90 92 72 36 27 27 26 20 17
93 94 96 93 90 90 96 96 93 95 99 98 89 91 96 99 97 91 96 88 82 79 77 75 80 82 82 80 80 83 82 82 84 78 54 31 27 28 29 24 20 16 12 10
88 92 96 93 81 85 92 87 96 96 99 100 91 95 92 98 94 94 98 85 80 77 82 80 81 86 86 83 81 83 72 40 28 27 28 30 30 24 21 18 14 11 11 10
57 68 75 76 77 73 71 94 95 98 98 95 95 86 91 87 96 97 80 99 90 82 81 86 82 84 85 81 74 41 28 27 29 31 32 29 24 21 18 14 12 12 10 9

GFSCGP_700_rhum_066.txt.gz
RH
79 95 99 99 88 71 62 80 77 79 64 50 68 74 44 38 32 24 20 18 17 16 14 11 12 12 16 27 35 39 43 44 45 43 44 43 37 36 41 37 44 45 46 51
90 90 91 99 89 98 85 80 74 61 82 55 74 70 49 37 25 19 15 14 12 12 12 12 12 11 11 14 23 34 41 46 46 45 44 42 42 41 39 46 49 49 51 62
94 99 95 99 99 92 91 70 71 75 72 74 63 58 47 41 33 26 22 18 15 14 15 13 12 12 12 13 16 22 28 38 46 46 49 50 49 46 43 36 42 56 50 52
100 95 92 96 99 99 94 88 90 79 81 66 73 39 51 48 42 37 33 30 28 23 18 17 17 17 18 16 14 14 15 18 23 26 32 36 43 44 36 44 48 47 66 66
98 93 98 98 98 99 99 100 95 90 86 75 69 56 54 41 35 36 34 29 26 26 25 24 23 22 20 18 20 23 23 23 24 28 29 27 26 26 32 42 57 64 65 80
97 98 99 96 99 100 99 100 99 88 77 78 66 62 44 44 42 36 38 38 36 34 30 26 23 23 22 22 21 20 19 20 23 24 28 34 35 37 38 35 36 46 54 63
98 99 98 99 99 99 98 98 96 87 81 57 59 68 47 42 40 41 40 39 37 34 31 30 29 28 26 23 20 19 17 17 17 19 22 28 33 35 37 45 45 45 45 45
97 98 100 98 94 92 99 88 63 60 59 44 67 55 47 46 47 45 43 39 35 33 31 30 29 28 27 25 23 23 24 24 24 23 21 21 24 26 28 36 45 52 54 56
90 98 98 98 96 90 90 96 65 51 67 56 46 53 52 45 49 48 43 39 36 32 29 30 31 31 30 30 30 32 32 33 34 34 35 34 34 31 28 29 35 39 44 47
88 97 100 99 98 95 91 80 71 61 67 51 40 43 44 57 60 56 57 53 49 47 44 42 40 38 37 37 37 37 38 38 40 40 38 37 37 38 38 38 35 34 35 35
69 77 100 97 96 88 80 86 64 63 56 40 30 25 46 58 66 67 60 55 52 52 52 51 49 48 47 42 38 34 33 35 34 35 39 43 43 43 43 43 43 43 43 43
60 90 98 95 89 83 83 74 64 69 76 66 67 37 47 65 63 54 54 54 53 56 63 59 63 61 54 46 40 38 36 35 30 27 27 32 47 53 58 61 58 54 52 51
65 72 95 96 94 93 92 78 69 58 56 67 51 40 57 62 58 55 54 52 54 67 73 69 71 64 59 48 36 34 32 27 18 11 12 15 20 27 53 73 74 73 71 68
61 62 64 65 66 71 80 70 69 71 67 68 60 53 51 56 59 60 63 68 74 80 82 89 72 61 58 41 30 26 21 15 13 15 16 20 29 42 51 58 65 65 56 48
67 60 62 66 68 75 76 73 72 76 71 61 58 47 57 56 60 75 78 79 85 90 98 95 78 61 49 38 32 26 20 17 16 17 17 22 27 36 39 44 46 47 49 55
72 67 68 74 79 80 80 79 80 81 85 71 62 47 51 78 80 83 82 84 87 90 99 93 73 67 47 40 39 31 25 25 25 28 24 25 26 31 33 37 43 48 61 63
77 72 67 83 79 82 75 66 66 68 64 64 66 56 78 88 83 78 81 83 88 96 97 85 81 66 52 44 44 42 36 31 39 41 38 45 58 34 40 48 55 72 82 84
85 84 75 90 79 75 68 68 75 75 71 64 58 64 87 80 81 82 82 82 92 98 99 86 78 69 64 46 50 50 57 49 51 55 58 56 54 42 50 61 74 71 85 84
93 88 84 89 84 70 80 82 82 90 94 76 91 92 86 83 82 76 83 87 97 100 90 76 73 71 55 58 60 65 60 64 67 66 67 60 68 66 66 75 87 94 99 91
92 89 91 94 88 64 83 95 92 95 99 93 84 89 89 82 80 82 87 96 98 92 77 71 69 58 63 64 66 67 66 64 65 74 77 92 81 85 86 81 83 92 94 89
93 83 97 92 88 74 90 84 92 97 98 98 95 87 86 81 81 85 93 98 96 84 77 76 76 61 70 66 77 81 72 87 82 75 75 90 89 90 83 79 77 81 88 88
84 90 96 91 87 80 72 85 92 96 97 95 96 92 84 81 86 86 95 99 89 80 78 72 74 75 72 70 71 71 94 91 89 92 98 98 91 83 77 62 34 28 26 24
92 83 84 88 86 89 79 85 89 94 99 99 93 91 96 87 85 86 90 97 84 74 68 64 78 80 74 71 64 68 82 86 79 84 88 83 76 40 27 29 27 22 18 14
93 94 92 90 82 82 84 81 90 96 98 99 97 92 94 92 97 94 90 93 83 76 72 72 73 72 72 69 68 72 79 77 80 82 63 30 28 30 29 23 19 15 12 11
84 86 88 87 84 93 92 93 90 97 95 99 92 88 92 91 94 95 94 92 84 76 76 74 75 74 75 76 75 77 81 67 37 27 28 31 31 26 22 17 13 11 11 10
60 62 70 87 70 74 79 97 88 98 97 99 92 87 93 84 87 93 94 87 97 87 76 78 77 76 78 80 81 61 34 27 28 31 32 29 25 22 18 14 12 12 12 11

GFSCGP_700_rhum_069.txt.gz
RH
99 99 80 78 68 80 57 59 53 55 66 76 67 60 62 62 36 27 24 39 46 17 14 12 12 15 18 24 33 36 40 40 43 44 39 40 38 44 43 42 42 42 42 48
98 83 92 96 99 83 78 53 51 58 65 66 66 63 60 68 63 29 22 39 43 39 20 12 9 9 10 10 14 25 37 43 47 48 44 43 44 44 45 44 40 43 40 41
91 87 98 92 99 99 90 64 53 60 76 85 67 62 64 66 51 32 19 15 15 14 13 12 12 10 10 9 10 11 15 27 38 45 49 43 45 45 40 38 36 39 45 43
88 93 96 100 98 99 92 64 56 62 76 54 63 31 45 52 38 22 21 20 17 16 14 11 10 11 11 12 12 12 13 13 16 22 31 47 38 40 40 37 40 44 46 50
99 86 99 94 97 97 99 86 71 75 66 67 74 58 48 50 52 45 45 34 30 27 24 20 17 16 17 18 17 17 16 15 15 15 17 22 30 27 22 28 33 38 36 37
93 99 94 99 98 98 92 95 90 88 82 81 56 52 50 51 54 62 50 37 32 29 28 27 26 25 24 23 22 20 19 20 23 26 27 28 30 32 33 35 34 34 35 34
100 100 100 98 100 99 99 98 98 98 94 58 61 62 42 45 55 57 62 43 38 36 35 33 30 30 29 27 24 22 21 20 19 19 19 20 24 32 32 38 43 46 43 39
97 98 98 98 98 98 99 98 97 72 62 47 68 58 47 50 44 65 46 41 41 39 36 34 34 33 31 28 26 23 20 18 16 16 16 16 16 18 22 29 38 45 49 54
96 97 98 98 98 98 99 97 73 61 56 43 44 47 52 48 49 45 45 42 39 37 36 34 32 31 29 28 25 24 24 26 27 28 29 30 31 31 28 26 27 30 35 39
84 94 98 97 98 92 98 96 76 68 61 47 35 35 38 49 49 47 44 42 39 38 38 38 39 37 36 36 35 35 36 36 37 37 37 38 39 38 37 36 36 36 36 36
76 85 98 95 98 93 88 90 72 67 56 42 32 26 44 42 63 61 51 52 54 52 52 53 50 47 46 44 42 41 40 39 39 36 35 37 38 43 43 42 40 40 41 41
73 96 96 98 87 87 92 82 70 73 70 60 66 42 55 65 75 65 62 56 53 53 53 52 52 50 47 47 44 41 38 37 36 35 35 31 31 33 41 45 48 52 55 56
65 86 95 94 86 79 82 81 79 67 55 64 48 44 58 71 66 58 54 52 51 51 54 58 58 57 54 53 51 42 34 31 30 27 21 13 11 13 15 20 28 38 51 61
63 76 75 66 74 80 82 79 72 67 68 60 55 48 53 67 65 60 56 48 54 61 68 73 69 64 58 59 52 36 27 24 18 13 12 12 12 19 23 28 32 40 46 45
67 63 57 61 63 72 69 69 70 65 67 61 55 51 54 62 65 71 55 65 76 82 82 89 84 83 70 63 44 34 31 25 20 17 15 19 22 24 26 28 27 31 36 38
68 65 57 61 64 65 66 72 73 68 75 77 70 60 65 64 62 72 81 80 80 83 88 94 97 85 70 63 48 41 38 29 25 25 34 32 30 33 41 32 29 33 36 54
86 72 66 84 70 86 84 63 78 74 61 75 80 58 70 67 82 80 80 76 79 83 89 98 97 92 79 70 55 51 44 43 37 38 41 44 44 43 49 33 39 46 53 67
87 89 83 76 84 74 72 68 71 77 74 65 70 78 73 75 81 82 81 79 79 86 96 100 93 84 78 73 62 52 48 53 57 50 50 53 48 39 37 39 52 64 74 68
96 86 85 80 67 65 70 80 78 85 96 60 57 64 84 83 75 75 78 80 90 90 99 95 79 74 73 60 56 58 56 62 64 48 49 48 47 45 48 54 64 70 76 71
85 89 86 94 81 60 95 88 93 100 99 95 95 96 88 77 77 98 86 87 95 98 93 84 71 70 60 61 63 66 63 60 61 54 59 53 56 62 68 65 63 73 74 75
95 94 89 81 77 70 67 89 87 96 100 92 82 80 82 79 80 80 84 88 98 95 85 78 72 64 63 64 71 79 72 73 74 55 66 68 75 75 70 66 68 72 68 62
84 81 85 85 78 73 64 82 88 100 93 96 88 91 86 81 81 88 86 92 98 86 76 71 68 77 72 74 69 68 79 84 76 77 76 84 80 76 71 48 31 28 25 18
89 83 78 79 81 77 70 99 83 84 95 98 96 93 94 92 86 87 87 92 94 80 71 64 74 82 76 70 65 64 76 85 80 78 83 78 76 47 28 30 27 21 15 13
88 85 88 85 83 81 86 86 82 82 82 96 98 97 87 89 96 94 90 90 90 78 75 74 74 73 69 67 66 70 75 73 74 77 78 50 28 29 30 26 21 15 13 12
88 88 91 94 80 83 83 83 79 84 91 91 93 94 88 88 91 92 94 94 91 83 76 75 72 70 71 70 68 67 71 74 67 46 29 28 31 30 27 22 16 13 13 13
72 62 93 82 86 90 98 78 81 86 93 98 96 97 96 91 86 89 94 99 95 94 82 76 75 75 75 73 73 69 60 42 29 28 30 32 29 27 24 18 14 13 14 14

GFSCGP_700_rhum_072.txt.gz
RH
100 99 97 69 64 84 92 79 71 65 60 74 80 73 53 58 48 43 33 40 47 39 32 24 19 21 26 35 38 40 42 42 41 38 40 42 41 42 40 41 42 43 43 40
99 94 75 95 85 92 88 82 75 57 64 74 75 75 71 57 50 46 34 25 38 48 40 33 20 16 16 19 24 32 38 39 41 44 41 42 47 48 51 50 43 43 44 47
96 91 97 95 92 95 92 80 73 56 84 76 66 67 67 58 57 56 32 23 20 26 32 31 22 14 12 11 11 12 16 22 30 40 54 46 44 47 48 51 52 51 50 48
100 93 92 94 87 91 80 64 77 63 73 71 62 57 42 55 57 51 34 17 16 18 21 20 17 14 12 12 11 10 9 10 12 15 21 35 32 33 32 34 39 42 42 47
99 96 94 86 88 98 96 75 83 95 72 62 67 61 38 42 56 46 29 29 22 16 15 14 14 13 12 11 12 13 13 13 13 13 14 14 18 19 19 18 17 20 26 28
97 98 98 94 88 98 96 82 95 98 75 85 66 59 52 51 50 48 44 35 28 26 22 23 21 19 19 18 18 18 19 20 20 19 19 20 21 22 26 25 24 28 34 36
100 100 100 98 100 99 98 99 99 98 98 85 58 64 43 45 47 47 46 44 40 36 32 30 29 27 27 26 24 23 22 21 19 18 19 21 24 27 30 32 33 36 37 38
96 100 100 100 99 97 88 94 97 89 90 68 61 62 49 47 48 55 61 56 43 38 35 34 34 33 32 29 27 25 23 21 19 18 17 16 16 16 16 18 21 25 30 35
89 100 98 99 99 99 98 99 91 76 51 63 59 55 55 47 48 51 51 43 44 43 40 38 36 33 30 28 26 23 21 19 18 18 18 21 23 25 28 28 27 26 25 26
83 94 100 98 97 99 98 99 98 83 82 71 48 46 44 48 53 47 47 42 43 41 38 35 33 31 28 27 26 27 29 29 30 31 32 34 34 35 36 36 37 37 37 36
86 88 98 98 97 95 97 98 90 82 59 80 65 41 42 36 40 44 44 46 41 39 38 41 44 46 47 45 43 41 40 39 39 39 38 38 37 35 33 38 40 42 41 42
83 81 96 100 91 94 97 98 81 71 72 53 58 52 54 46 50 60 58 46 50 52 52 50 47 44 44 47 44 43 43 40 39 36 35 36 33 33 34 35 40 40 42 42
73 83 92 94 82 78 81 79 80 71 66 60 78 55 60 68 76 70 61 61 56 54 50 48 45 42 43 48 47 45 45 42 34 31 30 29 28 25 20 14 14 18 21 24
66 79 84 81 82 77 73 74 78 72 53 62 48 50 66 71 66 62 62 57 51 47 48 49 52 50 56 55 54 51 49 34 27 24 20 16 13 12 13 15 21 23 27 26
69 67 56 68 58 61 57 65 77 68 62 59 53 52 53 68 64 62 68 54 49 60 75 78 79 73 70 69 63 60 43 32 31 25 19 15 14 17 22 26 32 32 23 20
65 68 54 52 49 55 54 64 70 76 63 58 63 57 56 56 65 67 62 51 76 79 80 82 90 90 83 77 68 60 42 39 36 26 24 29 32 29 32 42 38 30 30 33
77 70 58 83 66 71 76 55 57 63 55 52 57 54 63 65 65 63 65 82 82 79 78 85 93 98 84 78 64 66 50 46 43 42 36 38 38 39 43 47 33 36 45 48
88 86 86 83 75 88 70 64 66 71 71 62 63 74 74 77 67 65 85 81 79 79 81 89 98 100 87 82 68 72 62 49 46 50 50 48 49 42 38 34 34 44 54 61
88 88 84 79 70 66 65 69 73 71 76 64 62 73 77 71 75 81 78 80 79 89 92 98 98 91 78 75 69 60 56 55 61 55 49 51 46 42 42 43 49 55 60 68
81 88 83 82 83 74 89 81 80 95 99 70 62 72 66 81 83 77 85 88 88 93 99 96 86 77 68 74 65 62 63 63 57 53 52 51 49 52 60 57 55 61 64 64
86 84 84 80 82 72 67 85 94 97 97 100 91 87 92 85 80 81 82 82 90 98 98 86 80 73 73 66 68 64 67 73 68 51 57 61 67 66 62 60 62 58 45 28
81 84 83 83 80 79 68 92 89 95 94 98 94 90 87 84 80 82 86 88 91 96 92 78 72 78 80 69 68 76 79 78 76 61 63 72 73 68 64 44 30 28 24 16
80 79 78 74 78 73 76 99 86 92 93 96 98 95 92 88 82 90 92 89 92 95 84 76 70 75 73 76 77 72 80 86 83 73 74 72 72 54 28 30 27 22 16 14
85 83 82 79 77 76 78 80 83 85 82 82 94 98 98 89 90 94 96 92 94 90 79 76 74 75 73 69 66 70 77 82 77 75 72 68 37 28 30 27 23 18 15 15
90 94 81 76 90 88 82 84 74 78 78 83 91 95 96 92 86 88 91 99 94 92 80 76 74 71 69 66 66 68 67 68 70 69 48 29 29 31 28 26 21 18 16 16
70 77 91 90 87 92 90 89 86 84 80 85 87 95 94 98 88 89 89 97 99 98 93 77 76 75 73 70 70 70 66 65 54 34 28 30 31 30 28 24 21 17 16 16

GFSCGP_700_rhum_075.txt.gz
RH
74 100 97 76 75 87 84 86 86 75 74 75 71 67 53 56 62 57 43 39 41 42 45 44 38 26 25 32 32 28 37 40 42 47 51 45 42 44 44 42 43 41 43 44
71 98 98 91 82 89 81 81 76 69 68 71 70 60 57 62 47 55 53 45 43 32 36 44 44 37 26 21 26 31 39 42 39 38 40 46 47 46 46 48 45 49 48 49
98 99 99 92 82 80 84 95 80 71 68 74 80 77 76 58 56 49 45 43 39 30 30 30 29 26 26 22 18 20 24 30 39 39 38 38 41 44 48 53 60 58 59 58
98 97 96 99 94 86 86 89 86 96 84 94 83 73 60 48 44 54 49 39 36 30 23 20 20 18 18 22 20 17 15 15 16 19 21 21 20 23 28 38 52 62 71 65
86 91 98 93 88 92 96 99 97 96 96 87 73 70 52 40 46 29 33 35 24 23 21 18 17 19 17 15 17 16 14 12 12 12 13 12 12 12 13 14 15 17 24 30
99 85 93 98 95 95 80 73 87 100 99 98 72 68 37 27 28 39 44 43 41 23 16 17 18 17 15 14 13 13 12 12 12 13 13 14 15 14 14 14 14 14 15 18
99 100 99 94 99 98 91 90 99 98 98 91 63 72 37 41 30 36 40 48 40 30 20 18 17 17 18 18 17 16 17 19 20 20 20 19 20 22 24 24 25 25 24 24
97 98 98 91 88 98 98 98 95 92 95 79 67 70 59 42 48 50 51 51 45 35 33 34 30 29 27 28 27 26 25 24 23 21 20 19 19 19 19 20 21 21 19 20
84 98 98 98 97 86 100 100 94 90 64 65 63 64 59 52 48 46 48 47 49 45 40 37 37 35 34 32 30 28 26 24 22 20 19 18 17 16 16 16 17 18 20 23
86 98 94 99 100 100 95 97 98 97 95 84 66 58 52 55 54 48 45 46 48 43 43 42 40 38 34 32 29 27 24 22 20 19 18 18 18 20 24 28 31 32 34 36
84 83 100 100 99 98 99 100 97 92 95 86 78 48 48 46 44 48 53 55 48 47 44 41 38 35 32 30 30 30 30 29 28 29 29 30 30 30 32 34 35 37 37 38
88 86 99 96 99 100 100 98 94 83 96 60 62 54 38 43 46 54 60 61 49 46 44 44 44 48 50 47 44 41 39 36 34 34 34 35 35 34 34 34 32 33 36 37
76 87 96 98 96 98 99 95 91 90 68 58 69 58 48 42 53 61 59 52 49 56 58 56 52 49 45 40 36 36 39 37 36 36 36 32 30 30 30 30 30 27 17 14
68 74 77 73 72 73 85 85 92 82 62 65 51 56 60 61 55 70 75 67 66 59 54 51 48 47 48 48 46 48 45 42 44 38 28 25 23 20 17 14 13 14 19 23
61 59 73 72 61 58 60 68 74 75 66 54 52 54 48 56 64 71 66 62 58 52 49 52 63 71 72 71 66 65 57 53 45 31 30 26 20 15 12 13 20 26 31 28
64 59 56 53 53 52 50 54 63 71 71 60 56 54 51 55 69 67 63 55 53 51 72 75 79 84 87 86 78 75 65 56 40 36 34 26 21 26 30 26 29 38 31 29
71 61 56 80 72 68 72 51 51 52 47 55 60 55 53 66 69 64 63 58 58 79 79 80 81 85 92 86 84 76 68 63 48 43 40 36 32 35 35 35 38 34 34 48
83 80 73 80 76 91 66 60 60 59 55 57 56 56 63 64 65 63 60 62 82 84 84 84 90 95 99 95 88 79 70 69 58 48 46 48 45 44 44 38 34 34 44 56
88 86 80 74 81 68 64 65 66 65 63 57 57 61 75 67 64 63 68 83 82 84 87 94 97 100 97 94 89 73 72 74 62 52 52 54 49 46 41 38 40 48 56 66
85 90 83 82 83 85 83 73 76 87 96 82 66 66 81 74 73 70 85 84 94 90 91 98 100 97 87 82 76 70 66 60 58 60 52 52 49 48 50 54 57 59 63 62
82 94 88 82 86 76 71 71 92 96 85 76 66 68 66 70 86 87 85 86 86 86 98 99 97 89 82 76 70 65 65 70 66 58 49 55 54 61 61 60 61 59 52 28
75 78 87 81 77 80 70 89 98 90 97 98 91 83 90 90 88 84 83 81 86 89 95 97 85 78 76 76 72 74 82 83 74 63 61 66 69 65 63 52 32 28 23 15
84 81 77 76 73 70 76 71 90 95 93 96 99 96 97 95 93 88 89 88 90 92 99 90 81 74 84 84 78 77 84 80 77 67 67 74 69 64 32 29 28 22 16 14
85 85 84 83 79 79 79 76 85 92 89 86 83 97 98 96 96 92 93 91 92 96 97 82 79 76 77 77 76 76 72 79 79 75 77 73 67 29 30 28 24 18 15 15
87 86 87 83 84 92 87 84 82 85 83 79 82 89 94 98 98 94 92 91 97 93 98 84 80 76 73 71 69 70 72 73 77 78 76 60 29 30 29 25 21 17 16 16
70 83 89 88 90 87 90 92 88 88 89 88 86 86 96 98 96 96 93 90 94 92 99 97 79 77 74 71 68 67 68 69 72 72 49 29 30 31 27 25 22 19 17 17

GFSCGP_700_rhum_078.txt.gz
RH
86 98 98 79 93 94 91 93 76 80 83 88 88 81 66 58 48 44 43 48 56 48 44 44 44 40 35 30 27 25 29 41 49 50 49 45 43 43 42 42 46 46 46 44
67 91 99 93 89 95 78 87 78 80 74 81 72 60 56 49 48 51 46 44 49 57 48 46 44 37 30 30 27 24 22 25 35 49 54 54 50 51 50 47 44 46 47 46
83 63 98 99 99 96 93 76 70 65 71 83 76 77 68 47 46 51 52 47 44 46 44 37 39 40 36 30 27 23 22 21 25 30 38 45 48 45 44 43 42 45 50 51
96 72 82 94 96 97 100 93 88 77 81 81 82 85 54 46 48 52 42 52 43 49 46 42 34 36 39 36 33 28 27 23 21 21 25 30 35 41 45 46 46 45 45 43
93 90 86 96 96 88 91 87 97 89 87 88 87 82 69 53 47 34 26 35 52 48 41 41 40 38 39 36 27 22 24 25 21 18 18 16 16 16 16 16 17 19 24 31
97 83 99 97 100 94 84 78 88 95 93 98 77 88 60 47 36 30 32 27 38 46 42 46 47 37 33 27 22 21 22 23 22 18 14 13 12 11 11 12 13 14 15 18
96 98 91 90 97 99 99 90 98 99 98 93 72 79 64 43 36 33 30 26 32 32 36 37 34 31 27 22 20 17 15 14 14 13 13 13 15 16 17 17 18 19 20 22
98 98 98 98 97 97 100 91 81 90 96 82 72 80 64 46 37 40 28 42 34 47 47 46 42 28 23 19 17 19 21 21 20 20 20 20 20 20 20 20 20 22 22 22
96 99 100 100 99 87 99 96 84 83 74 76 69 66 57 42 40 40 45 55 57 54 54 48 35 27 31 31 30 29 29 28 27 26 24 22 22 21 20 19 18 17 16 16
84 96 99 100 97 94 98 91 99 99 96 89 68 66 52 42 41 40 37 49 53 55 51 46 41 36 35 35 33 32 32 30 28 25 24 22 21 20 19 18 20 22 26 29
66 76 100 95 92 93 98 100 97 91 91 94 87 57 48 47 47 42 42 43 48 51 52 46 42 40 39 38 36 32 30 27 25 23 22 21 21 21 22 25 28 31 33 35
89 88 99 100 97 100 98 100 100 87 96 77 66 54 40 46 52 51 49 52 53 56 51 50 46 42 38 37 37 37 38 38 35 33 32 33 33 32 32 33 34 35 36 36
95 98 96 99 100 100 100 93 92 89 82 83 77 57 41 35 43 54 59 61 61 57 51 48 44 47 52 52 50 45 41 36 34 37 37 36 36 36 35 34 32 32 32 31
79 81 72 73 69 84 98 90 94 90 87 66 63 52 47 36 38 55 70 72 62 56 53 60 58 57 53 49 47 41 38 37 38 41 40 40 39 32 26 24 23 22 20 16
66 64 75 72 76 76 75 75 90 96 82 67 59 48 38 46 40 48 54 57 59 64 63 56 52 52 52 55 55 51 51 53 53 51 49 40 29 27 24 17 13 12 13 19
62 56 57 56 54 51 52 64 80 82 85 80 61 51 47 45 58 66 66 68 67 62 58 54 64 75 77 78 77 74 69 69 63 59 45 33 32 27 21 17 22 24 27 33
70 62 51 57 69 69 63 35 44 55 69 71 70 56 49 45 56 70 66 62 59 56 55 74 79 80 84 87 89 81 78 74 67 62 44 40 36 30 31 33 32 32 38 32
79 76 64 82 81 95 54 59 57 55 48 55 63 62 55 49 57 70 68 62 60 56 77 82 83 87 91 97 97 93 89 78 71 69 55 46 46 45 42 42 43 42 38 35
88 88 79 76 80 56 48 55 59 58 55 52 54 62 62 60 63 63 62 60 61 80 85 85 89 95 100 100 100 96 92 74 73 75 64 54 54 56 52 52 45 38 38 50
86 92 87 88 82 85 86 75 76 74 71 64 58 64 62 63 67 62 64 65 82 85 92 94 97 99 100 99 88 86 82 73 76 75 65 60 59 57 54 45 40 50 61 67
83 92 89 88 84 69 67 70 85 92 80 82 69 72 70 67 67 70 71 84 85 95 93 92 95 100 99 90 81 78 79 80 70 63 64 58 56 58 56 56 62 66 67 64
78 76 81 82 77 74 70 78 91 89 87 93 67 69 66 68 76 94 90 86 88 84 86 92 96 96 86 81 79 78 75 78 76 75 68 64 66 69 67 65 68 65 40 22
84 75 76 76 72 72 77 74 87 96 94 100 100 100 100 100 100 98 92 86 87 92 89 94 98 85 80 81 87 88 87 87 90 82 75 75 76 72 69 63 34 27 19 15
83 84 86 85 78 78 80 80 83 95 93 89 90 92 99 99 98 97 94 94 91 92 93 98 89 81 79 81 84 88 88 94 94 82 78 81 77 74 46 29 27 21 16 15
82 83 84 83 80 80 84 83 88 94 94 89 83 86 91 96 98 98 95 94 97 98 93 99 95 83 79 77 79 80 81 87 93 88 81 84 78 42 30 28 24 20 16 16
73 74 82 88 85 80 81 91 90 90 92 93 92 90 90 97 97 96 95 97 95 98 99 96 100 84 78 75 72 73 75 76 80 85 84 81 59 29 30 27 24 19 17 16

GFSCGP_700_rhum_081.txt.gz
RH
91 80 98 98 91 80 52 67 86 81 78 92 94 88 71 76 81 78 82 81 77 66 59 52 44 44 42 38 38 33 31 41 41 39 39 39 39 39 39 40 42 45 45 44
95 67 90 98 100 88 77 52 69 70 81 81 89 91 84 79 74 80 77 68 72 79 62 52 47 48 45 42 36 33 30 28 32 38 40 42 46 46 46 46 47 48 50 50
84 77 85 98 98 90 85 68 66 66 74 88 87 87 76 61 53 64 58 56 53 52 56 54 44 50 48 42 36 32 31 29 34 38 43 47 46 42 44 44 44 50 58 57
84 90 96 98 97 89 96 77 72 69 77 82 79 91 60 60 55 49 43 47 46 47 44 46 47 44 42 42 40 36 34 29 26 26 27 30 32 37 42 51 52 51 52 51
95 77 84 98 87 96 95 80 84 84 82 79 78 86 68 54 40 39 33 31 39 50 48 46 45 47 42 36 39 37 34 32 30 28 26 22 23 25 29 34 37 38 34 32
87 96 88 95 97 99 97 99 99 96 94 91 80 80 70 48 33 32 30 32 33 48 49 52 49 50 43 41 37 36 37 31 24 21 23 25 22 18 16 15 15 16 16 16
96 97 79 74 98 98 99 94 98 98 99 92 76 79 69 51 44 41 40 36 30 36 48 52 54 51 47 46 46 42 38 30 23 20 17 16 17 16 14 13 12 13 15 17
96 96 89 81 94 98 99 89 79 90 92 91 75 92 62 45 39 40 31 31 33 32 37 53 56 49 47 49 47 43 37 31 22 17 14 14 14 14 14 15 15 17 20 21
94 97 85 98 90 97 100 95 84 84 81 79 68 62 51 44 38 36 32 29 28 30 38 48 49 46 42 40 37 29 22 20 19 20 22 23 22 22 22 23 24 23 21 20
94 98 99 94 99 98 91 93 91 89 98 91 70 64 52 39 36 39 33 32 35 40 44 51 50 48 49 42 32 29 30 32 33 31 29 28 27 25 23 22 22 20 20 20
87 81 100 77 97 97 97 100 91 85 92 93 91 54 44 42 40 45 37 41 39 46 54 63 64 58 48 40 38 38 38 37 36 33 30 28 27 26 24 22 22 21 21 23
90 82 100 100 99 93 84 78 86 92 98 96 76 63 45 37 43 49 52 48 48 56 56 57 57 50 46 44 43 41 38 35 32 29 28 27 25 25 24 25 27 30 32 34
87 84 96 98 94 96 96 92 84 86 96 91 78 60 43 44 34 38 48 53 54 57 53 49 50 48 46 42 40 39 41 41 42 40 39 38 37 37 35 35 35 36 37 39
82 84 76 76 69 79 92 91 100 98 92 86 79 66 50 56 47 35 40 53 62 61 60 53 50 48 51 50 52 55 52 47 41 36 33 32 38 39 40 40 38 34 29 27
85 88 83 70 72 74 74 66 84 93 88 89 78 70 56 54 45 45 43 60 73 71 62 52 50 59 60 58 55 52 51 47 42 40 40 43 45 44 43 32 27 23 18 16
72 62 78 73 72 78 80 83 86 85 87 87 77 68 61 48 51 50 49 67 70 60 58 64 59 56 57 66 71 72 69 69 67 61 60 56 53 45 32 30 26 19 15 16
70 68 60 56 62 64 59 44 56 62 69 84 92 63 66 51 57 51 54 60 62 64 65 60 56 68 80 81 83 82 82 80 79 76 71 64 53 39 36 31 26 28 30 28
73 73 61 75 81 81 42 56 51 43 41 62 73 70 72 60 51 57 66 66 65 65 63 58 69 83 85 86 88 91 90 89 92 89 78 68 59 46 44 39 36 37 37 41
79 86 78 77 82 56 42 56 63 60 54 61 52 52 67 69 56 57 70 74 66 62 62 67 82 84 87 92 95 93 100 97 91 84 77 71 68 51 50 51 49 48 50 45
85 90 89 90 82 81 80 81 81 80 70 62 54 52 61 68 58 53 66 68 63 62 64 85 87 91 95 95 96 100 98 90 90 83 80 73 72 59 56 58 55 52 42 47
92 94 92 93 86 64 62 71 76 82 82 88 78 62 62 62 66 65 64 66 66 64 88 93 94 94 92 97 100 98 91 86 87 87 78 70 67 62 58 55 50 49 57 70
79 80 86 88 83 78 62 77 79 91 94 94 66 80 70 69 69 71 72 76 90 93 95 93 89 91 96 99 93 89 93 90 92 85 72 64 65 61 62 59 61 69 71 68
83 77 75 70 70 73 80 80 83 95 99 99 99 80 78 78 82 85 97 97 94 97 94 94 92 96 98 90 87 90 99 92 90 89 82 73 66 67 67 71 73 72 64 35
82 84 85 83 77 79 78 77 80 94 98 99 92 96 99 98 95 97 99 98 95 93 90 93 94 99 91 86 84 88 96 98 97 94 90 77 77 76 75 73 65 41 25 17
87 87 85 80 80 82 79 84 83 95 98 96 88 86 87 90 96 98 98 97 95 97 97 98 94 99 92 84 81 81 84 90 94 95 92 82 83 80 79 57 30 26 20 16
78 74 78 78 82 90 85 86 87 93 93 92 92 90 92 94 96 98 98 97 99 99 97 95 99 92 95 84 79 77 79 81 86 96 85 85 86 81 57 30 28 24 20 16

GFSCGP_700_rhum_084.txt.gz
RH
97 97 70 92 97 88 71 98 91 99 94 99 97 87 80 69 66 74 84 92 87 97 86 96 85 80 64 47 40 38 33 37 45 45 41 40 39 44 41 40 44 42 44 46
97 85 48 68 97 99 74 87 88 79 92 94 91 81 77 78 73 67 67 65 87 94 82 89 91 78 66 52 45 41 39 34 30 35 43 44 44 44 41 43 44 47 53 53
97 90 51 99 94 99 88 54 74 67 92 87 86 90 68 78 86 80 79 70 69 76 69 66 68 64 58 53 50 46 43 40 33 30 30 33 36 36 39 41 45 51 58 59
97 85 81 93 98 100 89 67 54 60 77 96 90 82 70 66 76 78 75 56 53 61 63 64 60 64 63 59 53 48 45 42 38 34 32 33 34 32 32 40 44 45 46 54
96 89 66 87 93 99 78 78 66 74 84 82 87 93 68 58 56 59 63 70 70 71 67 59 52 55 60 59 52 43 43 45 41 38 35 32 30 27 28 32 35 37 40 45
88 82 86 96 97 96 84 94 88 82 85 89 79 78 64 52 34 39 49 49 58 64 69 62 56 51 48 52 48 46 41 42 41 39 38 35 28 29 29 25 24 24 26 30
97 81 85 96 98 98 100 91 99 99 97 86 69 79 68 47 39 38 37 38 43 43 42 48 51 56 51 50 50 48 41 41 37 36 34 28 24 22 21 22 23 22 19 18
92 98 92 89 98 98 99 78 73 90 92 91 83 93 55 37 37 35 39 40 39 34 33 39 51 55 58 57 55 50 46 45 41 36 34 29 24 18 15 14 14 15 15 15
86 98 98 85 77 98 98 97 86 80 83 82 72 70 40 42 38 35 33 33 32 33 34 31 40 53 60 59 56 52 51 50 48 42 34 23 19 16 15 15 15 16 16 18
93 96 92 80 85 95 100 82 87 88 94 92 72 63 44 31 30 33 34 35 32 30 29 33 36 48 57 60 56 50 46 42 36 27 19 19 20 22 24 22 22 23 23 22
93 88 99 84 98 98 100 89 87 80 87 91 91 54 41 40 39 37 40 38 38 39 37 38 41 48 55 56 55 47 39 33 26 26 28 29 28 28 27 26 24 23 23 22
95 88 97 96 89 98 92 82 77 72 95 98 80 62 46 41 40 39 41 43 45 47 54 62 66 65 65 63 61 51 42 40 38 37 36 35 32 29 28 26 24 22 22 22
90 95 99 100 99 99 95 86 78 83 82 95 88 63 43 42 48 48 41 47 45 48 55 60 65 64 60 57 49 46 46 44 41 38 34 32 31 33 32 33 31 31 30 33
89 90 80 77 69 68 85 83 89 85 86 81 79 65 56 48 40 48 40 46 54 54 57 61 58 57 55 52 50 46 46 45 45 46 45 42 39 35 32 32 35 38 37 37
98 91 78 78 69 70 66 55 59 77 73 74 66 70 48 50 55 53 44 45 59 65 63 64 60 56 54 53 55 58 60 57 52 47 42 38 34 31 33 36 41 43 39 31
90 72 81 87 81 79 84 81 79 76 65 78 75 76 67 68 60 48 51 47 60 73 76 71 63 58 67 69 66 62 63 59 61 58 52 45 42 44 47 51 48 37 29 26
82 80 77 69 69 69 58 52 63 66 66 65 84 39 61 66 62 56 55 46 58 71 66 66 73 67 65 67 68 74 75 79 76 74 70 67 63 64 61 50 38 34 29 23
75 77 68 71 77 76 44 45 49 47 48 56 52 46 56 68 74 65 58 56 62 68 72 69 64 61 67 79 83 83 84 86 88 84 88 84 78 73 66 50 42 37 34 33
85 81 75 75 83 56 43 45 60 66 54 53 43 35 40 59 74 68 60 65 65 68 69 68 65 61 74 85 86 86 90 93 88 98 92 84 79 76 71 59 51 50 45 43
84 86 88 88 79 74 66 83 80 80 68 72 62 55 58 58 65 62 58 60 70 72 67 65 64 82 88 89 93 94 89 97 100 97 89 84 82 79 74 68 56 57 55 52
92 96 94 87 86 69 61 61 72 79 82 86 82 64 57 56 65 66 60 68 76 78 68 67 85 93 98 95 96 92 97 100 98 91 89 90 87 80 79 72 63 66 60 52
81 87 86 84 85 82 68 74 77 92 96 97 83 66 73 75 76 73 72 72 72 69 70 82 92 92 90 92 93 96 98 95 100 100 100 100 91 75 73 70 65 64 58 61
88 80 76 72 70 69 83 84 83 90 90 96 96 79 88 83 81 80 78 75 78 95 96 97 92 94 92 92 92 95 93 95 100 100 100 100 92 81 75 71 70 70 74 80
89 86 85 82 79 82 81 81 79 85 93 97 93 95 91 82 84 85 100 94 95 98 93 86 90 90 92 96 95 90 85 95 100 100 100 100 97 83 80 76 75 79 81 78
91 92 87 83 78 84 86 83 88 93 100 98 94 87 88 89 94 98 98 99 99 95 94 96 95 97 90 97 92 87 84 86 95 99 100 100 96 90 86 85 87 84 71 39
75 81 83 82 80 80 90 88 93 93 95 92 91 92 84 88 95 98 96 96 96 97 99 99 97 92 97 94 94 86 84 84 89 100 99 100 95 95 90 86 82 51 29 21

GFSCGP_700_rhum_087.txt.gz
RH
96 97 94 83 94 96 63 93 83 85 85 88 92 95 57 49 54 40 48 46 52 67 80 71 65 67 70 82 84 85 81 77 72 67 58 54 50 51 53 50 43 38 39 41
95 92 86 77 96 94 75 76 85 87 80 90 90 96 62 47 43 42 41 54 60 69 71 69 63 75 71 74 79 88 94 88 73 76 74 58 53 52 51 50 45 42 43 50
92 99 99 95 96 98 90 70 79 74 95 95 88 90 82 76 61 51 44 58 72 73 73 68 71 75 82 76 74 67 58 58 58 61 56 55 47 44 47 44 48 48 54 57
91 98 98 97 97 98 100 78 74 76 89 90 94 82 65 66 65 55 45 47 55 73 78 80 78 88 95 84 72 67 58 53 49 50 44 39 37 40 41 42 42 42 46 53
95 96 96 88 94 96 98 76 80 72 89 91 95 88 59 52 61 74 58 51 52 65 73 93 88 80 71 74 71 72 60 56 50 46 43 41 33 32 32 32 32 32 34 39
97 92 83 84 72 94 97 86 86 77 93 93 81 90 63 58 42 43 51 46 49 51 63 78 78 79 70 70 69 65 62 52 46 45 44 42 40 36 33 30 28 28 27 27
87 87 76 72 70 95 98 91 94 90 91 86 75 86 62 45 43 39 39 45 50 52 57 60 76 59 56 55 53 53 53 55 48 43 44 42 39 37 33 27 22 22 25 26
99 95 75 75 78 97 98 78 69 91 90 88 88 92 52 30 32 44 39 36 38 43 48 59 63 61 66 61 59 52 50 52 50 46 46 44 41 38 30 25 21 17 15 15
99 96 83 82 96 98 99 83 74 76 86 76 71 69 37 43 33 32 34 40 40 41 41 42 49 49 44 47 54 59 56 55 52 49 49 49 46 43 36 27 19 14 12 13
100 98 95 95 96 96 99 91 77 76 91 84 74 62 38 36 39 40 40 39 37 36 41 40 37 36 45 42 61 62 59 57 56 54 51 47 43 36 26 16 16 16 16 17
100 99 96 96 94 93 98 100 86 74 90 78 75 50 43 44 43 38 38 34 37 36 32 32 32 38 41 54 64 64 62 60 56 53 48 41 32 25 20 23 24 23 23 23
100 98 99 94 86 90 100 98 84 67 94 84 73 53 50 44 45 45 44 41 38 36 36 36 38 41 56 67 70 67 65 60 50 40 35 32 29 27 29 29 29 28 26 24
91 94 96 97 90 84 99 98 93 76 72 79 77 56 38 42 40 46 46 45 44 41 41 44 53 58 69 75 74 72 67 60 50 41 37 39 38 36 35 32 30 28 26 24
90 95 82 73 60 58 68 80 80 82 84 77 76 54 45 38 40 40 40 42 43 46 48 52 61 67 68 66 67 63 58 55 53 48 41 38 37 36 36 37 35 33 31 30
97 96 88 73 70 70 65 62 71 79 74 76 65 57 39 44 51 46 38 44 42 45 52 58 62 62 60 58 58 60 60 62 59 56 56 51 46 42 39 37 32 30 30 33
97 89 94 86 80 74 74 71 70 68 71 82 76 56 42 57 62 61 50 51 50 51 62 69 70 66 60 63 65 69 75 71 69 62 55 50 47 43 40 33 31 36 41 44
93 95 86 85 80 74 56 52 56 58 61 63 70 44 56 62 67 65 56 54 49 55 75 82 79 70 69 73 74 71 67 65 70 73 72 71 70 62 56 53 50 52 50 42
84 79 72 67 69 74 47 46 46 45 45 49 50 49 48 51 66 70 66 56 53 58 75 74 74 78 69 64 65 70 77 82 83 84 85 83 78 77 70 67 64 59 48 38
86 74 73 75 76 56 51 51 52 62 57 58 52 52 42 39 42 59 69 59 59 60 72 76 75 71 65 62 72 84 88 88 92 94 92 86 88 80 75 72 69 66 52 46
86 87 79 84 77 68 62 77 76 76 78 84 82 69 54 55 41 40 57 62 63 62 67 68 68 68 66 76 92 92 93 96 92 96 100 100 94 82 74 76 75 72 61 57
92 89 91 84 81 71 70 64 70 76 82 92 85 76 66 56 55 52 58 60 64 72 72 73 70 70 75 89 97 99 98 96 93 98 100 95 87 87 82 79 82 79 69 65
84 86 88 84 79 77 76 70 74 90 90 92 95 73 76 66 66 69 70 67 72 77 78 74 68 68 94 100 98 93 97 92 95 96 97 100 98 96 93 88 84 82 74 74
89 82 77 72 71 71 83 85 86 84 83 81 84 88 84 81 78 82 81 78 75 72 70 70 84 96 99 95 93 98 95 90 94 92 100 100 100 100 98 89 81 80 78 76
87 89 85 82 82 86 88 86 86 83 86 88 92 92 96 91 88 81 84 81 76 80 96 99 98 84 88 90 92 98 97 93 90 90 100 100 100 100 100 94 86 84 80 81
93 93 91 88 84 79 87 85 82 92 95 91 94 95 93 93 96 98 97 99 99 100 99 92 93 95 93 91 94 96 97 90 88 91 98 100 100 100 100 97 92 92 90 89
80 82 86 86 82 80 78 95 93 98 98 99 98 98 95 83 83 94 93 89 89 90 96 97 96 96 94 94 97 98 97 90 87 87 97 100 100 100 100 96 90 91 90 90

GFSCGP_700_rhum_090.txt.gz
RH
100 96 97 72 85 97 66 68 65 67 90 98 84 81 85 71 63 54 50 42 48 62 76 60 71 78 84 78 80 89 83 76 74 72 73 71 60 49 47 52 51 46 44 41
99 89 91 100 87 98 97 64 76 68 82 85 80 84 86 86 60 46 39 42 42 54 76 65 60 77 77 79 86 88 88 85 82 77 77 76 76 72 68 65 55 49 44 44
99 98 92 93 96 98 96 67 65 79 90 97 86 86 82 78 50 42 38 35 42 47 58 64 57 75 72 76 82 84 87 87 82 79 80 88 90 75 78 74 65 58 59 57
99 79 78 90 95 94 98 76 82 81 82 76 85 51 63 75 57 33 31 33 38 45 67 82 73 70 80 84 97 86 84 69 85 89 88 91 90 86 92 92 76 61 51 50
100 77 99 93 93 93 98 93 82 72 76 82 94 78 50 54 74 75 44 34 40 44 72 75 84 82 77 81 87 82 76 77 68 65 92 81 73 79 86 83 87 85 57 46
98 98 99 98 99 96 97 90 82 78 89 84 58 71 43 56 51 40 37 37 35 46 61 79 88 86 84 87 90 78 74 67 62 64 64 66 62 62 54 54 48 42 39 36
100 94 97 99 89 96 98 98 96 94 86 58 60 77 50 52 38 31 30 31 35 38 42 50 72 84 87 90 84 80 86 92 74 71 69 64 59 54 54 47 38 36 34 30
94 93 94 92 89 89 98 95 61 58 55 44 90 68 51 30 34 42 38 34 37 40 47 51 56 64 89 97 86 75 76 74 71 69 63 54 51 50 44 45 41 35 27 22
99 100 88 82 72 87 99 98 72 76 72 55 56 56 46 33 29 29 37 33 33 32 36 45 56 62 72 91 96 87 71 57 55 54 54 53 50 50 48 46 41 35 33 30
98 96 99 89 84 96 97 100 83 75 76 54 60 53 27 40 45 42 37 36 39 39 38 36 41 46 55 70 80 66 50 50 60 60 56 53 51 50 50 48 44 38 32 22
97 97 99 98 93 92 93 99 88 78 85 47 53 42 46 46 44 40 36 33 35 35 33 38 39 37 38 44 48 48 42 48 62 62 60 58 56 54 52 48 43 36 26 17
99 97 96 95 88 81 80 99 90 76 86 66 68 46 50 46 42 41 41 40 35 37 35 37 39 37 36 39 44 54 57 58 65 63 61 59 56 53 47 38 31 25 22 20
94 97 97 96 96 99 94 92 88 79 64 66 52 45 50 47 44 44 44 44 44 41 38 37 35 35 36 43 54 63 72 72 71 69 65 60 52 43 35 33 31 30 30 30
98 92 83 70 70 67 61 60 69 81 73 73 64 49 43 42 48 42 36 36 40 42 41 39 38 41 47 54 67 77 76 74 72 71 66 56 47 46 41 38 36 34 32 30
96 95 83 76 73 78 70 71 81 84 83 75 64 50 40 46 45 43 42 36 36 40 42 46 48 54 60 68 71 71 72 70 64 58 55 55 53 53 52 50 44 40 37 34
94 95 90 84 79 77 75 75 75 83 83 76 67 49 41 45 44 49 58 50 45 44 48 51 52 54 56 58 58 62 63 60 60 62 63 66 62 57 53 50 43 40 37 34
87 86 87 86 76 68 60 59 65 68 66 64 64 45 59 56 62 64 62 52 52 51 58 61 65 66 65 64 63 63 66 70 73 71 68 67 69 66 62 59 56 55 51 47
82 75 70 74 59 54 51 52 52 57 59 52 54 52 57 62 63 64 66 61 56 50 57 73 78 78 69 65 67 71 71 72 73 76 80 81 83 81 74 73 73 74 68 64
86 75 70 76 67 56 64 66 57 60 68 70 76 63 46 35 34 43 62 65 58 56 64 78 75 70 71 69 64 64 72 81 87 90 90 91 90 84 82 79 82 79 80 75
82 82 76 75 73 53 69 64 71 76 93 87 83 73 70 56 42 36 48 67 61 57 56 57 64 70 68 66 66 68 80 90 92 94 93 91 86 91 93 90 80 78 83 78
92 88 93 85 79 68 68 62 71 81 90 92 87 80 67 55 56 56 45 55 65 63 63 66 68 68 68 67 66 74 89 94 96 94 94 90 97 100 97 90 87 82 87 86
86 85 87 91 80 71 74 73 78 90 84 83 82 89 79 67 62 66 68 65 65 71 72 70 72 70 69 70 71 88 98 97 92 99 98 95 96 99 99 100 100 95 92 90
90 83 81 78 75 70 82 83 86 86 83 83 81 87 84 83 77 78 78 75 74 73 78 77 76 73 68 85 99 98 94 92 93 96 93 96 98 99 100 100 100 100 96 94
88 89 85 81 86 88 87 89 85 87 88 88 91 94 94 95 88 84 80 80 77 74 72 70 74 88 97 94 86 89 91 98 99 98 96 93 100 100 100 100 100 100 96 94
91 90 90 88 89 84 83 90 85 83 93 98 88 96 98 98 99 96 95 94 99 96 90 95 100 97 92 91 94 91 96 96 97 96 90 91 100 100 100 100 100 100 99 99
87 84 89 94 86 80 78 79 93 93 90 92 96 94 98 91 82 78 86 91 93 92 96 98 100 98 96 92 92 93 98 98 98 97 92 93 97 100 100 100 100 100 99 92

GFSCGP_700_rhum_093.txt.gz
RH
77 100 85 79 78 91 97 77 53 48 66 72 76 67 58 75 78 73 63 63 65 72 76 76 50 52 55 71 68 64 65 64 64 69 69 68 64 63 54 53 52 48 43 40
92 86 90 95 100 93 99 99 66 47 78 77 77 71 62 69 76 72 65 59 61 69 73 78 63 50 51 61 70 78 77 85 82 73 71 72 86 88 80 62 52 56 56 53
93 94 99 95 99 96 97 94 69 52 84 86 83 68 64 65 70 73 70 64 61 59 70 72 84 58 47 55 65 79 89 81 89 83 80 72 74 78 72 66 72 73 71 66
83 94 98 97 98 87 98 84 86 67 83 63 76 56 55 62 67 68 71 68 68 64 58 75 88 53 58 63 74 76 81 92 87 90 82 79 68 76 78 66 74 87 79 75
97 83 97 99 94 88 91 83 77 83 72 66 70 58 41 48 59 62 64 63 63 66 42 56 86 46 62 65 71 79 79 85 90 91 93 85 87 80 86 73 78 87 74 83
98 94 97 98 100 96 93 91 93 89 78 85 58 53 34 51 51 54 58 59 56 31 35 82 81 54 62 66 70 73 77 80 90 86 90 85 92 96 95 91 96 93 88 81
97 100 97 97 91 95 97 99 97 95 95 54 47 58 40 42 48 50 56 57 58 46 58 72 96 55 64 70 75 85 91 86 82 86 79 76 80 81 94 92 94 91 90 68
88 95 98 96 97 96 96 98 85 73 70 48 61 47 44 46 48 43 47 54 58 65 53 57 72 70 77 83 93 92 93 80 76 86 83 77 70 76 77 80 78 71 64 55
88 100 94 93 95 95 96 98 96 73 45 44 49 45 47 41 30 37 37 33 37 41 57 58 49 63 66 76 86 85 88 90 92 89 83 85 87 86 86 78 80 80 67 49
98 96 100 83 90 93 97 97 85 76 64 54 42 32 36 46 54 37 31 38 31 31 36 38 42 53 57 58 71 86 96 97 89 86 82 72 60 59 58 59 58 54 49 48
94 97 99 92 79 89 97 96 94 80 74 43 51 36 51 55 54 47 35 25 32 34 29 29 28 32 44 48 58 78 85 91 97 93 77 69 63 59 56 55 55 54 52 50
97 98 99 95 96 98 96 86 86 68 68 66 68 48 55 46 43 40 38 34 33 34 33 34 33 35 35 42 48 62 72 83 81 83 62 64 67 64 59 58 57 55 52 48
97 96 97 97 96 94 92 77 98 77 63 64 60 49 53 47 46 45 44 45 42 37 35 35 35 40 38 35 35 42 54 65 68 63 62 68 67 64 62 60 57 52 44 36
94 96 97 83 85 82 94 78 87 82 68 57 58 53 49 46 46 45 40 36 34 42 39 37 38 38 36 35 33 35 43 55 63 68 71 71 70 69 67 62 54 44 40 40
93 98 96 88 73 83 71 89 90 67 60 70 64 53 53 52 62 49 40 34 29 30 41 38 36 38 39 41 42 44 56 66 73 75 75 73 71 68 62 53 48 46 44 42
95 98 95 89 71 64 67 61 59 62 68 81 66 49 53 52 50 45 43 37 37 35 34 42 42 41 44 53 61 65 65 66 68 70 70 66 59 57 57 57 55 52 48 46
99 100 95 89 79 85 83 75 68 72 71 76 85 60 81 73 62 59 52 54 50 45 42 48 52 53 54 55 56 57 57 57 60 60 59 62 66 68 66 66 62 58 57 52
98 90 80 66 64 58 62 54 70 85 67 51 51 66 62 59 63 56 58 60 54 52 51 52 59 62 63 62 62 61 58 58 62 68 72 72 71 73 75 75 72 71 64 63
81 91 76 69 53 61 65 61 65 79 81 64 66 64 57 47 42 48 56 61 64 55 53 51 63 69 70 74 66 64 67 67 68 71 76 78 80 80 82 84 79 72 70 71
79 80 86 77 66 47 81 63 70 74 86 84 82 74 63 57 49 70 35 41 64 61 54 52 57 64 68 64 68 67 65 63 64 75 82 87 89 92 90 87 84 84 82 74
88 89 82 70 68 64 65 59 55 82 98 86 76 73 66 64 59 63 51 36 54 68 58 59 57 62 66 71 69 66 62 63 69 85 88 90 95 96 90 92 96 96 94 86
79 74 74 77 73 64 73 74 81 93 84 77 76 82 82 74 66 66 60 55 56 70 68 66 69 71 71 70 71 68 67 64 70 88 99 94 91 93 93 91 96 95 100 100
82 85 88 82 76 70 81 83 84 84 81 81 81 79 89 83 80 81 79 74 70 68 71 74 73 71 74 76 76 69 72 89 95 87 86 92 94 92 94 95 96 100 100 100
82 79 83 79 88 84 85 84 86 84 84 90 91 94 95 97 89 87 84 81 78 80 81 81 80 80 79 74 75 90 93 84 91 94 97 95 95 92 89 97 100 100 100 100
98 88 94 87 90 84 82 80 86 86 87 95 96 90 94 100 97 99 100 98 96 94 87 78 81 93 94 99 99 96 92 93 88 94 96 97 94 92 93 99 100 100 99 100
100 100 100 98 86 83 83 75 74 86 92 97 98 95 91 93 89 82 78 87 95 97 98 97 100 96 97 100 98 95 93 98 100 100 100 98 97 94 94 97 100 100 99 100

GFSCGP_700_rhum_096.txt.gz
RH
79 78 94 86 97 95 95 90 73 62 63 62 77 79 56 63 57 57 72 66 70 71 78 75 45 52 51 57 56 62 60 59 51 51 59 64 64 58 57 52 47 47 46 46
78 79 82 95 95 97 98 94 80 67 57 74 63 60 57 62 79 69 69 68 65 67 69 74 59 48 50 52 57 62 66 64 62 58 55 56 63 69 69 65 61 56 56 55
90 93 97 98 94 98 97 96 90 75 61 81 72 77 74 59 67 65 66 65 61 61 65 72 75 41 48 49 48 51 61 66 69 66 70 70 75 66 70 75 74 79 70 67
77 73 96 97 96 93 97 85 90 94 66 98 96 86 74 68 74 70 67 67 61 60 63 69 73 70 41 48 50 52 50 58 66 75 72 75 88 81 86 99 96 86 86 87
93 96 98 99 86 94 93 90 84 93 79 77 82 75 71 64 63 64 66 68 64 62 60 63 70 75 80 54 41 54 56 54 60 70 86 80 81 86 89 95 99 90 81 84
96 92 98 91 96 96 93 98 87 99 91 98 81 66 44 48 52 50 60 64 64 55 58 50 74 76 81 58 52 58 62 70 71 76 81 95 91 70 91 92 96 96 85 81
99 96 91 88 82 92 98 98 99 98 98 88 62 63 39 32 46 50 52 60 54 57 36 39 54 74 44 46 48 49 62 66 72 78 76 84 89 94 99 95 100 95 91 96
90 98 96 100 91 84 88 99 98 86 90 62 59 85 46 46 46 48 52 56 59 59 56 52 86 80 64 54 60 64 74 72 71 74 94 92 84 75 88 94 96 92 90 99
91 94 97 98 97 96 96 97 97 97 55 64 51 44 46 44 45 43 52 56 59 62 60 55 81 83 47 52 65 78 76 74 69 94 87 81 82 86 83 83 81 82 76 71
95 98 99 85 85 91 87 88 90 95 96 91 49 42 38 33 43 37 42 49 57 61 65 69 69 73 56 47 69 82 88 91 97 90 81 81 96 98 92 84 73 78 64 62
93 90 100 90 69 72 78 96 88 94 71 83 70 48 46 53 56 52 44 32 36 38 50 62 65 58 55 43 41 47 74 84 86 86 84 86 97 98 87 68 63 63 63 66
97 98 98 87 85 94 75 76 93 88 69 76 81 60 54 47 44 43 38 32 33 31 29 32 36 42 39 32 34 47 53 57 81 86 88 100 97 88 87 74 68 66 60 58
94 97 98 99 99 99 95 76 80 91 80 79 94 60 60 52 52 47 45 44 39 37 40 40 34 36 37 38 37 41 53 59 69 77 82 82 80 73 71 72 70 68 67 61
97 92 97 97 90 66 73 60 74 80 70 72 85 60 55 50 51 46 44 40 35 38 41 36 35 36 37 39 39 36 37 42 51 64 74 76 73 71 70 69 68 67 65 63
96 98 96 96 94 77 66 62 68 64 56 59 68 55 60 63 65 57 44 39 38 28 32 42 40 38 38 38 36 35 35 36 42 53 62 68 71 70 72 73 72 70 66 59
88 93 90 86 75 76 88 83 71 60 56 54 51 58 62 63 61 56 48 36 33 31 32 35 41 41 39 39 38 39 41 44 52 61 69 74 75 75 74 71 65 59 57 56
94 97 93 91 76 83 84 75 92 82 74 67 70 78 82 70 70 59 57 40 37 36 40 35 38 44 46 47 46 48 52 57 61 66 70 70 69 65 62 65 68 68 66 64
92 95 80 70 69 76 70 56 61 73 67 62 65 72 69 62 59 66 54 51 55 53 50 47 45 48 50 50 50 53 56 57 57 56 57 59 61 68 72 72 71 72 71 70
84 87 87 76 58 61 52 50 49 59 68 62 65 68 65 51 46 48 60 59 60 62 54 52 54 56 55 57 60 62 65 62 62 66 69 71 69 67 70 74 80 84 85 82
73 77 89 78 70 63 86 67 65 65 91 82 78 76 67 60 68 69 52 41 46 64 63 56 54 55 63 62 65 65 65 67 65 64 67 66 69 75 83 86 88 87 84 83
86 86 85 84 72 69 66 58 60 77 98 97 80 72 77 70 68 72 74 60 40 48 70 62 60 59 64 70 64 68 68 67 66 66 67 73 83 85 87 90 87 86 87 84
79 76 76 77 75 74 68 70 77 96 95 83 70 74 81 80 74 70 71 68 58 48 71 70 64 73 76 68 72 72 69 68 68 66 68 82 93 96 89 87 89 89 90 92
78 81 85 78 88 76 72 83 82 84 81 74 77 81 81 88 86 84 83 81 75 69 69 74 73 74 75 73 71 71 72 73 69 72 93 95 86 86 95 92 94 95 92 95
97 83 76 83 92 82 77 80 80 83 82 84 88 87 90 92 92 90 88 87 86 87 86 83 84 83 78 75 76 78 79 74 85 97 90 90 96 97 92 92 92 91 94 100
92 95 95 92 97 96 88 80 82 81 86 88 88 90 90 98 91 94 96 100 95 94 85 84 88 85 84 84 85 90 88 90 97 99 99 95 92 93 94 97 97 96 98 98
97 98 97 99 94 96 89 83 79 78 80 90 96 96 93 94 95 92 85 78 77 88 95 98 97 92 90 91 91 98 96 98 100 100 99 100 99 93 95 97 97 96 96 100

GFSCGP_700_rhum_099.txt.gz
RH
83 73 71 96 91 98 83 90 98 78 97 87 67 82 78 98 96 100 97 81 80 72 62 55 48 49 51 56 57 59 59 69 72 63 51 57 53 41 40 46 48 48 43 42
89 75 76 96 91 97 98 95 88 76 75 85 83 94 93 78 90 73 62 66 72 76 76 66 53 48 48 50 56 61 70 72 69 66 62 58 65 69 74 64 58 57 58 57
96 66 92 88 82 89 96 99 80 75 67 59 65 79 83 80 58 79 66 73 62 71 71 73 72 54 49 48 48 55 63 67 72 73 73 71 70 70 69 64 69 76 84 87
79 79 92 87 71 84 98 98 93 81 77 79 72 85 59 68 64 57 72 69 70 63 68 69 66 61 40 46 48 47 49 53 61 71 71 76 81 80 82 73 71 81 90 90
94 92 93 90 78 77 97 96 98 86 97 94 98 86 60 71 65 53 67 68 62 62 63 64 68 68 37 45 44 43 43 44 48 52 63 79 82 84 73 68 71 74 95 99
94 98 96 93 88 96 96 99 98 98 99 90 79 97 55 62 51 63 70 58 55 63 63 63 61 64 52 33 37 32 31 35 38 52 67 73 86 77 85 81 76 78 94 97
97 98 97 94 98 96 94 99 98 98 98 92 73 93 46 50 49 48 54 62 46 61 63 62 56 58 62 66 35 38 42 45 45 55 72 74 69 67 68 76 84 89 86 86
91 95 97 96 84 76 96 94 92 93 95 76 72 73 48 42 35 39 49 50 50 47 56 60 54 52 58 70 81 73 55 52 50 53 64 70 73 83 87 86 84 84 94 97
97 99 99 89 77 70 93 97 100 98 70 68 76 57 56 44 50 51 52 52 58 55 51 48 52 52 51 55 62 46 51 54 60 72 74 76 80 78 86 84 73 65 74 81
95 96 100 91 97 98 96 84 90 97 92 86 59 47 42 46 45 45 50 54 58 60 57 61 47 51 86 62 40 48 45 49 68 80 80 80 80 87 78 74 72 78 77 71
96 85 98 88 86 79 83 78 93 96 84 86 82 54 46 42 45 44 39 54 61 60 62 64 68 68 75 65 61 44 44 51 59 75 84 89 89 84 84 82 82 84 80 70
96 96 92 84 91 85 69 73 87 90 89 87 78 66 62 54 49 50 36 32 55 62 66 67 68 60 58 50 40 39 40 54 67 84 90 89 87 92 88 96 96 98 80 74
86 97 98 93 96 95 99 69 70 84 82 94 95 68 66 56 52 49 48 38 36 38 45 61 69 68 62 52 46 44 44 50 56 68 70 85 90 91 92 78 81 73 72 83
98 98 97 88 82 71 76 70 70 79 70 97 94 69 64 64 60 61 50 43 46 47 42 40 39 40 44 45 41 41 42 41 44 57 61 68 75 78 85 81 73 69 71 71
97 97 97 98 92 78 65 62 71 69 72 86 77 85 79 61 66 55 48 42 40 37 36 44 40 40 42 39 40 43 44 41 40 42 50 60 70 77 78 75 73 74 75 75
91 96 91 90 84 87 80 68 64 71 65 74 77 69 67 68 66 64 56 46 36 35 34 32 40 41 41 41 41 40 38 38 39 42 46 58 72 76 76 77 79 79 76 71
100 96 88 89 79 85 79 91 72 81 81 73 76 76 70 64 64 60 53 44 39 36 36 36 39 44 43 42 44 43 43 45 49 54 60 68 72 74 75 74 70 65 63 66
96 89 85 78 72 78 72 76 83 84 82 78 78 77 83 74 67 61 52 44 40 46 47 46 45 45 50 49 50 49 51 53 54 57 59 58 58 60 64 68 72 74 72 69
78 86 86 77 70 66 57 55 56 78 80 76 67 58 54 56 58 52 47 53 58 56 54 54 52 52 56 58 59 59 60 62 62 60 59 58 60 66 70 72 74 79 82 85
69 81 86 81 74 70 86 72 70 64 88 94 85 74 64 58 56 59 57 49 55 64 60 63 57 57 58 63 66 70 72 69 65 65 65 65 65 65 67 71 83 87 86 85
80 77 78 84 87 71 70 63 58 60 89 98 91 74 65 70 66 66 73 69 63 48 49 65 65 62 68 71 77 80 70 71 70 67 67 66 65 66 73 78 80 92 91 85
76 80 80 78 91 83 70 65 62 80 86 91 84 78 76 80 78 72 71 67 64 54 50 64 74 66 75 84 90 79 73 77 73 71 68 68 69 74 89 98 90 92 93 92
81 81 87 76 84 78 76 81 83 82 84 84 83 84 84 88 91 88 85 82 76 71 71 76 80 76 78 82 79 77 76 74 74 76 77 74 80 96 93 91 94 94 93 94
89 92 84 89 90 84 82 79 81 81 82 85 86 94 91 98 99 98 96 92 91 90 87 84 85 87 87 84 81 77 77 77 78 81 80 91 100 92 91 97 96 95 97 97
97 98 93 93 93 88 86 87 86 82 77 80 88 93 94 96 96 97 99 97 98 100 96 92 95 97 93 90 88 87 86 84 88 90 96 100 100 100 99 100 95 97 99 96
77 82 96 94 96 99 95 88 88 81 80 79 88 93 94 96 97 97 96 94 89 81 84 93 95 97 97 95 92 91 92 90 84 92 99 100 100 100 100 98 92 94 94 95

GFSCGP_700_rhum_102.txt.gz
RH
80 84 84 83 94 94 99 93 82 88 75 88 86 72 90 100 100 100 93 92 83 78 67 58 59 70 79 72 70 60 68 66 58 60 60 48 50 52 52 53 54 48 41 42
72 93 83 88 95 91 98 90 91 93 85 89 92 87 94 89 98 97 99 100 96 80 71 60 60 55 63 71 72 73 72 67 63 66 73 57 58 55 59 59 47 48 52 53
75 68 80 98 99 89 98 75 76 95 96 99 99 99 98 63 98 99 96 99 96 94 80 73 56 53 53 54 60 62 67 65 66 72 73 76 69 65 61 67 69 67 65 68
86 94 77 93 94 93 96 78 66 98 98 97 98 96 98 76 93 92 92 96 80 96 80 77 62 57 50 50 56 65 64 67 67 59 64 71 63 65 78 75 70 70 79 72
84 92 88 91 94 95 98 99 85 85 95 92 92 59 56 64 69 60 70 76 66 67 74 73 70 65 56 53 51 52 51 54 55 58 62 67 72 73 77 74 76 80 81 74
92 98 98 94 89 85 98 100 98 83 86 90 77 66 59 60 37 32 40 72 71 68 71 71 68 69 69 52 46 48 52 52 46 46 59 58 60 64 68 76 76 78 80 81
94 98 100 94 91 82 97 99 98 98 97 95 80 83 44 51 51 39 34 56 61 69 67 64 67 66 69 49 36 43 49 50 56 52 54 55 54 59 66 74 78 75 73 82
96 97 100 92 80 76 92 97 97 95 96 96 92 85 49 48 50 48 49 57 66 60 56 64 64 63 62 53 46 43 43 47 47 48 51 51 56 64 67 72 75 81 83 82
93 97 100 85 70 71 92 98 92 89 77 82 92 70 55 43 47 34 45 57 57 51 56 65 64 63 62 56 48 46 46 41 48 47 44 46 52 60 74 77 80 84 82 75
92 94 96 100 100 97 95 94 96 86 85 92 76 53 48 51 49 47 46 48 50 51 49 50 64 64 62 60 61 67 78 61 51 47 49 50 69 82 86 90 90 83 76 78
93 91 96 92 85 91 83 86 92 95 92 87 83 56 55 49 48 47 46 46 48 51 55 54 45 56 62 63 63 89 78 62 49 42 50 65 77 83 83 80 80 81 84 89
93 89 84 84 89 85 82 76 84 79 89 91 72 73 69 51 49 46 47 43 54 56 56 61 57 59 67 73 83 93 85 55 50 59 70 78 80 85 88 90 87 94 93 80
98 89 98 87 93 96 74 61 66 75 77 96 87 73 66 62 59 57 57 47 44 62 62 60 61 64 70 72 60 54 62 64 58 58 70 74 84 90 89 88 90 90 92 74
100 99 97 81 83 81 74 64 66 74 72 96 87 70 69 62 53 50 52 51 45 45 56 66 66 67 68 70 66 65 65 58 51 54 51 59 71 79 90 90 92 88 88 80
89 99 98 98 97 82 70 61 67 76 72 85 93 80 74 64 57 50 52 48 44 44 40 39 45 55 66 72 64 53 51 49 48 46 47 56 71 77 80 78 78 79 81 76
92 94 84 87 96 98 87 65 72 82 86 76 93 87 79 71 66 62 56 47 41 39 36 37 43 43 44 43 43 43 45 48 48 45 43 45 52 61 69 72 75 77 78 78
99 95 84 81 82 87 88 97 71 76 90 86 84 81 74 69 63 57 58 57 50 42 39 38 35 42 47 45 45 45 46 45 44 44 45 48 49 55 64 72 77 80 80 76
96 89 83 78 69 77 76 88 94 84 90 87 81 80 78 76 71 66 65 57 52 46 42 44 43 41 47 51 49 45 46 51 53 55 58 59 61 65 68 68 68 66 64 66
85 88 87 80 72 69 61 58 66 91 91 89 73 72 69 63 58 55 57 49 46 44 51 52 48 48 47 58 56 56 59 58 56 56 57 58 59 61 63 67 69 72 72 74
76 83 86 84 78 74 89 72 73 69 85 88 83 79 72 64 62 59 56 51 46 51 56 59 60 58 60 63 63 65 66 67 68 68 66 64 66 70 70 68 65 65 70 77
78 76 78 83 84 76 74 67 64 77 86 93 94 87 71 59 64 67 69 74 66 53 53 61 62 62 63 73 77 79 79 80 74 68 69 68 67 66 64 63 63 65 73 81
82 81 84 81 88 84 76 73 66 81 89 93 92 79 72 69 73 77 74 72 67 67 59 50 57 73 69 74 83 87 90 82 76 77 74 72 71 70 72 72 77 89 90 87
86 85 90 82 88 79 80 78 83 83 84 85 82 80 82 81 83 87 88 84 82 75 69 61 63 78 78 80 86 93 94 81 82 81 77 76 75 78 79 77 93 87 78 76
87 92 93 90 88 85 82 75 77 84 84 85 88 88 87 87 94 97 94 92 93 94 93 86 84 86 89 95 97 96 87 82 80 79 79 79 82 87 96 90 93 88 87 90
92 90 90 91 92 94 95 89 88 87 82 77 80 94 96 94 95 97 98 94 92 97 100 100 99 100 99 96 94 93 92 87 83 83 86 94 100 100 100 100 100 100 97 92
81 84 96 99 91 92 96 97 96 90 84 80 82 88 97 98 97 96 97 93 87 85 82 83 92 97 98 97 97 98 98 97 98 97 92 89 92 98 100 100 100 100 100 100

GFSCGP_700_rhum_105.txt.gz
RH
80 72 88 79 100 87 95 98 77 79 78 81 85 77 92 98 100 97 87 67 75 78 75 80 87 92 91 93 97 66 85 62 53 41 42 38 37 38 42 46 40 41 42 43
77 77 81 79 98 89 94 98 85 76 72 98 88 76 81 98 99 98 95 67 68 70 68 73 87 90 83 85 94 86 80 80 93 92 79 73 62 51 61 63 70 57 56 54
85 64 60 92 97 94 95 97 86 84 95 94 95 90 86 94 93 95 99 84 76 70 62 63 67 85 98 83 78 79 73 80 69 72 87 83 83 74 68 61 54 58 62 63
78 88 72 91 99 99 96 99 94 70 79 98 97 99 100 90 82 79 98 97 76 70 64 60 61 68 78 90 97 93 76 77 74 88 79 80 82 83 73 75 80 67 62 65
71 87 91 88 93 90 98 86 97 87 93 94 98 76 96 98 92 94 95 96 82 76 78 70 66 61 59 57 60 76 77 78 78 79 75 79 78 83 85 82 58 60 60 73
86 85 97 92 99 97 98 91 79 84 93 91 81 78 80 80 49 65 61 83 88 86 88 85 81 78 69 61 57 59 67 70 73 68 68 71 69 72 73 67 70 78 81 91
86 95 99 98 97 95 98 88 96 97 97 93 78 73 44 49 44 47 36 46 79 89 96 80 75 74 69 63 59 58 58 57 55 68 57 55 58 58 58 61 77 74 74 80
98 98 99 100 96 91 97 96 83 95 97 98 97 80 53 53 55 38 37 37 48 64 80 72 71 72 70 70 53 55 55 56 58 63 64 64 59 59 55 55 66 79 75 77
96 99 98 91 82 81 96 98 89 84 87 86 87 68 58 50 49 46 37 41 43 37 47 69 65 66 69 64 68 60 46 45 58 64 65 61 55 58 54 56 64 71 76 77
84 88 93 97 98 83 96 97 95 84 82 94 86 60 51 47 50 38 42 48 55 66 70 70 61 61 65 64 64 62 54 55 64 63 57 53 50 49 51 58 75 83 80 82
91 82 86 87 87 93 90 92 92 96 88 87 85 61 61 56 49 48 46 48 50 58 61 58 59 68 67 65 63 60 57 57 58 58 49 45 42 50 58 72 78 78 74 70
89 79 79 98 90 91 79 87 87 78 91 81 70 78 68 49 50 50 48 45 50 52 51 53 55 58 63 66 66 65 64 60 58 60 52 42 58 66 76 73 84 80 85 81
88 86 81 81 82 78 70 69 77 76 82 100 78 78 72 65 58 56 52 50 48 49 57 54 58 61 56 59 62 61 62 74 74 59 50 59 70 70 70 81 89 94 94 93
98 94 100 85 86 83 68 69 70 75 68 93 77 74 72 65 58 54 52 54 53 53 59 61 60 63 62 67 63 63 67 62 58 57 56 58 61 66 75 90 96 96 97 95
99 98 96 94 96 90 87 67 62 82 83 72 77 77 69 64 58 56 56 53 49 47 49 59 66 64 63 65 69 70 71 67 68 63 55 56 58 61 73 86 94 94 88 86
100 95 89 95 98 97 91 75 76 93 88 80 79 77 77 72 68 61 55 54 54 44 41 43 43 46 63 73 76 76 75 75 75 71 54 46 47 52 58 80 87 82 83 81
98 92 84 79 82 86 77 86 76 91 93 84 78 79 81 78 72 67 61 54 53 54 43 38 37 45 47 50 54 62 68 61 51 48 48 49 46 43 50 59 66 74 73 71
94 82 83 75 65 79 78 93 92 94 95 96 90 83 77 73 67 67 65 61 56 53 47 40 38 38 38 46 47 46 46 47 48 50 49 46 45 47 50 56 70 72 72 68
88 91 90 78 71 71 77 73 96 98 91 90 83 73 63 65 66 61 55 52 54 53 50 52 44 44 44 44 53 52 50 49 48 51 55 57 58 58 58 64 65 61 60 62
76 82 84 80 78 78 90 72 76 86 89 90 86 77 70 63 54 49 46 46 45 50 48 52 57 56 55 53 58 61 62 64 63 63 58 55 56 57 58 59 62 66 66 65
80 74 78 83 81 79 76 70 72 75 82 87 90 87 83 69 61 52 54 54 56 52 47 46 61 66 60 66 70 70 68 67 68 65 63 64 65 66 66 67 68 67 65 65
84 82 84 82 85 86 79 75 67 78 87 89 91 85 74 66 65 69 72 69 63 59 60 64 58 69 72 73 76 78 80 79 77 76 70 70 70 70 70 71 71 72 67 60
87 85 88 83 86 79 80 81 84 85 82 81 79 78 78 79 80 85 86 81 77 74 67 64 56 64 82 81 85 92 95 93 92 80 76 76 74 76 75 75 80 81 77 77
91 89 91 87 87 84 85 82 78 78 84 85 84 85 86 88 97 96 96 90 89 86 83 81 76 72 79 87 91 97 98 100 100 90 86 87 82 80 81 87 93 91 88 84
90 88 87 90 90 90 89 90 88 89 87 82 77 77 85 92 96 93 99 95 89 90 93 98 100 100 96 93 94 99 100 100 94 88 86 83 82 83 88 98 99 95 86 89
66 77 83 97 84 94 95 94 96 93 90 82 80 82 79 88 95 95 96 97 97 91 84 87 91 98 100 93 92 94 94 94 94 92 91 91 91 91 97 98 97 90 100 100

GFSCGP_700_rhum_108.txt.gz
RH
78 80 88 85 80 97 90 93 97 82 67 71 85 99 79 97 96 100 100 88 77 67 75 76 85 96 99 98 90 79 75 67 57 36 29 26 29 32 36 39 42 45 46 46
72 63 80 77 80 99 93 96 95 53 93 97 97 92 90 93 88 98 100 99 88 83 80 78 79 95 94 97 99 94 93 76 45 57 50 38 32 35 37 39 41 41 42 43
80 66 66 63 86 95 81 97 91 71 88 97 99 98 95 97 98 97 98 100 92 90 92 92 90 95 93 82 91 88 94 92 73 86 74 61 59 58 49 52 53 75 69 69
69 83 88 83 97 100 94 88 100 97 75 98 96 98 100 93 93 83 98 98 96 93 89 89 87 88 88 86 82 96 87 95 87 90 88 92 97 82 82 88 82 85 86 79
69 79 90 97 100 96 99 87 97 91 79 98 97 83 99 85 78 88 92 100 94 85 80 83 77 80 86 83 93 94 87 89 99 99 96 86 84 86 96 94 84 81 81 77
87 76 89 96 89 94 99 97 91 90 88 94 92 62 70 94 92 88 88 98 100 89 81 74 70 67 74 93 99 89 96 94 87 91 99 99 99 98 98 90 87 81 76 76
90 95 98 96 96 94 90 97 96 90 88 96 84 63 56 62 58 66 71 96 98 84 84 70 63 63 64 69 78 87 96 96 99 98 99 99 99 99 93 96 88 84 84 86
97 99 94 98 95 97 96 76 80 92 94 93 92 82 71 68 63 50 57 61 99 97 96 81 68 76 72 71 67 71 76 79 84 86 90 79 84 83 78 70 76 71 70 71
99 95 95 82 100 98 99 76 84 86 86 86 93 66 62 53 54 56 53 45 86 94 94 81 74 72 70 70 66 62 61 62 69 72 72 70 66 64 63 62 62 64 65 71
94 94 96 96 94 98 92 93 94 84 84 90 84 63 68 57 55 52 47 40 53 92 99 77 77 72 72 71 69 63 62 58 58 61 66 66 66 62 59 58 56 52 56 62
92 82 80 86 95 95 90 95 93 91 88 92 88 74 75 61 60 49 55 58 51 59 72 83 85 80 69 63 66 68 64 56 49 53 57 60 60 59 54 50 53 57 70 72
80 79 91 98 92 94 90 95 92 80 88 73 73 82 75 58 55 53 61 62 62 50 63 72 73 69 68 66 67 67 65 62 55 50 58 56 49 48 49 53 63 70 71 75
95 92 80 65 75 79 76 75 81 83 81 99 80 79 70 65 61 52 50 50 57 59 60 60 62 55 56 64 68 68 67 66 62 58 54 55 51 46 54 66 74 78 88 84
94 100 100 97 99 97 82 71 75 70 66 78 78 76 72 63 56 52 48 46 44 44 45 54 53 51 52 59 62 63 65 65 64 79 77 60 52 57 63 72 75 82 88 94
97 98 86 91 90 99 84 71 75 79 77 69 75 72 69 65 63 62 58 50 48 46 44 45 60 60 60 56 60 68 66 60 69 71 66 63 59 58 61 64 64 70 82 83
99 93 90 92 94 95 84 80 97 92 82 70 74 74 72 69 68 66 61 55 54 47 46 46 58 65 64 64 65 67 67 69 76 77 74 70 72 59 51 56 54 56 64 71
95 84 83 76 83 92 76 91 85 94 87 84 84 86 81 78 72 65 61 64 59 54 48 42 46 47 55 64 66 68 73 76 86 83 80 75 66 51 46 47 49 52 63 72
88 76 75 69 67 85 75 89 92 97 93 91 96 94 86 79 72 64 63 61 62 62 56 45 38 37 41 47 50 59 70 75 77 72 67 60 52 49 49 46 45 48 54 60
85 83 84 72 74 74 82 76 97 99 88 92 89 83 76 70 66 62 57 52 53 54 57 52 48 44 40 38 41 47 50 51 51 51 50 51 53 53 49 47 50 54 64 72
74 78 81 81 75 82 86 77 78 81 96 98 92 84 77 70 64 56 52 49 50 51 52 53 52 52 49 48 47 45 48 51 54 55 57 56 58 59 60 64 70 62 60 61
73 72 73 82 83 81 77 72 83 80 81 88 90 86 78 74 64 58 52 55 59 56 60 57 53 53 62 61 62 69 73 67 62 69 68 65 62 63 66 64 64 62 65 66
75 74 77 79 83 86 77 70 68 72 94 95 89 84 78 70 66 66 68 73 75 73 65 64 70 72 77 74 76 76 76 74 74 72 71 70 72 69 66 69 67 66 67 66
82 77 79 73 79 77 81 85 80 82 82 79 77 75 75 78 81 84 84 88 86 82 77 69 66 66 82 88 85 92 89 88 85 83 84 83 75 75 74 72 70 69 72 74
75 81 83 78 75 80 81 83 81 79 80 81 81 79 79 84 87 89 93 95 87 86 88 89 90 79 87 96 96 99 99 98 98 97 96 91 83 83 79 79 78 80 81 77
72 73 78 80 73 75 78 81 83 86 89 90 84 75 72 76 82 86 91 90 94 90 89 94 96 99 100 100 100 100 100 99 99 99 96 98 92 89 88 84 82 83 85 82
44 53 60 68 71 77 77 80 80 83 84 81 89 76 74 77 79 86 93 93 89 92 93 90 86 88 97 98 97 98 99 99 98 98 98 98 97 96 92 89 89 97 99 93

GFSCGP_700_rhum_111.txt.gz
RH
73 82 72 83 88 92 91 99 96 60 76 99 96 58 69 74 96 89 98 99 98 82 82 83 92 97 98 95 79 70 67 64 40 54 32 25 21 23 26 32 39 45 48 49
74 49 62 65 77 88 93 98 92 71 68 98 91 67 64 99 90 98 90 96 98 86 78 74 89 86 97 96 90 83 74 58 45 43 46 30 25 26 28 33 39 45 47 49
73 53 70 73 65 87 96 96 93 90 98 98 84 94 98 100 99 91 96 91 98 98 79 71 80 85 94 92 88 71 69 61 64 62 56 37 28 30 32 33 38 43 44 46
59 63 80 78 96 97 98 95 97 85 97 98 98 97 99 100 91 84 73 79 99 100 75 73 79 85 96 96 99 93 96 82 70 71 75 53 37 34 33 35 38 43 56 65
73 61 80 92 94 93 97 97 98 99 98 94 98 87 100 99 86 88 87 91 99 100 74 74 81 82 78 91 96 100 100 98 100 84 91 78 74 78 53 53 58 70 76 88
78 71 88 95 98 97 99 97 98 85 93 97 98 77 88 93 96 99 88 98 98 97 78 89 84 81 83 74 95 94 98 99 96 91 93 92 97 98 82 71 75 78 84 85
91 94 99 99 93 96 100 90 87 87 89 96 95 78 81 91 96 90 98 96 100 97 91 86 81 74 82 92 97 99 99 100 99 100 95 98 99 100 99 92 91 94 86 96
99 90 97 87 98 98 93 89 92 87 92 93 82 90 78 79 72 78 94 99 96 100 98 94 96 93 92 92 99 100 95 90 97 95 91 100 100 98 100 100 100 100 98 95
95 88 93 99 96 95 84 86 98 90 88 82 87 74 69 76 61 64 79 95 100 100 90 83 86 86 82 77 76 83 93 98 100 97 98 100 99 97 99 97 98 80 83 84
83 78 78 94 98 100 72 90 96 80 85 91 74 81 87 71 60 53 59 87 100 100 96 88 87 86 77 76 72 69 67 70 76 81 89 94 95 94 89 86 88 76 70 65
77 80 78 86 98 100 98 99 97 91 81 82 78 96 97 75 69 59 65 77 97 100 97 94 89 85 73 69 73 75 74 70 64 60 67 74 76 77 83 79 72 64 60 59
78 77 89 92 96 94 97 100 97 83 84 80 79 95 93 67 65 71 67 71 80 87 98 98 85 95 84 79 74 78 79 73 67 59 51 53 62 66 66 65 64 62 64 66
77 68 72 64 73 71 77 85 89 77 76 94 84 87 80 67 58 56 63 71 76 81 68 78 92 94 93 80 65 67 72 69 66 61 52 56 61 62 58 58 62 73 80 81
98 84 93 96 95 92 77 71 76 64 72 84 80 78 70 64 59 53 51 53 59 70 70 71 73 76 76 81 63 68 67 66 65 62 58 59 52 56 53 53 59 72 80 76
92 99 97 90 91 95 73 65 78 64 76 73 78 75 75 70 65 60 59 50 50 47 49 57 57 54 57 59 54 58 67 68 67 66 66 61 57 56 53 60 71 73 70 70
88 90 93 99 98 85 76 89 83 81 80 77 76 76 79 75 70 62 55 55 50 45 42 44 61 60 60 64 64 61 62 69 69 66 71 69 62 54 52 52 56 62 62 59
80 78 76 80 91 84 71 86 93 85 88 87 84 91 86 78 72 67 60 56 53 51 43 42 44 61 68 65 66 69 70 71 73 76 74 73 73 68 69 65 56 52 54 58
80 73 72 71 72 84 85 93 94 90 96 90 87 86 80 73 68 61 61 59 53 51 49 44 40 42 46 55 66 68 70 72 76 78 83 85 80 75 80 72 54 46 48 53
79 74 72 68 79 88 89 97 100 97 97 94 87 78 75 71 64 58 58 56 52 50 51 50 43 40 39 40 44 47 52 65 79 87 89 88 82 73 61 54 53 52 48 51
72 75 71 74 72 82 81 84 92 92 99 98 90 82 75 67 58 56 47 42 41 42 45 50 51 50 48 45 41 40 43 48 50 51 53 53 53 52 52 54 54 55 60 70
70 68 72 76 81 83 79 71 79 68 89 98 89 87 78 73 64 58 53 50 45 43 41 40 45 49 51 52 50 48 48 50 56 55 56 58 59 58 57 62 65 64 68 71
74 72 72 75 80 84 75 72 72 69 83 85 82 79 75 68 62 58 57 60 62 63 57 51 51 54 52 60 65 64 66 68 69 72 71 73 74 75 73 68 66 66 68 71
76 73 72 70 68 69 75 77 75 76 78 78 74 73 72 73 73 72 68 67 76 76 75 70 62 65 70 75 84 80 78 86 89 87 83 78 75 74 77 75 74 74 73 74
64 72 72 71 72 73 74 74 74 73 70 71 75 75 74 75 78 79 81 82 80 77 81 84 85 80 87 100 100 96 98 99 96 91 90 89 87 88 85 83 82 81 84 86
53 62 68 68 68 72 72 72 74 78 77 79 79 77 77 72 72 75 85 90 91 89 85 84 84 94 100 100 100 99 98 98 98 99 98 98 99 98 97 97 96 96 97 92
23 32 46 48 63 69 70 72 75 77 76 78 81 82 86 77 71 76 94 95 100 100 97 95 95 93 97 98 100 100 99 93 95 98 98 98 98 99 99 97 98 97 97 98

GFSCGP_700_rhum_114.txt.gz
RH
72 80 94 85 91 100 100 100 100 88 90 95 91 96 91 75 87 88 74 88 80 54 70 70 90 89 100 98 91 68 50 64 64 52 43 31 29 28 29 26 28 41 48 50
88 98 86 78 58 78 100 100 96 88 82 96 90 98 89 84 66 75 73 82 84 54 50 78 97 100 96 99 92 80 60 36 65 61 57 48 30 29 29 30 28 40 47 49
93 76 58 62 81 99 98 97 99 99 98 97 100 98 96 81 73 72 65 91 96 77 60 81 86 98 94 99 99 98 83 68 60 61 63 60 38 36 28 29 29 37 43 46
68 48 61 73 96 98 98 97 98 98 98 98 92 85 95 80 98 68 69 64 66 74 79 81 76 88 99 97 99 99 99 73 55 59 41 40 52 31 30 28 29 34 40 44
64 60 72 86 93 98 96 96 95 98 95 96 94 93 98 99 99 81 71 58 62 68 64 74 71 81 95 100 98 100 96 81 64 66 62 56 70 58 34 30 32 35 40 47
62 62 77 95 95 98 96 97 99 98 98 97 99 87 98 99 99 86 82 59 53 50 52 69 73 74 94 100 93 99 99 98 98 84 81 74 78 76 52 39 37 39 53 65
84 88 96 100 99 96 86 93 82 94 94 95 99 76 97 99 96 90 84 69 81 96 99 81 64 76 91 99 97 96 94 98 95 100 91 79 86 92 76 76 65 64 70 74
100 84 88 85 100 100 100 100 93 90 91 94 97 89 98 94 84 90 100 100 100 100 100 96 89 81 97 98 98 88 86 99 99 98 99 100 100 97 100 99 83 94 83 94
100 96 93 100 99 93 88 98 100 97 77 74 98 90 88 93 86 95 92 99 99 98 93 99 89 89 89 94 84 81 71 94 99 98 98 99 98 92 100 100 100 100 100 100
95 96 91 99 90 85 94 97 98 90 75 88 89 97 98 83 79 82 96 99 98 99 97 100 94 89 92 89 89 96 95 93 99 99 99 97 76 75 97 99 97 100 98 97
85 86 85 88 99 96 98 99 98 91 84 66 76 96 98 95 88 78 96 99 99 99 97 95 93 97 96 88 91 83 86 91 96 96 93 93 86 83 84 94 95 88 83 87
78 73 98 97 97 87 91 100 99 87 76 75 73 96 94 84 81 87 82 92 99 99 100 87 79 71 69 79 87 90 89 82 80 73 63 73 82 86 89 88 91 93 88 80
98 80 81 66 86 76 91 89 69 71 75 98 72 95 86 72 74 84 86 88 98 99 99 96 84 79 76 76 86 87 82 80 77 76 66 67 72 75 77 83 85 82 82 80
90 100 97 89 99 90 96 71 64 76 80 80 86 89 78 73 72 66 72 81 82 84 89 99 98 92 82 73 73 77 85 86 84 78 69 64 62 65 72 75 76 75 75 85
87 96 97 96 89 98 96 93 70 72 80 83 91 89 82 72 68 71 67 63 62 71 82 74 83 91 96 89 80 73 73 87 77 73 69 67 65 61 61 64 67 68 81 99
88 90 91 98 90 94 95 88 93 82 87 90 88 84 80 73 73 68 63 61 52 51 53 63 68 59 62 70 68 62 68 69 71 74 72 70 70 64 62 60 67 73 82 89
82 86 84 90 83 75 81 95 99 92 86 89 91 88 81 71 65 60 57 56 56 50 44 45 51 68 65 64 64 65 66 67 71 73 75 84 83 69 66 68 70 71 76 79
77 73 71 74 70 68 97 95 98 88 91 89 84 81 76 70 62 58 56 54 52 52 50 44 39 43 61 68 68 67 68 71 75 83 84 99 94 83 80 80 81 79 75 64
71 69 73 70 75 86 87 96 91 94 95 91 85 77 70 66 62 55 51 54 53 51 49 50 47 41 38 42 52 63 70 70 71 75 84 92 96 96 97 88 84 86 78 62
66 70 75 68 70 67 72 87 94 93 100 92 86 80 75 68 65 56 50 42 38 40 44 46 50 50 49 47 42 39 42 50 57 67 77 85 88 89 90 83 74 62 61 61
61 60 76 81 76 76 69 70 73 74 90 88 84 82 73 68 66 60 55 49 47 43 36 38 41 44 49 52 52 50 49 47 47 52 57 59 61 61 62 61 60 61 63 64
69 71 73 66 81 78 68 66 71 63 76 75 79 75 71 68 67 63 59 55 53 50 50 48 47 46 49 46 47 55 61 66 66 65 63 68 67 68 72 74 80 83 84 83
66 63 71 64 66 64 67 65 64 64 69 72 70 65 63 64 64 64 68 74 76 74 62 61 62 61 65 69 70 77 80 80 90 94 91 93 90 87 87 86 82 79 82 83
44 50 62 63 66 67 68 67 67 66 65 63 63 64 63 61 58 55 57 60 65 70 77 79 82 82 75 88 96 99 100 100 94 98 100 99 95 91 88 87 90 90 91 90
32 38 48 54 61 66 68 68 70 67 66 65 63 62 60 59 66 62 59 57 63 73 79 79 77 78 85 89 94 96 98 98 99 99 98 98 97 98 99 100 100 99 96 94
11 16 28 33 46 58 60 57 60 64 66 66 68 65 61 67 66 63 55 55 63 64 70 76 80 81 86 87 85 89 93 94 94 99 99 98 99 100 99 98 98 99 99 98

GFSCGP_700_rhum_117.txt.gz
RH
98 94 94 95 85 89 86 82 84 69 64 65 65 84 78 83 91 87 82 90 95 100 70 63 77 81 87 77 94 100 98 98 68 60 36 32 24 23 25 28 27 21 33 44
100 95 89 76 69 80 79 75 71 72 72 78 77 73 72 89 79 87 96 91 73 73 73 57 62 87 78 76 95 100 96 78 77 59 42 42 32 26 27 29 26 23 36 46
98 81 81 80 83 88 86 90 88 91 85 94 96 77 71 82 93 91 88 78 69 61 80 35 45 80 73 81 83 98 99 93 74 76 54 46 42 29 29 30 30 25 37 47
94 68 54 65 82 95 96 91 95 97 98 92 81 74 82 76 88 95 95 73 57 95 83 50 42 65 78 69 74 99 98 99 76 92 78 65 46 37 29 29 28 25 35 45
66 71 93 93 98 97 84 98 98 98 98 99 92 97 90 85 90 94 92 84 84 98 89 49 53 59 81 69 69 99 100 98 80 88 82 82 81 54 40 32 31 32 32 39
65 74 98 93 92 95 99 98 97 94 88 92 83 92 98 98 97 92 98 98 100 61 72 61 63 66 80 57 67 98 98 100 98 85 76 76 62 56 38 35 38 36 33 33
81 85 88 96 89 90 99 99 97 97 97 81 98 96 98 97 98 99 99 97 98 65 51 44 54 62 72 77 85 99 100 100 100 84 83 74 72 60 67 52 42 38 38 36
100 93 98 100 100 100 95 100 97 95 92 80 74 90 98 98 97 99 99 100 100 65 44 42 44 54 75 78 88 97 92 100 100 98 97 94 82 82 72 53 62 50 47 49
100 94 96 100 100 95 80 100 98 98 93 80 98 97 98 98 98 99 100 100 100 99 97 78 68 66 69 80 93 97 98 100 99 100 98 99 95 81 80 99 84 77 64 74
98 97 97 97 79 90 97 98 99 91 93 91 93 96 97 98 99 97 99 100 100 100 100 98 86 75 72 86 90 93 97 96 97 93 96 98 100 100 97 100 100 94 89 91
100 99 97 93 95 98 95 98 97 97 77 93 83 96 98 98 98 99 99 100 99 100 100 100 100 93 90 89 78 80 98 97 99 98 100 100 94 80 72 75 91 100 100 99
100 96 97 90 91 98 98 99 100 98 71 84 71 97 98 99 100 98 99 99 99 99 100 100 100 99 95 96 78 73 86 98 100 99 96 97 96 86 79 75 87 91 93 99
100 100 98 74 85 91 97 94 71 72 83 76 73 97 100 83 86 97 99 99 98 99 100 99 99 100 99 95 92 96 97 96 96 96 87 86 86 83 81 82 79 84 77 84
98 99 99 87 97 99 97 87 75 74 82 91 99 98 99 85 80 80 89 93 98 99 99 100 100 100 100 99 97 97 100 89 96 96 96 91 85 87 86 89 92 91 94 97
100 99 97 94 100 96 92 90 83 79 82 91 92 97 100 98 83 77 66 75 85 78 95 100 99 98 98 100 100 100 100 100 99 98 89 73 67 65 73 80 83 90 96 91
91 98 94 90 86 86 99 94 96 90 87 90 92 100 88 82 76 68 66 59 55 62 76 79 87 96 100 96 88 92 98 98 95 87 78 77 72 68 63 62 66 73 78 82
92 95 91 79 84 80 71 99 99 100 95 94 97 99 94 69 62 62 60 58 58 49 50 60 71 72 74 77 74 78 81 90 94 95 86 75 76 79 67 62 64 68 75 88
73 77 83 65 64 60 96 100 99 95 92 98 88 82 74 68 61 57 58 57 54 53 53 47 46 56 73 70 69 70 71 72 78 85 89 94 97 93 74 69 68 65 73 85
70 75 74 62 65 83 91 93 94 99 91 85 82 77 71 68 71 52 48 46 48 50 51 52 51 45 42 50 66 72 74 73 73 78 89 96 100 93 93 86 84 80 80 77
62 65 82 72 64 60 79 78 77 80 98 84 79 76 70 72 91 55 50 44 41 39 40 46 49 52 51 50 48 46 52 65 82 88 88 88 89 90 95 95 99 100 95 90
72 66 72 67 67 80 65 76 78 81 96 85 78 72 65 57 55 53 49 46 42 39 40 41 42 48 50 55 58 60 56 52 51 53 59 70 80 89 92 98 99 98 93 83
69 64 59 66 63 71 70 75 89 68 69 71 72 61 53 52 51 50 48 48 46 40 36 37 39 42 50 56 57 62 70 72 67 64 62 60 62 62 63 64 66 65 66 68
64 61 71 66 69 54 62 60 59 64 75 71 64 60 54 50 48 47 49 50 51 54 53 51 46 47 47 48 57 77 78 88 97 96 90 86 85 80 73 70 72 75 79 84
33 35 48 51 48 52 56 57 58 59 57 54 51 53 54 51 51 50 49 46 49 51 56 62 65 61 58 61 61 66 90 96 95 98 97 98 99 97 96 97 94 90 86 85
30 23 28 36 42 46 47 48 51 53 53 54 54 51 50 46 45 51 54 50 49 54 59 65 71 75 75 72 68 67 70 75 90 90 97 98 97 98 96 96 97 97 94 92
8 10 16 42 25 39 39 39 41 44 44 48 50 54 51 46 49 52 51 48 47 50 51 54 62 70 74 76 76 77 79 79 79 76 80 83 90 92 93 95 97 98 98 98

GFSCGP_700_rhum_120.txt.gz
RH
91 94 87 82 89 89 94 92 88 68 57 62 64 66 61 57 64 57 94 90 74 72 71 80 95 56 55 61 84 97 100 100 100 85 85 60 32 32 28 20 19 22 26 22
100 89 75 90 93 77 69 69 54 51 67 82 90 84 70 66 69 64 87 96 92 67 76 78 97 62 33 58 80 90 92 100 96 82 85 57 32 23 21 20 20 23 26 20
97 65 76 87 79 79 72 80 80 86 76 87 79 71 53 52 73 84 89 75 94 94 90 88 72 54 18 57 80 84 84 100 99 94 82 53 33 24 21 20 22 28 30 23
85 73 78 80 72 93 92 76 97 97 99 96 81 88 56 71 66 83 88 93 77 80 92 91 75 54 24 56 77 70 80 99 99 94 73 53 33 26 22 21 25 32 29 26
71 68 95 92 83 99 80 99 100 97 98 98 85 98 67 77 73 84 93 94 98 76 99 90 91 59 38 71 78 67 64 97 100 97 72 69 41 38 24 26 29 34 30 26
70 69 95 79 91 97 96 94 98 97 98 98 65 97 96 93 91 97 84 85 96 99 99 99 90 81 52 73 69 82 58 99 98 99 85 74 53 60 52 34 28 33 32 26
84 89 96 100 98 71 99 98 97 97 100 93 96 96 97 98 93 96 98 100 96 99 89 90 74 61 50 69 76 74 76 71 82 94 99 94 71 76 54 43 31 31 35 32
95 89 95 95 100 97 90 98 98 96 97 93 98 97 98 99 98 99 99 93 98 97 70 74 54 62 57 76 84 80 74 82 78 96 98 99 94 76 80 59 44 40 35 36
97 89 93 94 99 100 91 98 98 98 94 80 96 95 96 98 98 98 99 99 98 95 60 52 45 67 66 90 86 73 70 81 99 96 97 100 100 98 82 70 57 57 49 46
96 95 96 95 93 90 96 98 97 97 96 95 96 97 98 97 98 99 99 100 99 97 73 52 56 74 81 89 78 73 81 96 98 100 99 99 100 100 98 87 91 78 55 48
95 97 89 98 98 100 97 98 98 98 93 96 95 97 98 98 98 99 99 99 100 100 100 92 96 91 92 86 83 74 69 81 92 98 100 100 100 97 99 100 99 86 90 78
95 98 95 96 97 100 100 91 90 96 96 97 95 98 98 98 98 99 99 99 100 100 99 99 86 95 95 85 81 67 71 72 83 100 100 98 98 100 98 97 98 98 99 92
96 94 96 86 76 86 98 79 79 76 82 97 96 98 96 98 98 98 99 99 98 100 100 99 98 99 90 94 89 87 76 87 99 100 100 99 98 82 88 84 77 87 99 99
94 94 94 98 98 99 98 85 71 76 92 97 99 98 95 86 91 98 98 100 98 99 100 100 99 99 97 95 94 100 98 91 95 92 98 96 92 92 88 90 86 84 93 90
92 88 88 92 97 84 92 98 87 78 80 96 98 99 100 84 81 85 83 95 99 99 99 99 100 100 100 100 100 99 98 99 97 98 96 96 100 100 97 93 90 89 91 92
100 88 83 84 86 82 82 91 95 96 98 93 98 100 81 73 65 63 66 57 61 89 98 99 100 100 100 100 100 100 100 96 92 83 89 79 78 78 85 91 100 100 100 100
84 92 89 78 65 73 72 97 99 99 98 93 95 97 71 60 59 59 56 55 49 46 60 82 86 95 96 98 99 99 100 99 99 99 88 78 72 72 68 65 72 85 94 99
72 77 75 70 59 80 96 98 97 96 100 99 92 74 67 76 60 51 53 53 52 53 48 44 60 74 72 75 73 72 71 71 75 80 88 95 92 85 86 76 69 71 77 83
63 70 77 66 70 80 82 89 96 96 89 86 79 81 91 82 67 48 46 43 41 46 49 51 48 42 50 70 71 69 72 78 88 98 96 94 89 92 98 90 81 74 75 82
58 61 75 62 64 76 86 78 81 91 100 88 81 74 84 90 55 56 48 44 40 36 33 38 47 50 48 43 42 52 68 74 76 77 88 97 100 100 100 99 93 92 88 86
60 70 71 67 64 72 60 68 73 78 98 91 73 62 54 50 55 57 55 48 38 35 33 33 32 33 43 48 51 54 52 47 47 56 70 81 87 94 98 100 100 100 100 100
66 64 62 61 65 70 57 67 69 76 67 63 66 61 58 53 54 63 68 66 64 57 51 41 34 30 30 33 34 40 47 51 55 58 55 52 52 56 63 71 81 96 99 99
55 60 61 62 60 44 51 53 54 56 61 64 62 55 53 52 52 51 50 55 61 71 74 65 59 56 51 43 37 35 37 39 43 52 64 75 76 74 70 68 66 67 69 71
30 32 40 42 37 47 54 53 52 53 54 53 52 53 51 47 45 45 49 47 44 44 51 61 75 78 73 67 64 59 53 50 54 48 56 66 63 71 79 88 93 91 86 85
32 21 23 27 33 38 38 40 42 44 46 49 51 50 46 41 38 41 45 45 44 42 41 41 43 45 51 60 70 75 76 73 66 65 71 79 71 82 94 89 96 94 92 96
5 8 11 12 21 27 26 27 30 34 35 33 35 36 34 33 29 27 28 29 28 30 31 34 38 40 41 46 51 56 62 66 69 72 74 72 70 70 74 79 86 96 97 96

GFSCGP_700_rhum_123.txt.gz
RH
88 78 51 61 77 81 88 91 88 33 57 64 56 72 57 47 48 43 48 58 60 52 48 53 30 26 60 76 59 63 59 83 96 99 98 95 98 97 78 88 99 60 27 18
82 64 70 93 85 91 93 84 64 53 58 76 73 64 61 41 32 30 31 47 62 62 67 75 56 72 87 69 52 55 58 81 93 98 100 99 88 93 73 88 86 56 25 19
88 65 85 88 86 90 85 83 66 80 68 68 81 63 46 34 50 54 43 61 73 76 89 72 62 79 70 61 40 42 48 62 73 97 100 98 99 90 70 73 79 47 26 20
82 69 82 66 64 78 81 70 85 90 99 99 90 85 63 43 51 52 39 52 74 82 88 73 69 69 63 75 57 36 32 46 90 100 100 97 90 89 64 62 57 42 21 21
65 70 76 84 76 94 90 98 100 100 97 98 91 99 70 67 70 67 56 61 71 76 67 78 70 68 83 89 54 22 30 79 74 100 100 97 100 82 52 42 33 26 20 22
77 88 85 87 90 100 99 95 98 100 98 98 76 87 75 87 92 72 76 78 89 90 83 85 70 76 95 86 69 62 82 86 78 97 99 99 100 76 45 29 25 22 21 25
81 83 86 98 98 90 98 100 92 95 98 92 91 98 79 96 100 87 77 86 85 78 85 77 97 99 93 75 82 75 100 85 77 89 100 100 98 65 40 27 22 21 22 30
93 81 92 97 100 99 92 98 97 96 96 97 97 97 97 98 98 98 93 83 78 84 95 94 99 94 85 88 83 80 89 81 73 84 100 100 99 92 63 37 28 25 27 38
96 88 97 97 95 98 93 98 99 98 96 97 84 96 97 99 98 99 99 100 88 84 94 96 89 83 97 72 90 95 79 72 85 74 99 98 99 98 90 69 44 36 39 41
96 97 95 97 94 97 98 100 97 97 96 96 90 96 98 97 98 99 99 92 87 96 99 86 81 78 81 93 100 90 75 85 75 81 79 89 98 99 99 94 81 55 39 42
98 95 93 99 94 98 97 98 99 100 97 100 96 96 98 98 98 98 98 100 97 85 75 72 74 78 90 100 96 84 68 82 80 95 92 99 100 99 100 98 96 98 83 58
96 98 96 95 99 99 98 96 91 90 91 96 97 98 98 98 98 98 99 99 99 86 63 69 97 98 99 97 87 78 76 85 88 85 99 100 97 100 100 100 100 98 94 78
92 87 90 74 90 85 90 79 72 72 83 100 98 98 98 97 98 98 98 99 100 99 99 100 98 94 92 94 91 78 78 74 85 100 100 100 100 99 99 99 98 100 99 100
88 99 98 98 98 100 98 76 72 74 92 95 98 98 98 97 95 95 99 98 99 100 100 99 97 99 99 97 88 83 75 93 99 98 100 99 99 98 90 92 99 99 100 99
82 97 90 98 97 85 94 85 80 92 89 94 95 90 98 94 96 96 97 98 99 100 100 100 100 99 100 100 91 86 80 99 97 96 96 100 99 98 96 99 99 94 95 96
97 86 85 86 82 78 91 88 91 84 91 84 79 82 84 75 71 85 86 95 96 98 99 100 100 100 100 100 99 98 99 99 100 100 100 100 98 98 100 100 100 100 99 99
80 84 83 68 66 71 82 96 89 92 88 80 80 94 78 55 52 68 78 71 83 96 97 100 100 100 100 100 100 100 99 100 100 99 98 99 99 96 96 96 99 100 100 100
62 63 69 64 65 90 92 97 86 86 92 91 83 85 77 63 58 48 56 56 61 55 48 61 78 77 79 85 94 97 98 99 95 91 85 80 78 75 73 77 77 82 96 99
59 64 64 62 82 90 97 95 94 85 84 79 77 78 76 62 62 44 42 40 41 48 54 53 48 53 74 71 68 70 72 72 71 81 90 93 87 84 78 75 74 73 78 87
58 66 66 64 68 80 80 80 94 96 87 81 75 61 62 49 41 44 42 42 39 37 34 40 49 50 48 41 44 60 72 74 74 76 86 91 98 89 88 88 79 69 71 82
52 72 68 66 63 60 62 73 77 85 85 78 61 48 48 49 46 45 46 44 42 37 31 30 31 31 34 42 47 50 49 46 45 52 68 78 88 93 94 95 97 99 92 87
54 56 59 64 66 65 58 69 72 62 62 64 53 48 42 38 40 42 44 46 42 40 41 41 40 37 34 34 34 31 32 36 43 47 49 49 46 48 58 80 97 100 100 100
45 51 50 48 46 47 54 56 52 54 61 60 55 51 47 38 30 30 36 39 40 39 37 34 33 37 36 37 40 39 40 38 37 36 36 40 47 56 60 59 60 67 76 84
30 34 37 35 27 31 42 42 42 49 54 50 50 51 49 45 39 39 37 37 38 37 34 32 29 30 32 29 31 35 35 36 42 47 46 45 44 49 51 50 64 76 83 87
26 19 23 22 25 28 31 36 41 41 44 47 51 53 52 49 45 45 46 38 29 24 23 24 25 26 27 24 19 21 32 33 31 37 41 42 46 49 51 54 72 87 93 95
4 8 8 11 17 21 21 28 32 37 38 39 39 41 37 36 36 39 33 31 29 23 20 16 12 12 12 12 16 19 24 24 26 26 24 32 39 41 45 54 62 66 68 73